<?xml version="1.0" encoding="UTF-8"?>
<gpx version="1.1" creator="2bulu-scraper" xmlns="http://www.topografix.com/GPX/1/1">
  <metadata><name>宜宾兴文县</name><desc>source: 2bulu.com trackId=86375987; exported 2026-08-30T14:30:49.654Z</desc></metadata>
  <wpt lat="28.1305832" lon="105.1578792"><ele>426</ele><name>起点-晏州书院
        </name></wpt>
  <wpt lat="28.1321589" lon="105.1635517"><ele>427</ele><name>十字路口直行
        </name></wpt>
  <wpt lat="28.1306015" lon="105.1643183"><ele>436</ele><name>右前方上坡进入小路
        </name></wpt>
  <wpt lat="28.1292728" lon="105.1644349"><ele>463</ele><name>直行
        </name></wpt>
  <wpt lat="28.1288732" lon="105.1647896"><ele>473</ele><name>左转延公路跑
        </name></wpt>
  <wpt lat="28.1244726" lon="105.1669764"><ele>529</ele><name>向右前方跑
        </name></wpt>
  <wpt lat="28.124236" lon="105.1669563"><ele>534</ele><name>向左前方进入小路
        </name></wpt>
  <wpt lat="28.1222918" lon="105.1675234"><ele>585</ele><name>堰沟小心
        </name></wpt>
  <wpt lat="28.1216251" lon="105.1695789"><ele>610</ele><name>右转-上坡
        </name></wpt>
  <wpt lat="28.1215313" lon="105.1697781"><ele>623</ele><name>延大公路跑
        </name></wpt>
  <wpt lat="28.1193158" lon="105.1714329"><ele>668</ele><name>左转-进入竹林小路
        </name></wpt>
  <wpt lat="28.1176174" lon="105.17243"><ele>742</ele><name>左转-大公路
        </name></wpt>
  <wpt lat="28.1121212" lon="105.175199"><ele>791</ele><name>右转-上坡进入树林小路
        </name></wpt>
  <wpt lat="28.1101412" lon="105.1763912"><ele>881</ele><name>直行-过马路直接上小路台阶
        </name></wpt>
  <wpt lat="28.1077156" lon="105.1768373"><ele>906</ele><name>路上有水
        </name></wpt>
  <wpt lat="28.1068591" lon="105.1768552"><ele>933</ele><name>左转-上公路直接到CP1补给站打卡点
        </name></wpt>
  <wpt lat="28.0982276" lon="105.1837254"><ele>901</ele><name>CP1补给站打卡点
        </name></wpt>
  <wpt lat="28.0962406" lon="105.18835"><ele>782</ele><name>水源-小河沟
        </name></wpt>
  <wpt lat="28.0947175" lon="105.1890378"><ele>701</ele><name>沼泽地-小心通过
        </name></wpt>
  <wpt lat="28.0937242" lon="105.1895528"><ele>705</ele><name>小桥-减速通过
        </name></wpt>
  <wpt lat="28.0926766" lon="105.1907264"><ele>723</ele><name>小河沟
        </name></wpt>
  <wpt lat="28.0915681" lon="105.1919938"><ele>820</ele><name>悬崖峭壁-靠左走
        </name></wpt>
  <wpt lat="28.0904378" lon="105.1934991"><ele>844</ele><name>左转延-前方路口上古佛台
        </name></wpt>
  <wpt lat="28.0911839" lon="105.1936733"><ele>852</ele><name>右转-上坡到古佛台小路
        </name></wpt>
  <wpt lat="28.0897415" lon="105.1975998"><ele>1071</ele><name>老鹰岩
        </name></wpt>
  <wpt lat="28.0894705" lon="105.2005748"><ele>1182</ele><name>右边悬崖峭壁
        </name></wpt>
  <wpt lat="28.0894442" lon="105.2014567"><ele>1205</ele><name>风景点
        </name></wpt>
  <wpt lat="28.0895109" lon="105.2023143"><ele>1221</ele><name>风景点
        </name></wpt>
  <wpt lat="28.0892896" lon="105.2040883"><ele>1312</ele><name>古佛台CP2打卡点
        </name></wpt>
  <wpt lat="28.089483" lon="105.2005927"><ele>1192</ele><name>左边悬崖峭壁
        </name></wpt>
  <wpt lat="28.0912327" lon="105.1938025"><ele>857</ele><name>右转-延公路跑
        </name></wpt>
  <wpt lat="28.0999991" lon="105.1996551"><ele>815</ele><name>泥巴路
        </name></wpt>
  <wpt lat="28.1061359" lon="105.2005569"><ele>787</ele><name>杉木
        </name></wpt>
  <wpt lat="28.114926" lon="105.2055687"><ele>597</ele><name>公路
        </name></wpt>
  <wpt lat="28.1176614" lon="105.2052704"><ele>503</ele><name>过桥
        </name></wpt>
  <wpt lat="28.1237053" lon="105.2027135"><ele>621</ele><name>直行上机耕道
        </name></wpt>
  <wpt lat="28.1241551" lon="105.2000011"><ele>670</ele><name>右转-前方CP3补给站打卡点
        </name></wpt>
  <wpt lat="28.1257646" lon="105.1991662"><ele>684</ele><name>CP3补给站打卡点
        </name></wpt>
  <wpt lat="28.135355" lon="105.1987095"><ele>778</ele><name>右转顺沥青路跑
        </name></wpt>
  <wpt lat="28.1418962" lon="105.2014726"><ele>680</ele><name>右转
        </name></wpt>
  <wpt lat="28.1452752" lon="105.2037076"><ele>689</ele><name>左转上小路
        </name></wpt>
  <wpt lat="28.1484167" lon="105.2025581"><ele>616</ele><name>林间小道
        </name></wpt>
  <wpt lat="28.148113" lon="105.1940313"><ele>425</ele><name>左前方上小路
        </name></wpt>
  <wpt lat="28.1480031" lon="105.1911237"><ele>442</ele><name>右边陡坡
        </name></wpt>
  <wpt lat="28.1476905" lon="105.187249"><ele>412</ele><name>左前方右转下河边台阶
        </name></wpt>
  <wpt lat="28.1501394" lon="105.1868521"><ele>398</ele><name>左转过河
        </name></wpt>
  <trk><name>宜宾兴文县</name>
      <trkseg>
        <trkpt lat="28.1305832" lon="105.1578792"><ele>426.18</ele><time>2026-06-25T16:24:13.000Z</time></trkpt>
        <trkpt lat="28.130637" lon="105.1578299"><ele>426.18</ele><time>2026-06-25T16:25:15.000Z</time></trkpt>
        <trkpt lat="28.1306901" lon="105.157743"><ele>425.28</ele><time>2026-06-25T16:25:33.000Z</time></trkpt>
        <trkpt lat="28.1307624" lon="105.1577786"><ele>424.33</ele><time>2026-06-25T16:25:45.000Z</time></trkpt>
        <trkpt lat="28.1308516" lon="105.1578283"><ele>423.31</ele><time>2026-06-25T16:26:11.000Z</time></trkpt>
        <trkpt lat="28.130932" lon="105.1578959"><ele>423.04</ele><time>2026-06-25T16:26:17.000Z</time></trkpt>
        <trkpt lat="28.1310197" lon="105.157954"><ele>424.05</ele><time>2026-06-25T16:26:25.000Z</time></trkpt>
        <trkpt lat="28.1311103" lon="105.1580276"><ele>424.73</ele><time>2026-06-25T16:26:35.000Z</time></trkpt>
        <trkpt lat="28.1311765" lon="105.1581121"><ele>425.21</ele><time>2026-06-25T16:26:41.000Z</time></trkpt>
        <trkpt lat="28.1312443" lon="105.158226"><ele>425.1</ele><time>2026-06-25T16:26:47.000Z</time></trkpt>
        <trkpt lat="28.1313079" lon="105.1583216"><ele>424.55</ele><time>2026-06-25T16:26:51.000Z</time></trkpt>
        <trkpt lat="28.1313553" lon="105.1584131"><ele>424.59</ele><time>2026-06-25T16:26:55.000Z</time></trkpt>
        <trkpt lat="28.1314068" lon="105.1585119"><ele>424.68</ele><time>2026-06-25T16:27:01.000Z</time></trkpt>
        <trkpt lat="28.1314571" lon="105.1586016"><ele>424.29</ele><time>2026-06-25T16:27:05.000Z</time></trkpt>
        <trkpt lat="28.1315062" lon="105.1587146"><ele>423.16</ele><time>2026-06-25T16:27:11.000Z</time></trkpt>
        <trkpt lat="28.1315486" lon="105.1588487"><ele>422.23</ele><time>2026-06-25T16:27:17.000Z</time></trkpt>
        <trkpt lat="28.1315842" lon="105.1589666"><ele>420.63</ele><time>2026-06-25T16:27:21.000Z</time></trkpt>
        <trkpt lat="28.1316143" lon="105.1590814"><ele>419.85</ele><time>2026-06-25T16:27:25.000Z</time></trkpt>
        <trkpt lat="28.1316452" lon="105.1591963"><ele>419.41</ele><time>2026-06-25T16:27:29.000Z</time></trkpt>
        <trkpt lat="28.1316622" lon="105.1593084"><ele>417.86</ele><time>2026-06-25T16:27:33.000Z</time></trkpt>
        <trkpt lat="28.1316684" lon="105.1594357"><ele>416.96</ele><time>2026-06-25T16:27:37.000Z</time></trkpt>
        <trkpt lat="28.1316554" lon="105.1595862"><ele>416.96</ele><time>2026-06-25T16:27:43.000Z</time></trkpt>
        <trkpt lat="28.1316412" lon="105.1597235"><ele>416.67</ele><time>2026-06-25T16:27:47.000Z</time></trkpt>
        <trkpt lat="28.1316341" lon="105.1598399"><ele>416.81</ele><time>2026-06-25T16:27:51.000Z</time></trkpt>
        <trkpt lat="28.1316408" lon="105.159954"><ele>416.84</ele><time>2026-06-25T16:27:55.000Z</time></trkpt>
        <trkpt lat="28.1316409" lon="105.1600729"><ele>417.5</ele><time>2026-06-25T16:27:59.000Z</time></trkpt>
        <trkpt lat="28.1316428" lon="105.1601973"><ele>417.08</ele><time>2026-06-25T16:28:03.000Z</time></trkpt>
        <trkpt lat="28.13164" lon="105.1603146"><ele>417.71</ele><time>2026-06-25T16:28:07.000Z</time></trkpt>
        <trkpt lat="28.1316643" lon="105.160431"><ele>417.76</ele><time>2026-06-25T16:28:11.000Z</time></trkpt>
        <trkpt lat="28.1317281" lon="105.1605349"><ele>417.98</ele><time>2026-06-25T16:28:15.000Z</time></trkpt>
        <trkpt lat="28.1317766" lon="105.1606365"><ele>419.74</ele><time>2026-06-25T16:28:19.000Z</time></trkpt>
        <trkpt lat="28.1318317" lon="105.1607265"><ele>421.1</ele><time>2026-06-25T16:28:23.000Z</time></trkpt>
        <trkpt lat="28.1318622" lon="105.1608258"><ele>421.81</ele><time>2026-06-25T16:28:27.000Z</time></trkpt>
        <trkpt lat="28.1318829" lon="105.1609339"><ele>422.64</ele><time>2026-06-25T16:28:31.000Z</time></trkpt>
        <trkpt lat="28.1319206" lon="105.1610428"><ele>422.58</ele><time>2026-06-25T16:28:35.000Z</time></trkpt>
        <trkpt lat="28.1320005" lon="105.1611299"><ele>422.7</ele><time>2026-06-25T16:28:39.000Z</time></trkpt>
        <trkpt lat="28.1320654" lon="105.1612192"><ele>423.27</ele><time>2026-06-25T16:28:43.000Z</time></trkpt>
        <trkpt lat="28.1321243" lon="105.1613046"><ele>423.54</ele><time>2026-06-25T16:28:47.000Z</time></trkpt>
        <trkpt lat="28.1321727" lon="105.1613946"><ele>422.73</ele><time>2026-06-25T16:28:51.000Z</time></trkpt>
        <trkpt lat="28.132196" lon="105.161495"><ele>423.09</ele><time>2026-06-25T16:28:55.000Z</time></trkpt>
        <trkpt lat="28.1322228" lon="105.161623"><ele>424.27</ele><time>2026-06-25T16:29:03.000Z</time></trkpt>
        <trkpt lat="28.1322667" lon="105.1617624"><ele>423.07</ele><time>2026-06-25T16:29:09.000Z</time></trkpt>
        <trkpt lat="28.1323627" lon="105.161882"><ele>421.91</ele><time>2026-06-25T16:29:13.000Z</time></trkpt>
        <trkpt lat="28.13247" lon="105.1619673"><ele>420.19</ele><time>2026-06-25T16:29:17.000Z</time></trkpt>
        <trkpt lat="28.1325804" lon="105.1620555"><ele>419.39</ele><time>2026-06-25T16:29:21.000Z</time></trkpt>
        <trkpt lat="28.1326384" lon="105.162158"><ele>419.55</ele><time>2026-06-25T16:29:27.000Z</time></trkpt>
        <trkpt lat="28.132651" lon="105.1622948"><ele>418.4</ele><time>2026-06-25T16:29:33.000Z</time></trkpt>
        <trkpt lat="28.1326386" lon="105.1624176"><ele>417.38</ele><time>2026-06-25T16:29:37.000Z</time></trkpt>
        <trkpt lat="28.1326029" lon="105.1625573"><ele>416.04</ele><time>2026-06-25T16:29:43.000Z</time></trkpt>
        <trkpt lat="28.1325626" lon="105.1626696"><ele>415.62</ele><time>2026-06-25T16:29:47.000Z</time></trkpt>
        <trkpt lat="28.1325004" lon="105.1627903"><ele>415.45</ele><time>2026-06-25T16:29:53.000Z</time></trkpt>
        <trkpt lat="28.1324294" lon="105.1629123"><ele>416.23</ele><time>2026-06-25T16:29:59.000Z</time></trkpt>
        <trkpt lat="28.1323627" lon="105.1630345"><ele>416.64</ele><time>2026-06-25T16:30:05.000Z</time></trkpt>
        <trkpt lat="28.1322992" lon="105.1631548"><ele>417.59</ele><time>2026-06-25T16:30:11.000Z</time></trkpt>
        <trkpt lat="28.1322377" lon="105.1632833"><ele>418.61</ele><time>2026-06-25T16:30:17.000Z</time></trkpt>
        <trkpt lat="28.1322047" lon="105.1633934"><ele>420.71</ele><time>2026-06-25T16:30:23.000Z</time></trkpt>
        <trkpt lat="28.1321717" lon="105.1635035"><ele>423.09</ele><time>2026-06-25T16:30:31.000Z</time></trkpt>
        <trkpt lat="28.1321589" lon="105.1635517"><ele>424.81</ele><time>2026-06-25T16:30:37.000Z</time></trkpt>
        <trkpt lat="28.1321589" lon="105.1635517"><ele>424.81</ele><time>2026-06-25T16:31:21.000Z</time></trkpt>
      </trkseg>
      <trkseg>
        <trkpt lat="28.1321614" lon="105.1636158"><ele>425.63</ele><time>2026-06-25T16:32:19.000Z</time></trkpt>
        <trkpt lat="28.1321614" lon="105.1636158"><ele>425.63</ele><time>2026-06-25T16:32:25.000Z</time></trkpt>
        <trkpt lat="28.1321112" lon="105.1637079"><ele>424.03</ele><time>2026-06-25T16:32:33.000Z</time></trkpt>
        <trkpt lat="28.1320104" lon="105.1637517"><ele>423.75</ele><time>2026-06-25T16:32:41.000Z</time></trkpt>
        <trkpt lat="28.1318977" lon="105.1637886"><ele>424.49</ele><time>2026-06-25T16:32:49.000Z</time></trkpt>
        <trkpt lat="28.1317785" lon="105.1638113"><ele>424.8</ele><time>2026-06-25T16:32:57.000Z</time></trkpt>
        <trkpt lat="28.1316742" lon="105.1638522"><ele>425.29</ele><time>2026-06-25T16:33:05.000Z</time></trkpt>
        <trkpt lat="28.1315873" lon="105.1638966"><ele>425.69</ele><time>2026-06-25T16:33:09.000Z</time></trkpt>
        <trkpt lat="28.1314895" lon="105.1639366"><ele>426.8</ele><time>2026-06-25T16:33:13.000Z</time></trkpt>
        <trkpt lat="28.1313877" lon="105.1639555"><ele>428.05</ele><time>2026-06-25T16:33:17.000Z</time></trkpt>
        <trkpt lat="28.131285" lon="105.1639697"><ele>429</ele><time>2026-06-25T16:33:21.000Z</time></trkpt>
        <trkpt lat="28.1311826" lon="105.1639989"><ele>429.62</ele><time>2026-06-25T16:33:25.000Z</time></trkpt>
        <trkpt lat="28.1310917" lon="105.1640475"><ele>430.15</ele><time>2026-06-25T16:33:29.000Z</time></trkpt>
        <trkpt lat="28.1310247" lon="105.1641276"><ele>430.51</ele><time>2026-06-25T16:33:35.000Z</time></trkpt>
        <trkpt lat="28.130943" lon="105.1641807"><ele>432.09</ele><time>2026-06-25T16:33:41.000Z</time></trkpt>
        <trkpt lat="28.1308611" lon="105.1642384"><ele>432.37</ele><time>2026-06-25T16:33:45.000Z</time></trkpt>
        <trkpt lat="28.130763" lon="105.164261"><ele>433.32</ele><time>2026-06-25T16:33:55.000Z</time></trkpt>
        <trkpt lat="28.1306597" lon="105.1642893"><ele>434.34</ele><time>2026-06-25T16:34:03.000Z</time></trkpt>
        <trkpt lat="28.1306015" lon="105.1643183"><ele>435.05</ele><time>2026-06-25T16:34:11.000Z</time></trkpt>
        <trkpt lat="28.1305221" lon="105.1643461"><ele>435.58</ele><time>2026-06-25T16:34:41.000Z</time></trkpt>
        <trkpt lat="28.1304358" lon="105.1643707"><ele>435.85</ele><time>2026-06-25T16:34:47.000Z</time></trkpt>
        <trkpt lat="28.1303473" lon="105.1644178"><ele>436.9</ele><time>2026-06-25T16:34:53.000Z</time></trkpt>
        <trkpt lat="28.1302435" lon="105.1644591"><ele>437.77</ele><time>2026-06-25T16:34:59.000Z</time></trkpt>
        <trkpt lat="28.1301471" lon="105.1644927"><ele>439.51</ele><time>2026-06-25T16:35:05.000Z</time></trkpt>
        <trkpt lat="28.130044" lon="105.1645303"><ele>441.73</ele><time>2026-06-25T16:35:13.000Z</time></trkpt>
        <trkpt lat="28.1299469" lon="105.1645483"><ele>444.97</ele><time>2026-06-25T16:35:19.000Z</time></trkpt>
        <trkpt lat="28.1298512" lon="105.1645248"><ele>448.01</ele><time>2026-06-25T16:35:27.000Z</time></trkpt>
        <trkpt lat="28.1297429" lon="105.164502"><ele>450.32</ele><time>2026-06-25T16:35:35.000Z</time></trkpt>
        <trkpt lat="28.129624" lon="105.1644912"><ele>452.57</ele><time>2026-06-25T16:35:43.000Z</time></trkpt>
        <trkpt lat="28.1295006" lon="105.1644836"><ele>455.12</ele><time>2026-06-25T16:35:49.000Z</time></trkpt>
        <trkpt lat="28.1293754" lon="105.1644629"><ele>457.38</ele><time>2026-06-25T16:35:55.000Z</time></trkpt>
        <trkpt lat="28.1292728" lon="105.1644349"><ele>459.75</ele><time>2026-06-25T16:36:01.000Z</time></trkpt>
        <trkpt lat="28.1291646" lon="105.1644258"><ele>461.13</ele><time>2026-06-25T16:36:35.000Z</time></trkpt>
        <trkpt lat="28.1290884" lon="105.1645131"><ele>462.58</ele><time>2026-06-25T16:36:41.000Z</time></trkpt>
        <trkpt lat="28.1290498" lon="105.1646195"><ele>464.73</ele><time>2026-06-25T16:36:47.000Z</time></trkpt>
        <trkpt lat="28.1289943" lon="105.1647139"><ele>467.21</ele><time>2026-06-25T16:36:53.000Z</time></trkpt>
        <trkpt lat="28.1289123" lon="105.1647694"><ele>469.19</ele><time>2026-06-25T16:37:03.000Z</time></trkpt>
        <trkpt lat="28.1288732" lon="105.1647896"><ele>471.3</ele><time>2026-06-25T16:37:09.000Z</time></trkpt>
        <trkpt lat="28.1288023" lon="105.164856"><ele>472.16</ele><time>2026-06-25T16:37:45.000Z</time></trkpt>
        <trkpt lat="28.1287224" lon="105.1649501"><ele>473.9</ele><time>2026-06-25T16:37:49.000Z</time></trkpt>
        <trkpt lat="28.1286556" lon="105.1650448"><ele>476.13</ele><time>2026-06-25T16:37:53.000Z</time></trkpt>
        <trkpt lat="28.1285698" lon="105.1651244"><ele>477.08</ele><time>2026-06-25T16:37:57.000Z</time></trkpt>
        <trkpt lat="28.1284716" lon="105.1651814"><ele>477.97</ele><time>2026-06-25T16:38:01.000Z</time></trkpt>
        <trkpt lat="28.1283667" lon="105.1652355"><ele>478.59</ele><time>2026-06-25T16:38:05.000Z</time></trkpt>
        <trkpt lat="28.1282812" lon="105.1653203"><ele>479.51</ele><time>2026-06-25T16:38:09.000Z</time></trkpt>
        <trkpt lat="28.128214" lon="105.1654137"><ele>480.81</ele><time>2026-06-25T16:38:13.000Z</time></trkpt>
        <trkpt lat="28.1281544" lon="105.165499"><ele>481.76</ele><time>2026-06-25T16:38:17.000Z</time></trkpt>
        <trkpt lat="28.128087" lon="105.1655737"><ele>483.1</ele><time>2026-06-25T16:38:21.000Z</time></trkpt>
        <trkpt lat="28.1280091" lon="105.1656351"><ele>483.95</ele><time>2026-06-25T16:38:25.000Z</time></trkpt>
        <trkpt lat="28.1279253" lon="105.165687"><ele>484.71</ele><time>2026-06-25T16:38:29.000Z</time></trkpt>
        <trkpt lat="28.1278475" lon="105.1657462"><ele>485.74</ele><time>2026-06-25T16:38:33.000Z</time></trkpt>
        <trkpt lat="28.127787" lon="105.1658244"><ele>487.85</ele><time>2026-06-25T16:38:37.000Z</time></trkpt>
        <trkpt lat="28.1277346" lon="105.1659224"><ele>489.07</ele><time>2026-06-25T16:38:45.000Z</time></trkpt>
        <trkpt lat="28.1276602" lon="105.165979"><ele>490.28</ele><time>2026-06-25T16:38:53.000Z</time></trkpt>
        <trkpt lat="28.1275586" lon="105.1659871"><ele>492.51</ele><time>2026-06-25T16:39:01.000Z</time></trkpt>
        <trkpt lat="28.1274457" lon="105.165964"><ele>493.42</ele><time>2026-06-25T16:39:07.000Z</time></trkpt>
        <trkpt lat="28.1273328" lon="105.1659493"><ele>493.98</ele><time>2026-06-25T16:39:13.000Z</time></trkpt>
        <trkpt lat="28.1272162" lon="105.1659516"><ele>495.63</ele><time>2026-06-25T16:39:19.000Z</time></trkpt>
        <trkpt lat="28.1270856" lon="105.1659578"><ele>496.86</ele><time>2026-06-25T16:39:25.000Z</time></trkpt>
        <trkpt lat="28.1269625" lon="105.1659445"><ele>497.7</ele><time>2026-06-25T16:39:31.000Z</time></trkpt>
        <trkpt lat="28.1268501" lon="105.1659304"><ele>500.19</ele><time>2026-06-25T16:39:37.000Z</time></trkpt>
        <trkpt lat="28.1267435" lon="105.1659296"><ele>502.76</ele><time>2026-06-25T16:39:43.000Z</time></trkpt>
        <trkpt lat="28.1266321" lon="105.1659468"><ele>504.9</ele><time>2026-06-25T16:39:49.000Z</time></trkpt>
        <trkpt lat="28.126535" lon="105.1660091"><ele>507.23</ele><time>2026-06-25T16:39:55.000Z</time></trkpt>
        <trkpt lat="28.1264541" lon="105.1661066"><ele>509.39</ele><time>2026-06-25T16:40:01.000Z</time></trkpt>
        <trkpt lat="28.1263637" lon="105.1661851"><ele>510.93</ele><time>2026-06-25T16:40:07.000Z</time></trkpt>
        <trkpt lat="28.126259" lon="105.1662233"><ele>512.54</ele><time>2026-06-25T16:40:13.000Z</time></trkpt>
        <trkpt lat="28.1261487" lon="105.1662608"><ele>513.43</ele><time>2026-06-25T16:40:19.000Z</time></trkpt>
        <trkpt lat="28.1260259" lon="105.1662868"><ele>514.57</ele><time>2026-06-25T16:40:27.000Z</time></trkpt>
        <trkpt lat="28.1258932" lon="105.1662759"><ele>514.67</ele><time>2026-06-25T16:40:33.000Z</time></trkpt>
        <trkpt lat="28.12576" lon="105.166271"><ele>515.44</ele><time>2026-06-25T16:40:39.000Z</time></trkpt>
        <trkpt lat="28.1256292" lon="105.1662883"><ele>516.73</ele><time>2026-06-25T16:40:45.000Z</time></trkpt>
        <trkpt lat="28.1254974" lon="105.1663073"><ele>518.14</ele><time>2026-06-25T16:40:51.000Z</time></trkpt>
        <trkpt lat="28.125396" lon="105.1663209"><ele>519.48</ele><time>2026-06-25T16:40:55.000Z</time></trkpt>
        <trkpt lat="28.1253044" lon="105.1663275"><ele>520.08</ele><time>2026-06-25T16:40:59.000Z</time></trkpt>
        <trkpt lat="28.1252585" lon="105.1663204"><ele>520.75</ele><time>2026-06-25T16:41:05.000Z</time></trkpt>
        <trkpt lat="28.1251899" lon="105.1663512"><ele>521.19</ele><time>2026-06-25T16:41:29.000Z</time></trkpt>
        <trkpt lat="28.1250866" lon="105.1663642"><ele>521.83</ele><time>2026-06-25T16:41:35.000Z</time></trkpt>
        <trkpt lat="28.1249696" lon="105.1663706"><ele>522.82</ele><time>2026-06-25T16:41:41.000Z</time></trkpt>
        <trkpt lat="28.1249026" lon="105.1664735"><ele>523.23</ele><time>2026-06-25T16:41:47.000Z</time></trkpt>
        <trkpt lat="28.1248687" lon="105.1665964"><ele>523.28</ele><time>2026-06-25T16:41:51.000Z</time></trkpt>
        <trkpt lat="28.1248289" lon="105.1667125"><ele>523.81</ele><time>2026-06-25T16:41:55.000Z</time></trkpt>
        <trkpt lat="28.1247725" lon="105.1668001"><ele>524.9</ele><time>2026-06-25T16:41:59.000Z</time></trkpt>
        <trkpt lat="28.1247147" lon="105.1667946"><ele>525.55</ele><time>2026-06-25T16:42:05.000Z</time></trkpt>
        <trkpt lat="28.1246216" lon="105.1668438"><ele>524.65</ele><time>2026-06-25T16:42:13.000Z</time></trkpt>
        <trkpt lat="28.1245318" lon="105.1669029"><ele>524.77</ele><time>2026-06-25T16:42:17.000Z</time></trkpt>
        <trkpt lat="28.1244726" lon="105.1669764"><ele>525.51</ele><time>2026-06-25T16:42:27.000Z</time></trkpt>
        <trkpt lat="28.1243847" lon="105.1669927"><ele>526.92</ele><time>2026-06-25T16:43:21.000Z</time></trkpt>
        <trkpt lat="28.1242848" lon="105.1669781"><ele>528.58</ele><time>2026-06-25T16:43:29.000Z</time></trkpt>
        <trkpt lat="28.124236" lon="105.1669563"><ele>530.58</ele><time>2026-06-25T16:43:35.000Z</time></trkpt>
        <trkpt lat="28.1241461" lon="105.1669475"><ele>532.14</ele><time>2026-06-25T16:44:03.000Z</time></trkpt>
        <trkpt lat="28.1240476" lon="105.1669543"><ele>534.8</ele><time>2026-06-25T16:44:09.000Z</time></trkpt>
        <trkpt lat="28.1239667" lon="105.1668884"><ele>536.07</ele><time>2026-06-25T16:44:17.000Z</time></trkpt>
        <trkpt lat="28.1238847" lon="105.1668341"><ele>536.9</ele><time>2026-06-25T16:44:25.000Z</time></trkpt>
        <trkpt lat="28.1237822" lon="105.1668157"><ele>538.29</ele><time>2026-06-25T16:44:33.000Z</time></trkpt>
        <trkpt lat="28.123679" lon="105.1668275"><ele>538.99</ele><time>2026-06-25T16:44:41.000Z</time></trkpt>
        <trkpt lat="28.1235819" lon="105.1668305"><ele>540.85</ele><time>2026-06-25T16:44:49.000Z</time></trkpt>
        <trkpt lat="28.1234725" lon="105.1668747"><ele>543.17</ele><time>2026-06-25T16:44:57.000Z</time></trkpt>
        <trkpt lat="28.1233491" lon="105.1669163"><ele>545.33</ele><time>2026-06-25T16:45:03.000Z</time></trkpt>
        <trkpt lat="28.1232445" lon="105.1669472"><ele>547.26</ele><time>2026-06-25T16:45:11.000Z</time></trkpt>
        <trkpt lat="28.1231589" lon="105.1670005"><ele>549.22</ele><time>2026-06-25T16:45:19.000Z</time></trkpt>
        <trkpt lat="28.1230714" lon="105.1670426"><ele>551.31</ele><time>2026-06-25T16:45:27.000Z</time></trkpt>
        <trkpt lat="28.122983" lon="105.1670882"><ele>553.41</ele><time>2026-06-25T16:45:35.000Z</time></trkpt>
        <trkpt lat="28.122931" lon="105.167119"><ele>555.49</ele><time>2026-06-25T16:45:41.000Z</time></trkpt>
        <trkpt lat="28.122931" lon="105.167119"><ele>555.49</ele><time>2026-06-25T16:45:44.000Z</time></trkpt>
      </trkseg>
      <trkseg>
        <trkpt lat="28.1228984" lon="105.1670954"><ele>558.71</ele><time>2026-06-25T16:52:32.000Z</time></trkpt>
        <trkpt lat="28.1228984" lon="105.1670954"><ele>558.71</ele><time>2026-06-25T16:52:45.000Z</time></trkpt>
        <trkpt lat="28.1228072" lon="105.1670948"><ele>559.47</ele><time>2026-06-25T16:53:09.000Z</time></trkpt>
        <trkpt lat="28.12272" lon="105.1670531"><ele>560.66</ele><time>2026-06-25T16:53:23.000Z</time></trkpt>
        <trkpt lat="28.1226288" lon="105.1670579"><ele>562.43</ele><time>2026-06-25T16:53:45.000Z</time></trkpt>
        <trkpt lat="28.1225292" lon="105.1670452"><ele>564.56</ele><time>2026-06-25T16:54:01.000Z</time></trkpt>
        <trkpt lat="28.1224349" lon="105.1670509"><ele>567.64</ele><time>2026-06-25T16:54:17.000Z</time></trkpt>
        <trkpt lat="28.1224209" lon="105.1671459"><ele>570.07</ele><time>2026-06-25T16:54:33.000Z</time></trkpt>
        <trkpt lat="28.1224112" lon="105.167262"><ele>573.87</ele><time>2026-06-25T16:54:43.000Z</time></trkpt>
        <trkpt lat="28.1223845" lon="105.1673884"><ele>576.25</ele><time>2026-06-25T16:54:55.000Z</time></trkpt>
        <trkpt lat="28.1223358" lon="105.167492"><ele>579.15</ele><time>2026-06-25T16:55:03.000Z</time></trkpt>
        <trkpt lat="28.1222918" lon="105.1675234"><ele>581.8</ele><time>2026-06-25T16:55:09.000Z</time></trkpt>
        <trkpt lat="28.1222411" lon="105.1676036"><ele>583.05</ele><time>2026-06-25T16:56:49.000Z</time></trkpt>
        <trkpt lat="28.1221976" lon="105.16771"><ele>584.47</ele><time>2026-06-25T16:56:59.000Z</time></trkpt>
        <trkpt lat="28.1221342" lon="105.1677912"><ele>585.65</ele><time>2026-06-25T16:57:07.000Z</time></trkpt>
        <trkpt lat="28.1220865" lon="105.1678911"><ele>586.87</ele><time>2026-06-25T16:57:15.000Z</time></trkpt>
        <trkpt lat="28.1220418" lon="105.1680052"><ele>588.1</ele><time>2026-06-25T16:57:21.000Z</time></trkpt>
        <trkpt lat="28.1219873" lon="105.168123"><ele>589.19</ele><time>2026-06-25T16:57:27.000Z</time></trkpt>
        <trkpt lat="28.1219457" lon="105.1682241"><ele>589.77</ele><time>2026-06-25T16:57:33.000Z</time></trkpt>
        <trkpt lat="28.1219284" lon="105.1683262"><ele>590.38</ele><time>2026-06-25T16:57:43.000Z</time></trkpt>
        <trkpt lat="28.121866" lon="105.1684321"><ele>591.75</ele><time>2026-06-25T16:57:51.000Z</time></trkpt>
        <trkpt lat="28.1218266" lon="105.1685332"><ele>593.68</ele><time>2026-06-25T16:57:55.000Z</time></trkpt>
        <trkpt lat="28.1217782" lon="105.1686253"><ele>595.49</ele><time>2026-06-25T16:58:01.000Z</time></trkpt>
        <trkpt lat="28.1217692" lon="105.1687503"><ele>596.72</ele><time>2026-06-25T16:58:07.000Z</time></trkpt>
        <trkpt lat="28.1217652" lon="105.1688626"><ele>597.96</ele><time>2026-06-25T16:58:15.000Z</time></trkpt>
        <trkpt lat="28.1217367" lon="105.168966"><ele>598.49</ele><time>2026-06-25T16:58:23.000Z</time></trkpt>
        <trkpt lat="28.1216837" lon="105.1690668"><ele>599.81</ele><time>2026-06-25T16:58:33.000Z</time></trkpt>
        <trkpt lat="28.1216119" lon="105.1691626"><ele>601.59</ele><time>2026-06-25T16:58:43.000Z</time></trkpt>
        <trkpt lat="28.1215688" lon="105.1692607"><ele>602.22</ele><time>2026-06-25T16:58:51.000Z</time></trkpt>
        <trkpt lat="28.1215686" lon="105.1692928"><ele>602.65</ele><time>2026-06-25T16:58:53.000Z</time></trkpt>
        <trkpt lat="28.1215802" lon="105.1693812"><ele>603.01</ele><time>2026-06-25T16:59:07.000Z</time></trkpt>
        <trkpt lat="28.1216092" lon="105.1694701"><ele>604.35</ele><time>2026-06-25T16:59:17.000Z</time></trkpt>
        <trkpt lat="28.1216251" lon="105.1695789"><ele>605.86</ele><time>2026-06-25T16:59:29.000Z</time></trkpt>
        <trkpt lat="28.1215906" lon="105.1696822"><ele>607.47</ele><time>2026-06-25T17:00:15.000Z</time></trkpt>
        <trkpt lat="28.1215313" lon="105.1697781"><ele>611.47</ele><time>2026-06-25T17:00:33.000Z</time></trkpt>
        <trkpt lat="28.1214119" lon="105.1697328"><ele>616.52</ele><time>2026-06-25T17:01:37.000Z</time></trkpt>
        <trkpt lat="28.1213199" lon="105.1697705"><ele>620.15</ele><time>2026-06-25T17:01:43.000Z</time></trkpt>
        <trkpt lat="28.1212702" lon="105.1698769"><ele>623.34</ele><time>2026-06-25T17:01:49.000Z</time></trkpt>
        <trkpt lat="28.1212015" lon="105.1699964"><ele>624.74</ele><time>2026-06-25T17:01:55.000Z</time></trkpt>
        <trkpt lat="28.1211243" lon="105.1701178"><ele>625.82</ele><time>2026-06-25T17:02:01.000Z</time></trkpt>
        <trkpt lat="28.121046" lon="105.1702295"><ele>627.57</ele><time>2026-06-25T17:02:07.000Z</time></trkpt>
        <trkpt lat="28.1209606" lon="105.1703255"><ele>629.58</ele><time>2026-06-25T17:02:13.000Z</time></trkpt>
        <trkpt lat="28.1208648" lon="105.1704113"><ele>631.49</ele><time>2026-06-25T17:02:19.000Z</time></trkpt>
        <trkpt lat="28.1207686" lon="105.1704992"><ele>632.6</ele><time>2026-06-25T17:02:25.000Z</time></trkpt>
        <trkpt lat="28.1206738" lon="105.1705709"><ele>634.2</ele><time>2026-06-25T17:02:31.000Z</time></trkpt>
        <trkpt lat="28.1205754" lon="105.170631"><ele>636.69</ele><time>2026-06-25T17:02:37.000Z</time></trkpt>
        <trkpt lat="28.1204822" lon="105.1706984"><ele>638.87</ele><time>2026-06-25T17:02:43.000Z</time></trkpt>
        <trkpt lat="28.120401" lon="105.170773"><ele>640.25</ele><time>2026-06-25T17:02:49.000Z</time></trkpt>
        <trkpt lat="28.1203379" lon="105.1708632"><ele>641.05</ele><time>2026-06-25T17:02:55.000Z</time></trkpt>
        <trkpt lat="28.1202617" lon="105.1709289"><ele>641.74</ele><time>2026-06-25T17:03:01.000Z</time></trkpt>
        <trkpt lat="28.1201658" lon="105.1709354"><ele>643.07</ele><time>2026-06-25T17:03:07.000Z</time></trkpt>
        <trkpt lat="28.120064" lon="105.170949"><ele>643.88</ele><time>2026-06-25T17:03:13.000Z</time></trkpt>
        <trkpt lat="28.1199624" lon="105.1709664"><ele>645.11</ele><time>2026-06-25T17:03:19.000Z</time></trkpt>
        <trkpt lat="28.1198567" lon="105.1709932"><ele>647.03</ele><time>2026-06-25T17:03:25.000Z</time></trkpt>
        <trkpt lat="28.1197627" lon="105.1710422"><ele>649.44</ele><time>2026-06-25T17:03:31.000Z</time></trkpt>
        <trkpt lat="28.1197074" lon="105.1711349"><ele>650.86</ele><time>2026-06-25T17:03:37.000Z</time></trkpt>
        <trkpt lat="28.1196928" lon="105.1712411"><ele>651.94</ele><time>2026-06-25T17:03:45.000Z</time></trkpt>
        <trkpt lat="28.1196822" lon="105.1713525"><ele>652.45</ele><time>2026-06-25T17:03:53.000Z</time></trkpt>
        <trkpt lat="28.1196502" lon="105.1714733"><ele>652.68</ele><time>2026-06-25T17:04:01.000Z</time></trkpt>
        <trkpt lat="28.1196062" lon="105.1715909"><ele>654.05</ele><time>2026-06-25T17:04:09.000Z</time></trkpt>
        <trkpt lat="28.1195469" lon="105.1716792"><ele>656.08</ele><time>2026-06-25T17:04:19.000Z</time></trkpt>
        <trkpt lat="28.1194892" lon="105.171767"><ele>657.99</ele><time>2026-06-25T17:04:27.000Z</time></trkpt>
        <trkpt lat="28.119407" lon="105.171837"><ele>659.52</ele><time>2026-06-25T17:04:35.000Z</time></trkpt>
        <trkpt lat="28.1193424" lon="105.1717771"><ele>660.42</ele><time>2026-06-25T17:04:43.000Z</time></trkpt>
        <trkpt lat="28.1193242" lon="105.1716476"><ele>661.23</ele><time>2026-06-25T17:04:51.000Z</time></trkpt>
        <trkpt lat="28.11932" lon="105.1715099"><ele>662.12</ele><time>2026-06-25T17:04:59.000Z</time></trkpt>
        <trkpt lat="28.1193158" lon="105.1714329"><ele>664.13</ele><time>2026-06-25T17:05:07.000Z</time></trkpt>
        <trkpt lat="28.119269" lon="105.1713474"><ele>665.93</ele><time>2026-06-25T17:05:49.000Z</time></trkpt>
        <trkpt lat="28.1191799" lon="105.1713339"><ele>667.83</ele><time>2026-06-25T17:05:59.000Z</time></trkpt>
        <trkpt lat="28.1190984" lon="105.1714021"><ele>669.55</ele><time>2026-06-25T17:06:09.000Z</time></trkpt>
        <trkpt lat="28.1190419" lon="105.1715059"><ele>672.43</ele><time>2026-06-25T17:06:17.000Z</time></trkpt>
        <trkpt lat="28.1190117" lon="105.1716327"><ele>676.08</ele><time>2026-06-25T17:06:27.000Z</time></trkpt>
        <trkpt lat="28.1189859" lon="105.1717492"><ele>679.13</ele><time>2026-06-25T17:06:39.000Z</time></trkpt>
        <trkpt lat="28.1189228" lon="105.1717391"><ele>682.46</ele><time>2026-06-25T17:06:51.000Z</time></trkpt>
        <trkpt lat="28.1188541" lon="105.1717901"><ele>684.4</ele><time>2026-06-25T17:07:05.000Z</time></trkpt>
        <trkpt lat="28.1187722" lon="105.1718409"><ele>686.37</ele><time>2026-06-25T17:07:21.000Z</time></trkpt>
        <trkpt lat="28.118688" lon="105.1719029"><ele>687.77</ele><time>2026-06-25T17:07:31.000Z</time></trkpt>
        <trkpt lat="28.118594" lon="105.1719494"><ele>690.61</ele><time>2026-06-25T17:07:43.000Z</time></trkpt>
        <trkpt lat="28.1184998" lon="105.1720033"><ele>693.98</ele><time>2026-06-25T17:07:55.000Z</time></trkpt>
        <trkpt lat="28.1184034" lon="105.1720176"><ele>697.91</ele><time>2026-06-25T17:08:09.000Z</time></trkpt>
        <trkpt lat="28.1183114" lon="105.1720324"><ele>701.69</ele><time>2026-06-25T17:08:25.000Z</time></trkpt>
        <trkpt lat="28.1182187" lon="105.1720423"><ele>705.81</ele><time>2026-06-25T17:08:43.000Z</time></trkpt>
        <trkpt lat="28.1181385" lon="105.1720928"><ele>709.88</ele><time>2026-06-25T17:08:59.000Z</time></trkpt>
        <trkpt lat="28.1180622" lon="105.1721593"><ele>714.17</ele><time>2026-06-25T17:09:17.000Z</time></trkpt>
        <trkpt lat="28.1179897" lon="105.1722388"><ele>717.65</ele><time>2026-06-25T17:09:29.000Z</time></trkpt>
        <trkpt lat="28.1179104" lon="105.1723133"><ele>721.4</ele><time>2026-06-25T17:09:41.000Z</time></trkpt>
        <trkpt lat="28.1178456" lon="105.1723904"><ele>723.09</ele><time>2026-06-25T17:09:51.000Z</time></trkpt>
        <trkpt lat="28.1177696" lon="105.1724474"><ele>723.93</ele><time>2026-06-25T17:10:03.000Z</time></trkpt>
        <trkpt lat="28.1176867" lon="105.172486"><ele>728.26</ele><time>2026-06-25T17:10:15.000Z</time></trkpt>
        <trkpt lat="28.1176174" lon="105.17243"><ele>732.01</ele><time>2026-06-25T17:10:29.000Z</time></trkpt>
        <trkpt lat="28.1175289" lon="105.1724348"><ele>736.24</ele><time>2026-06-25T17:11:13.000Z</time></trkpt>
        <trkpt lat="28.1174501" lon="105.1725061"><ele>739.54</ele><time>2026-06-25T17:11:21.000Z</time></trkpt>
        <trkpt lat="28.1173561" lon="105.1725566"><ele>742.76</ele><time>2026-06-25T17:11:29.000Z</time></trkpt>
        <trkpt lat="28.1172511" lon="105.172587"><ele>744.87</ele><time>2026-06-25T17:11:37.000Z</time></trkpt>
        <trkpt lat="28.1171409" lon="105.1725726"><ele>747.81</ele><time>2026-06-25T17:11:45.000Z</time></trkpt>
        <trkpt lat="28.1170372" lon="105.1725442"><ele>750.15</ele><time>2026-06-25T17:11:53.000Z</time></trkpt>
        <trkpt lat="28.1169429" lon="105.1725634"><ele>750.97</ele><time>2026-06-25T17:12:01.000Z</time></trkpt>
        <trkpt lat="28.1168723" lon="105.1725969"><ele>752.48</ele><time>2026-06-25T17:12:09.000Z</time></trkpt>
        <trkpt lat="28.1167956" lon="105.1726529"><ele>753.02</ele><time>2026-06-25T17:12:17.000Z</time></trkpt>
        <trkpt lat="28.1167181" lon="105.1727225"><ele>754.17</ele><time>2026-06-25T17:12:25.000Z</time></trkpt>
        <trkpt lat="28.1166449" lon="105.1727982"><ele>755.64</ele><time>2026-06-25T17:12:33.000Z</time></trkpt>
        <trkpt lat="28.1165715" lon="105.1728728"><ele>756.7</ele><time>2026-06-25T17:12:41.000Z</time></trkpt>
        <trkpt lat="28.1164819" lon="105.1729391"><ele>757.89</ele><time>2026-06-25T17:12:49.000Z</time></trkpt>
        <trkpt lat="28.1163853" lon="105.1729849"><ele>759.36</ele><time>2026-06-25T17:12:57.000Z</time></trkpt>
        <trkpt lat="28.1162835" lon="105.1729616"><ele>761.09</ele><time>2026-06-25T17:13:05.000Z</time></trkpt>
        <trkpt lat="28.1161926" lon="105.1729163"><ele>763.24</ele><time>2026-06-25T17:13:09.000Z</time></trkpt>
        <trkpt lat="28.1161044" lon="105.1728648"><ele>765.62</ele><time>2026-06-25T17:13:13.000Z</time></trkpt>
        <trkpt lat="28.1160003" lon="105.1728058"><ele>768.09</ele><time>2026-06-25T17:13:19.000Z</time></trkpt>
        <trkpt lat="28.1159102" lon="105.1727533"><ele>772.2</ele><time>2026-06-25T17:13:25.000Z</time></trkpt>
        <trkpt lat="28.1158066" lon="105.1727464"><ele>772.43</ele><time>2026-06-25T17:13:33.000Z</time></trkpt>
        <trkpt lat="28.1157216" lon="105.1728166"><ele>772.17</ele><time>2026-06-25T17:13:43.000Z</time></trkpt>
        <trkpt lat="28.1156569" lon="105.1729037"><ele>774.12</ele><time>2026-06-25T17:13:49.000Z</time></trkpt>
        <trkpt lat="28.1155618" lon="105.1729422"><ele>777.71</ele><time>2026-06-25T17:13:55.000Z</time></trkpt>
        <trkpt lat="28.1154426" lon="105.1729303"><ele>780.38</ele><time>2026-06-25T17:14:01.000Z</time></trkpt>
        <trkpt lat="28.115334" lon="105.1729701"><ele>780.88</ele><time>2026-06-25T17:14:07.000Z</time></trkpt>
        <trkpt lat="28.1152557" lon="105.1730655"><ele>780.75</ele><time>2026-06-25T17:14:13.000Z</time></trkpt>
        <trkpt lat="28.115216" lon="105.1731948"><ele>780.27</ele><time>2026-06-25T17:14:19.000Z</time></trkpt>
        <trkpt lat="28.1151784" lon="105.1733321"><ele>779.3</ele><time>2026-06-25T17:14:25.000Z</time></trkpt>
        <trkpt lat="28.1151303" lon="105.1734317"><ele>778.44</ele><time>2026-06-25T17:14:29.000Z</time></trkpt>
        <trkpt lat="28.1150507" lon="105.1735303"><ele>778.63</ele><time>2026-06-25T17:14:35.000Z</time></trkpt>
        <trkpt lat="28.114964" lon="105.1736382"><ele>778.95</ele><time>2026-06-25T17:14:41.000Z</time></trkpt>
        <trkpt lat="28.1148999" lon="105.1737583"><ele>779.51</ele><time>2026-06-25T17:14:47.000Z</time></trkpt>
        <trkpt lat="28.1148254" lon="105.1738725"><ele>779.7</ele><time>2026-06-25T17:14:53.000Z</time></trkpt>
        <trkpt lat="28.1147157" lon="105.1739457"><ele>780.5</ele><time>2026-06-25T17:14:59.000Z</time></trkpt>
        <trkpt lat="28.1145849" lon="105.1739834"><ele>781.27</ele><time>2026-06-25T17:15:05.000Z</time></trkpt>
        <trkpt lat="28.1144528" lon="105.1739837"><ele>782.32</ele><time>2026-06-25T17:15:11.000Z</time></trkpt>
        <trkpt lat="28.1144096" lon="105.17397"><ele>782.78</ele><time>2026-06-25T17:15:13.000Z</time></trkpt>
        <trkpt lat="28.1143408" lon="105.173934"><ele>783.32</ele><time>2026-06-25T17:15:19.000Z</time></trkpt>
        <trkpt lat="28.1142424" lon="105.1738667"><ele>783.35</ele><time>2026-06-25T17:15:25.000Z</time></trkpt>
        <trkpt lat="28.1141482" lon="105.1738346"><ele>783.16</ele><time>2026-06-25T17:15:33.000Z</time></trkpt>
        <trkpt lat="28.1140757" lon="105.1738954"><ele>781.93</ele><time>2026-06-25T17:15:43.000Z</time></trkpt>
        <trkpt lat="28.1140294" lon="105.1739993"><ele>780.51</ele><time>2026-06-25T17:15:51.000Z</time></trkpt>
        <trkpt lat="28.1140061" lon="105.1741201"><ele>779.42</ele><time>2026-06-25T17:15:59.000Z</time></trkpt>
        <trkpt lat="28.1139549" lon="105.1742183"><ele>778.62</ele><time>2026-06-25T17:16:05.000Z</time></trkpt>
        <trkpt lat="28.1138906" lon="105.1742981"><ele>777.68</ele><time>2026-06-25T17:16:09.000Z</time></trkpt>
        <trkpt lat="28.1138196" lon="105.1743717"><ele>777.06</ele><time>2026-06-25T17:16:13.000Z</time></trkpt>
        <trkpt lat="28.1137428" lon="105.1744404"><ele>777.07</ele><time>2026-06-25T17:16:17.000Z</time></trkpt>
        <trkpt lat="28.1136625" lon="105.1745065"><ele>776.84</ele><time>2026-06-25T17:16:21.000Z</time></trkpt>
        <trkpt lat="28.1135815" lon="105.1745689"><ele>776.84</ele><time>2026-06-25T17:16:25.000Z</time></trkpt>
        <trkpt lat="28.1134971" lon="105.1746267"><ele>776.83</ele><time>2026-06-25T17:16:29.000Z</time></trkpt>
        <trkpt lat="28.1134043" lon="105.1746652"><ele>776.41</ele><time>2026-06-25T17:16:33.000Z</time></trkpt>
        <trkpt lat="28.1133064" lon="105.17468"><ele>777.15</ele><time>2026-06-25T17:16:37.000Z</time></trkpt>
        <trkpt lat="28.1132109" lon="105.1747068"><ele>778.16</ele><time>2026-06-25T17:16:41.000Z</time></trkpt>
        <trkpt lat="28.1131342" lon="105.1747711"><ele>779.21</ele><time>2026-06-25T17:16:45.000Z</time></trkpt>
        <trkpt lat="28.1130495" lon="105.1748287"><ele>780.34</ele><time>2026-06-25T17:16:49.000Z</time></trkpt>
        <trkpt lat="28.1129505" lon="105.1748421"><ele>781.33</ele><time>2026-06-25T17:16:53.000Z</time></trkpt>
        <trkpt lat="28.1128529" lon="105.1748291"><ele>781.57</ele><time>2026-06-25T17:16:57.000Z</time></trkpt>
        <trkpt lat="28.1127562" lon="105.1747997"><ele>781.79</ele><time>2026-06-25T17:17:01.000Z</time></trkpt>
        <trkpt lat="28.1126604" lon="105.1747742"><ele>782.07</ele><time>2026-06-25T17:17:05.000Z</time></trkpt>
        <trkpt lat="28.1125673" lon="105.174762"><ele>782.52</ele><time>2026-06-25T17:17:09.000Z</time></trkpt>
        <trkpt lat="28.1124747" lon="105.1747819"><ele>783.19</ele><time>2026-06-25T17:17:13.000Z</time></trkpt>
        <trkpt lat="28.1123828" lon="105.1748027"><ele>784.89</ele><time>2026-06-25T17:17:17.000Z</time></trkpt>
        <trkpt lat="28.112262" lon="105.1748209"><ele>786.42</ele><time>2026-06-25T17:17:23.000Z</time></trkpt>
        <trkpt lat="28.1121573" lon="105.1748512"><ele>788.5</ele><time>2026-06-25T17:17:29.000Z</time></trkpt>
        <trkpt lat="28.1121241" lon="105.1749494"><ele>790.31</ele><time>2026-06-25T17:17:35.000Z</time></trkpt>
        <trkpt lat="28.1121266" lon="105.1750603"><ele>791.69</ele><time>2026-06-25T17:17:45.000Z</time></trkpt>
        <trkpt lat="28.1121325" lon="105.1751747"><ele>792.27</ele><time>2026-06-25T17:17:55.000Z</time></trkpt>
        <trkpt lat="28.1121212" lon="105.175199"><ele>791.8</ele><time>2026-06-25T17:18:03.000Z</time></trkpt>
        <trkpt lat="28.1121042" lon="105.1752782"><ele>791.41</ele><time>2026-06-25T17:19:03.000Z</time></trkpt>
        <trkpt lat="28.1120641" lon="105.1753749"><ele>791.84</ele><time>2026-06-25T17:19:15.000Z</time></trkpt>
        <trkpt lat="28.1120097" lon="105.1754692"><ele>793.57</ele><time>2026-06-25T17:19:23.000Z</time></trkpt>
        <trkpt lat="28.1119468" lon="105.1755529"><ele>795.37</ele><time>2026-06-25T17:19:31.000Z</time></trkpt>
        <trkpt lat="28.1118787" lon="105.1756334"><ele>798.7</ele><time>2026-06-25T17:19:41.000Z</time></trkpt>
        <trkpt lat="28.1118091" lon="105.1757066"><ele>803.68</ele><time>2026-06-25T17:19:55.000Z</time></trkpt>
        <trkpt lat="28.1117242" lon="105.1757628"><ele>807.71</ele><time>2026-06-25T17:20:05.000Z</time></trkpt>
        <trkpt lat="28.1116374" lon="105.1758161"><ele>809.21</ele><time>2026-06-25T17:20:17.000Z</time></trkpt>
        <trkpt lat="28.1115648" lon="105.1758875"><ele>810.32</ele><time>2026-06-25T17:20:31.000Z</time></trkpt>
        <trkpt lat="28.1114917" lon="105.1759651"><ele>812.74</ele><time>2026-06-25T17:20:45.000Z</time></trkpt>
        <trkpt lat="28.1114187" lon="105.1760305"><ele>815.48</ele><time>2026-06-25T17:20:57.000Z</time></trkpt>
        <trkpt lat="28.1113291" lon="105.1760781"><ele>818.86</ele><time>2026-06-25T17:21:09.000Z</time></trkpt>
        <trkpt lat="28.1112341" lon="105.1761143"><ele>822.95</ele><time>2026-06-25T17:21:21.000Z</time></trkpt>
        <trkpt lat="28.1111435" lon="105.176164"><ele>824.91</ele><time>2026-06-25T17:21:35.000Z</time></trkpt>
        <trkpt lat="28.11105" lon="105.1761953"><ele>827.96</ele><time>2026-06-25T17:21:49.000Z</time></trkpt>
        <trkpt lat="28.1109575" lon="105.1761552"><ele>831.23</ele><time>2026-06-25T17:22:01.000Z</time></trkpt>
        <trkpt lat="28.1108566" lon="105.1761414"><ele>837.1</ele><time>2026-06-25T17:22:19.000Z</time></trkpt>
        <trkpt lat="28.1107611" lon="105.1761064"><ele>842.66</ele><time>2026-06-25T17:22:37.000Z</time></trkpt>
        <trkpt lat="28.1106692" lon="105.1760717"><ele>846.57</ele><time>2026-06-25T17:22:51.000Z</time></trkpt>
        <trkpt lat="28.110578" lon="105.1760534"><ele>850.12</ele><time>2026-06-25T17:23:11.000Z</time></trkpt>
        <trkpt lat="28.1104847" lon="105.1760408"><ele>851.83</ele><time>2026-06-25T17:23:33.000Z</time></trkpt>
        <trkpt lat="28.1103936" lon="105.1760809"><ele>854.97</ele><time>2026-06-25T17:25:43.000Z</time></trkpt>
        <trkpt lat="28.1103452" lon="105.1761809"><ele>861.7</ele><time>2026-06-25T17:26:01.000Z</time></trkpt>
        <trkpt lat="28.1102865" lon="105.1762622"><ele>865.6</ele><time>2026-06-25T17:26:19.000Z</time></trkpt>
        <trkpt lat="28.110216" lon="105.1763306"><ele>871.67</ele><time>2026-06-25T17:26:35.000Z</time></trkpt>
        <trkpt lat="28.1101412" lon="105.1763912"><ele>875.33</ele><time>2026-06-25T17:26:51.000Z</time></trkpt>
        <trkpt lat="28.1100513" lon="105.1764445"><ele>877.8</ele><time>2026-06-25T17:28:35.000Z</time></trkpt>
        <trkpt lat="28.109961" lon="105.1764515"><ele>882.07</ele><time>2026-06-25T17:28:47.000Z</time></trkpt>
        <trkpt lat="28.1098636" lon="105.1764776"><ele>885.72</ele><time>2026-06-25T17:28:57.000Z</time></trkpt>
        <trkpt lat="28.1097858" lon="105.176573"><ele>888.01</ele><time>2026-06-25T17:29:05.000Z</time></trkpt>
        <trkpt lat="28.1097525" lon="105.176625"><ele>889.4</ele><time>2026-06-25T17:29:09.000Z</time></trkpt>
        <trkpt lat="28.1096974" lon="105.176703"><ele>889.64</ele><time>2026-06-25T17:29:21.000Z</time></trkpt>
        <trkpt lat="28.1096155" lon="105.176768"><ele>889.45</ele><time>2026-06-25T17:29:27.000Z</time></trkpt>
        <trkpt lat="28.1095093" lon="105.1767375"><ele>889.73</ele><time>2026-06-25T17:29:33.000Z</time></trkpt>
        <trkpt lat="28.1094102" lon="105.1766515"><ele>889.62</ele><time>2026-06-25T17:29:39.000Z</time></trkpt>
        <trkpt lat="28.1093001" lon="105.1765927"><ele>889.76</ele><time>2026-06-25T17:29:45.000Z</time></trkpt>
        <trkpt lat="28.1091734" lon="105.176551"><ele>888.93</ele><time>2026-06-25T17:29:51.000Z</time></trkpt>
        <trkpt lat="28.1090448" lon="105.1765256"><ele>888.82</ele><time>2026-06-25T17:29:57.000Z</time></trkpt>
        <trkpt lat="28.1089176" lon="105.1765251"><ele>889.13</ele><time>2026-06-25T17:30:03.000Z</time></trkpt>
        <trkpt lat="28.108817" lon="105.176565"><ele>888.84</ele><time>2026-06-25T17:30:11.000Z</time></trkpt>
        <trkpt lat="28.1087321" lon="105.1766132"><ele>888.75</ele><time>2026-06-25T17:30:17.000Z</time></trkpt>
        <trkpt lat="28.1086477" lon="105.1766435"><ele>888.07</ele><time>2026-06-25T17:30:21.000Z</time></trkpt>
        <trkpt lat="28.1085625" lon="105.1766703"><ele>887.46</ele><time>2026-06-25T17:30:25.000Z</time></trkpt>
        <trkpt lat="28.1084728" lon="105.1767023"><ele>886.92</ele><time>2026-06-25T17:30:29.000Z</time></trkpt>
        <trkpt lat="28.1083838" lon="105.1767406"><ele>886.27</ele><time>2026-06-25T17:30:33.000Z</time></trkpt>
        <trkpt lat="28.1082821" lon="105.1767357"><ele>886.83</ele><time>2026-06-25T17:30:37.000Z</time></trkpt>
        <trkpt lat="28.108168" lon="105.1766892"><ele>887.6</ele><time>2026-06-25T17:30:43.000Z</time></trkpt>
        <trkpt lat="28.1080611" lon="105.1766729"><ele>889.22</ele><time>2026-06-25T17:30:49.000Z</time></trkpt>
        <trkpt lat="28.107975" lon="105.1767119"><ele>891.41</ele><time>2026-06-25T17:31:01.000Z</time></trkpt>
        <trkpt lat="28.1078933" lon="105.1767809"><ele>893.63</ele><time>2026-06-25T17:31:11.000Z</time></trkpt>
        <trkpt lat="28.1078061" lon="105.1768277"><ele>897.09</ele><time>2026-06-25T17:31:21.000Z</time></trkpt>
        <trkpt lat="28.1077156" lon="105.1768373"><ele>900.68</ele><time>2026-06-25T17:31:35.000Z</time></trkpt>
        <trkpt lat="28.107621" lon="105.1768595"><ele>902.79</ele><time>2026-06-25T17:32:25.000Z</time></trkpt>
        <trkpt lat="28.1075606" lon="105.1769329"><ele>906.92</ele><time>2026-06-25T17:32:41.000Z</time></trkpt>
        <trkpt lat="28.1075003" lon="105.1770189"><ele>909.23</ele><time>2026-06-25T17:32:53.000Z</time></trkpt>
        <trkpt lat="28.1074193" lon="105.1770779"><ele>908.4</ele><time>2026-06-25T17:33:03.000Z</time></trkpt>
        <trkpt lat="28.1073333" lon="105.1771288"><ele>907.37</ele><time>2026-06-25T17:33:11.000Z</time></trkpt>
        <trkpt lat="28.1072515" lon="105.1771887"><ele>908.34</ele><time>2026-06-25T17:33:21.000Z</time></trkpt>
        <trkpt lat="28.107179" lon="105.1772567"><ele>911.2</ele><time>2026-06-25T17:33:31.000Z</time></trkpt>
        <trkpt lat="28.1070929" lon="105.1772958"><ele>913.76</ele><time>2026-06-25T17:33:41.000Z</time></trkpt>
        <trkpt lat="28.106999" lon="105.177282"><ele>915.8</ele><time>2026-06-25T17:33:51.000Z</time></trkpt>
        <trkpt lat="28.1068998" lon="105.1772618"><ele>916.82</ele><time>2026-06-25T17:34:01.000Z</time></trkpt>
        <trkpt lat="28.1068261" lon="105.1771875"><ele>920.01</ele><time>2026-06-25T17:34:11.000Z</time></trkpt>
        <trkpt lat="28.1068256" lon="105.1770723"><ele>921.85</ele><time>2026-06-25T17:34:21.000Z</time></trkpt>
        <trkpt lat="28.1068422" lon="105.1769511"><ele>924.3</ele><time>2026-06-25T17:34:29.000Z</time></trkpt>
        <trkpt lat="28.1068591" lon="105.1768552"><ele>927.02</ele><time>2026-06-25T17:34:39.000Z</time></trkpt>
        <trkpt lat="28.1067703" lon="105.1769163"><ele>929.5</ele><time>2026-06-25T17:36:29.000Z</time></trkpt>
        <trkpt lat="28.1066878" lon="105.1769599"><ele>931.55</ele><time>2026-06-25T17:36:37.000Z</time></trkpt>
        <trkpt lat="28.1065975" lon="105.1769571"><ele>933.15</ele><time>2026-06-25T17:36:45.000Z</time></trkpt>
        <trkpt lat="28.1065075" lon="105.1769271"><ele>934.14</ele><time>2026-06-25T17:36:53.000Z</time></trkpt>
        <trkpt lat="28.1064095" lon="105.1768795"><ele>934.71</ele><time>2026-06-25T17:37:01.000Z</time></trkpt>
        <trkpt lat="28.1063072" lon="105.1768499"><ele>935.41</ele><time>2026-06-25T17:37:09.000Z</time></trkpt>
        <trkpt lat="28.1062078" lon="105.1768508"><ele>936.07</ele><time>2026-06-25T17:37:17.000Z</time></trkpt>
        <trkpt lat="28.106109" lon="105.1768731"><ele>936.12</ele><time>2026-06-25T17:37:25.000Z</time></trkpt>
        <trkpt lat="28.1060085" lon="105.176904"><ele>936.87</ele><time>2026-06-25T17:37:33.000Z</time></trkpt>
        <trkpt lat="28.1059094" lon="105.1769244"><ele>937.89</ele><time>2026-06-25T17:37:41.000Z</time></trkpt>
        <trkpt lat="28.1058384" lon="105.1769374"><ele>937.8</ele><time>2026-06-25T17:37:49.000Z</time></trkpt>
        <trkpt lat="28.1057596" lon="105.1769917"><ele>938.08</ele><time>2026-06-25T17:39:39.000Z</time></trkpt>
        <trkpt lat="28.1056508" lon="105.1770437"><ele>937.04</ele><time>2026-06-25T17:39:43.000Z</time></trkpt>
        <trkpt lat="28.1055286" lon="105.1771189"><ele>934.33</ele><time>2026-06-25T17:39:47.000Z</time></trkpt>
        <trkpt lat="28.105391" lon="105.1771947"><ele>932.06</ele><time>2026-06-25T17:39:51.000Z</time></trkpt>
        <trkpt lat="28.1052615" lon="105.1772668"><ele>931.04</ele><time>2026-06-25T17:39:55.000Z</time></trkpt>
        <trkpt lat="28.1051532" lon="105.1773294"><ele>931.06</ele><time>2026-06-25T17:39:59.000Z</time></trkpt>
        <trkpt lat="28.1051177" lon="105.1773641"><ele>931.41</ele><time>2026-06-25T17:40:15.000Z</time></trkpt>
        <trkpt lat="28.1050132" lon="105.1773709"><ele>931.89</ele><time>2026-06-25T17:40:29.000Z</time></trkpt>
        <trkpt lat="28.1048928" lon="105.1773688"><ele>932.39</ele><time>2026-06-25T17:40:33.000Z</time></trkpt>
        <trkpt lat="28.1047394" lon="105.1773636"><ele>933.2</ele><time>2026-06-25T17:40:37.000Z</time></trkpt>
        <trkpt lat="28.104622" lon="105.1773462"><ele>934.34</ele><time>2026-06-25T17:40:39.000Z</time></trkpt>
        <trkpt lat="28.1045048" lon="105.1773055"><ele>935.46</ele><time>2026-06-25T17:40:41.000Z</time></trkpt>
        <trkpt lat="28.1043874" lon="105.1772543"><ele>936.52</ele><time>2026-06-25T17:40:43.000Z</time></trkpt>
        <trkpt lat="28.1042766" lon="105.1771981"><ele>937.43</ele><time>2026-06-25T17:40:45.000Z</time></trkpt>
        <trkpt lat="28.1041724" lon="105.1771223"><ele>938.25</ele><time>2026-06-25T17:40:47.000Z</time></trkpt>
        <trkpt lat="28.1040754" lon="105.1770365"><ele>938.82</ele><time>2026-06-25T17:40:49.000Z</time></trkpt>
        <trkpt lat="28.1039744" lon="105.1769652"><ele>939.18</ele><time>2026-06-25T17:40:51.000Z</time></trkpt>
        <trkpt lat="28.1038569" lon="105.1769523"><ele>939.42</ele><time>2026-06-25T17:40:53.000Z</time></trkpt>
        <trkpt lat="28.1037156" lon="105.1769935"><ele>939.51</ele><time>2026-06-25T17:40:55.000Z</time></trkpt>
        <trkpt lat="28.1035614" lon="105.1770616"><ele>939.28</ele><time>2026-06-25T17:40:57.000Z</time></trkpt>
        <trkpt lat="28.1033941" lon="105.1771394"><ele>938.67</ele><time>2026-06-25T17:40:59.000Z</time></trkpt>
        <trkpt lat="28.103224" lon="105.1772172"><ele>937.85</ele><time>2026-06-25T17:41:01.000Z</time></trkpt>
        <trkpt lat="28.1030647" lon="105.1772553"><ele>937.24</ele><time>2026-06-25T17:41:03.000Z</time></trkpt>
        <trkpt lat="28.1029141" lon="105.1772491"><ele>936.97</ele><time>2026-06-25T17:41:05.000Z</time></trkpt>
        <trkpt lat="28.1027716" lon="105.1772699"><ele>936.85</ele><time>2026-06-25T17:41:07.000Z</time></trkpt>
        <trkpt lat="28.1026202" lon="105.1773263"><ele>936.1</ele><time>2026-06-25T17:41:09.000Z</time></trkpt>
        <trkpt lat="28.1024865" lon="105.1773934"><ele>935.44</ele><time>2026-06-25T17:41:11.000Z</time></trkpt>
        <trkpt lat="28.1024148" lon="105.1775112"><ele>934.84</ele><time>2026-06-25T17:41:13.000Z</time></trkpt>
        <trkpt lat="28.1023713" lon="105.1776665"><ele>933.18</ele><time>2026-06-25T17:41:15.000Z</time></trkpt>
        <trkpt lat="28.1023338" lon="105.1778315"><ele>931.82</ele><time>2026-06-25T17:41:17.000Z</time></trkpt>
        <trkpt lat="28.10228" lon="105.1779858"><ele>930.38</ele><time>2026-06-25T17:41:19.000Z</time></trkpt>
        <trkpt lat="28.1022023" lon="105.1781283"><ele>928.94</ele><time>2026-06-25T17:41:21.000Z</time></trkpt>
        <trkpt lat="28.1020915" lon="105.1782549"><ele>927.54</ele><time>2026-06-25T17:41:23.000Z</time></trkpt>
        <trkpt lat="28.1019351" lon="105.178333"><ele>926.71</ele><time>2026-06-25T17:41:25.000Z</time></trkpt>
        <trkpt lat="28.1017562" lon="105.178385"><ele>925.83</ele><time>2026-06-25T17:41:27.000Z</time></trkpt>
        <trkpt lat="28.1015819" lon="105.1784309"><ele>924.88</ele><time>2026-06-25T17:41:29.000Z</time></trkpt>
        <trkpt lat="28.1014467" lon="105.1784799"><ele>923.73</ele><time>2026-06-25T17:41:31.000Z</time></trkpt>
        <trkpt lat="28.1013745" lon="105.1785741"><ele>922.16</ele><time>2026-06-25T17:41:33.000Z</time></trkpt>
        <trkpt lat="28.1013435" lon="105.1786774"><ele>920.7</ele><time>2026-06-25T17:41:35.000Z</time></trkpt>
        <trkpt lat="28.1013161" lon="105.1787765"><ele>919.78</ele><time>2026-06-25T17:41:37.000Z</time></trkpt>
        <trkpt lat="28.1012895" lon="105.1788755"><ele>919.05</ele><time>2026-06-25T17:41:39.000Z</time></trkpt>
        <trkpt lat="28.1012422" lon="105.1790683"><ele>918.51</ele><time>2026-06-25T17:41:43.000Z</time></trkpt>
        <trkpt lat="28.1011743" lon="105.1792292"><ele>917.44</ele><time>2026-06-25T17:41:45.000Z</time></trkpt>
        <trkpt lat="28.1011241" lon="105.1793945"><ele>916.6</ele><time>2026-06-25T17:41:47.000Z</time></trkpt>
        <trkpt lat="28.1010956" lon="105.1795548"><ele>916.04</ele><time>2026-06-25T17:41:49.000Z</time></trkpt>
        <trkpt lat="28.1010118" lon="105.1796567"><ele>915.59</ele><time>2026-06-25T17:41:51.000Z</time></trkpt>
        <trkpt lat="28.1009007" lon="105.1797225"><ele>915.44</ele><time>2026-06-25T17:41:53.000Z</time></trkpt>
        <trkpt lat="28.1008302" lon="105.1798148"><ele>915.27</ele><time>2026-06-25T17:41:55.000Z</time></trkpt>
        <trkpt lat="28.100798" lon="105.1799278"><ele>915.03</ele><time>2026-06-25T17:41:57.000Z</time></trkpt>
        <trkpt lat="28.100752" lon="105.1800246"><ele>914.95</ele><time>2026-06-25T17:41:59.000Z</time></trkpt>
        <trkpt lat="28.1006792" lon="105.1801143"><ele>914.85</ele><time>2026-06-25T17:42:01.000Z</time></trkpt>
        <trkpt lat="28.1005809" lon="105.1801994"><ele>914.46</ele><time>2026-06-25T17:42:03.000Z</time></trkpt>
        <trkpt lat="28.1004475" lon="105.1802683"><ele>913.67</ele><time>2026-06-25T17:42:05.000Z</time></trkpt>
        <trkpt lat="28.1002936" lon="105.180296"><ele>912.45</ele><time>2026-06-25T17:42:07.000Z</time></trkpt>
        <trkpt lat="28.1001549" lon="105.1802985"><ele>910.78</ele><time>2026-06-25T17:42:09.000Z</time></trkpt>
        <trkpt lat="28.1000594" lon="105.1803447"><ele>909.31</ele><time>2026-06-25T17:42:11.000Z</time></trkpt>
        <trkpt lat="28.1000239" lon="105.180462"><ele>907.92</ele><time>2026-06-25T17:42:13.000Z</time></trkpt>
        <trkpt lat="28.1000058" lon="105.1806316"><ele>905.93</ele><time>2026-06-25T17:42:15.000Z</time></trkpt>
        <trkpt lat="28.0999871" lon="105.1808266"><ele>904.09</ele><time>2026-06-25T17:42:17.000Z</time></trkpt>
        <trkpt lat="28.099966" lon="105.181029"><ele>902.71</ele><time>2026-06-25T17:42:19.000Z</time></trkpt>
        <trkpt lat="28.0999357" lon="105.1812322"><ele>901.69</ele><time>2026-06-25T17:42:21.000Z</time></trkpt>
        <trkpt lat="28.0998928" lon="105.1814326"><ele>900.88</ele><time>2026-06-25T17:42:23.000Z</time></trkpt>
        <trkpt lat="28.099828" lon="105.1816395"><ele>899.62</ele><time>2026-06-25T17:42:25.000Z</time></trkpt>
        <trkpt lat="28.099759" lon="105.1818486"><ele>898.22</ele><time>2026-06-25T17:42:27.000Z</time></trkpt>
        <trkpt lat="28.0996929" lon="105.1820558"><ele>896.59</ele><time>2026-06-25T17:42:29.000Z</time></trkpt>
        <trkpt lat="28.0996308" lon="105.1822445"><ele>894.95</ele><time>2026-06-25T17:42:31.000Z</time></trkpt>
        <trkpt lat="28.0995758" lon="105.1824191"><ele>893.54</ele><time>2026-06-25T17:42:33.000Z</time></trkpt>
        <trkpt lat="28.0995176" lon="105.1825998"><ele>892.14</ele><time>2026-06-25T17:42:35.000Z</time></trkpt>
        <trkpt lat="28.0994392" lon="105.1827719"><ele>890.86</ele><time>2026-06-25T17:42:37.000Z</time></trkpt>
        <trkpt lat="28.0993277" lon="105.1828931"><ele>890.09</ele><time>2026-06-25T17:42:39.000Z</time></trkpt>
        <trkpt lat="28.0991923" lon="105.1829824"><ele>890.16</ele><time>2026-06-25T17:42:41.000Z</time></trkpt>
        <trkpt lat="28.0990513" lon="105.1830701"><ele>890.64</ele><time>2026-06-25T17:42:43.000Z</time></trkpt>
        <trkpt lat="28.0989154" lon="105.1831655"><ele>891.68</ele><time>2026-06-25T17:42:45.000Z</time></trkpt>
        <trkpt lat="28.0987838" lon="105.1832553"><ele>893.09</ele><time>2026-06-25T17:42:47.000Z</time></trkpt>
        <trkpt lat="28.0986666" lon="105.1833343"><ele>894.65</ele><time>2026-06-25T17:42:49.000Z</time></trkpt>
        <trkpt lat="28.0985847" lon="105.1833988"><ele>896.38</ele><time>2026-06-25T17:42:51.000Z</time></trkpt>
        <trkpt lat="28.0984653" lon="105.1834469"><ele>897.72</ele><time>2026-06-25T17:42:57.000Z</time></trkpt>
        <trkpt lat="28.0983647" lon="105.1834955"><ele>898.61</ele><time>2026-06-25T17:42:59.000Z</time></trkpt>
        <trkpt lat="28.0982923" lon="105.1835768"><ele>899.56</ele><time>2026-06-25T17:43:01.000Z</time></trkpt>
        <trkpt lat="28.0982433" lon="105.1836722"><ele>900.43</ele><time>2026-06-25T17:43:03.000Z</time></trkpt>
        <trkpt lat="28.0982276" lon="105.1837254"><ele>901.18</ele><time>2026-06-25T17:43:07.000Z</time></trkpt>
        <trkpt lat="28.0983315" lon="105.1838405"><ele>901.31</ele><time>2026-06-25T17:44:51.000Z</time></trkpt>
        <trkpt lat="28.0983481" lon="105.1839745"><ele>899.27</ele><time>2026-06-25T17:44:55.000Z</time></trkpt>
        <trkpt lat="28.0983593" lon="105.1840963"><ele>897.04</ele><time>2026-06-25T17:44:59.000Z</time></trkpt>
        <trkpt lat="28.0983342" lon="105.1842158"><ele>894.66</ele><time>2026-06-25T17:45:03.000Z</time></trkpt>
        <trkpt lat="28.0982837" lon="105.1843235"><ele>892.5</ele><time>2026-06-25T17:45:07.000Z</time></trkpt>
        <trkpt lat="28.0982348" lon="105.1844292"><ele>891.76</ele><time>2026-06-25T17:45:11.000Z</time></trkpt>
        <trkpt lat="28.0981917" lon="105.1845377"><ele>891.18</ele><time>2026-06-25T17:45:15.000Z</time></trkpt>
        <trkpt lat="28.0981556" lon="105.184648"><ele>891.57</ele><time>2026-06-25T17:45:19.000Z</time></trkpt>
        <trkpt lat="28.0981104" lon="105.1847719"><ele>891.68</ele><time>2026-06-25T17:45:25.000Z</time></trkpt>
        <trkpt lat="28.0980864" lon="105.1848866"><ele>891.09</ele><time>2026-06-25T17:45:33.000Z</time></trkpt>
        <trkpt lat="28.0980733" lon="105.1849467"><ele>891.76</ele><time>2026-06-25T17:45:39.000Z</time></trkpt>
        <trkpt lat="28.0980406" lon="105.1850339"><ele>892.78</ele><time>2026-06-25T17:46:05.000Z</time></trkpt>
        <trkpt lat="28.0979733" lon="105.1851234"><ele>893.67</ele><time>2026-06-25T17:46:17.000Z</time></trkpt>
        <trkpt lat="28.0978949" lon="105.1852007"><ele>893.57</ele><time>2026-06-25T17:46:25.000Z</time></trkpt>
        <trkpt lat="28.0978219" lon="105.1852786"><ele>892.82</ele><time>2026-06-25T17:46:33.000Z</time></trkpt>
        <trkpt lat="28.0977503" lon="105.1853567"><ele>892.14</ele><time>2026-06-25T17:46:41.000Z</time></trkpt>
        <trkpt lat="28.0976701" lon="105.185429"><ele>891.2</ele><time>2026-06-25T17:46:49.000Z</time></trkpt>
        <trkpt lat="28.0975954" lon="105.1855094"><ele>889.9</ele><time>2026-06-25T17:46:57.000Z</time></trkpt>
        <trkpt lat="28.0975399" lon="105.185596"><ele>888.78</ele><time>2026-06-25T17:47:05.000Z</time></trkpt>
        <trkpt lat="28.0974831" lon="105.1856797"><ele>888.44</ele><time>2026-06-25T17:47:13.000Z</time></trkpt>
        <trkpt lat="28.0974197" lon="105.185778"><ele>888.14</ele><time>2026-06-25T17:47:21.000Z</time></trkpt>
        <trkpt lat="28.0973705" lon="105.1858963"><ele>888.2</ele><time>2026-06-25T17:47:29.000Z</time></trkpt>
        <trkpt lat="28.0973363" lon="105.1860198"><ele>888.7</ele><time>2026-06-25T17:47:39.000Z</time></trkpt>
        <trkpt lat="28.0972988" lon="105.1861211"><ele>887.89</ele><time>2026-06-25T17:47:45.000Z</time></trkpt>
        <trkpt lat="28.0972628" lon="105.1862251"><ele>886.08</ele><time>2026-06-25T17:47:53.000Z</time></trkpt>
        <trkpt lat="28.0972365" lon="105.1863285"><ele>884.51</ele><time>2026-06-25T17:48:01.000Z</time></trkpt>
        <trkpt lat="28.0972115" lon="105.1864498"><ele>883.07</ele><time>2026-06-25T17:48:09.000Z</time></trkpt>
        <trkpt lat="28.0972046" lon="105.1865658"><ele>881.02</ele><time>2026-06-25T17:48:15.000Z</time></trkpt>
        <trkpt lat="28.0972122" lon="105.1866854"><ele>879.63</ele><time>2026-06-25T17:48:21.000Z</time></trkpt>
        <trkpt lat="28.0972338" lon="105.1868105"><ele>879.7</ele><time>2026-06-25T17:48:27.000Z</time></trkpt>
        <trkpt lat="28.0972801" lon="105.1869358"><ele>879.19</ele><time>2026-06-25T17:48:33.000Z</time></trkpt>
        <trkpt lat="28.0972944" lon="105.1870629"><ele>878.19</ele><time>2026-06-25T17:48:39.000Z</time></trkpt>
        <trkpt lat="28.0972464" lon="105.1871466"><ele>876.16</ele><time>2026-06-25T17:48:43.000Z</time></trkpt>
        <trkpt lat="28.0971612" lon="105.1871893"><ele>874.23</ele><time>2026-06-25T17:48:47.000Z</time></trkpt>
        <trkpt lat="28.0970448" lon="105.1872036"><ele>871.91</ele><time>2026-06-25T17:48:53.000Z</time></trkpt>
        <trkpt lat="28.0969581" lon="105.187253"><ele>869.78</ele><time>2026-06-25T17:48:59.000Z</time></trkpt>
        <trkpt lat="28.0969895" lon="105.187331"><ele>867.38</ele><time>2026-06-25T17:49:05.000Z</time></trkpt>
        <trkpt lat="28.0970586" lon="105.1874463"><ele>864.57</ele><time>2026-06-25T17:49:11.000Z</time></trkpt>
        <trkpt lat="28.0971025" lon="105.1875645"><ele>862.58</ele><time>2026-06-25T17:49:17.000Z</time></trkpt>
        <trkpt lat="28.0971552" lon="105.1876666"><ele>860.02</ele><time>2026-06-25T17:49:23.000Z</time></trkpt>
        <trkpt lat="28.0972355" lon="105.1877424"><ele>857.3</ele><time>2026-06-25T17:49:29.000Z</time></trkpt>
        <trkpt lat="28.0972599" lon="105.1878491"><ele>855.97</ele><time>2026-06-25T17:49:35.000Z</time></trkpt>
        <trkpt lat="28.0972476" lon="105.1879724"><ele>853.66</ele><time>2026-06-25T17:49:41.000Z</time></trkpt>
        <trkpt lat="28.0972492" lon="105.1880883"><ele>851.61</ele><time>2026-06-25T17:49:47.000Z</time></trkpt>
        <trkpt lat="28.0973267" lon="105.1881516"><ele>849.74</ele><time>2026-06-25T17:49:55.000Z</time></trkpt>
        <trkpt lat="28.0974288" lon="105.1881743"><ele>846.52</ele><time>2026-06-25T17:50:01.000Z</time></trkpt>
        <trkpt lat="28.0974888" lon="105.188231"><ele>843.46</ele><time>2026-06-25T17:50:09.000Z</time></trkpt>
        <trkpt lat="28.0975027" lon="105.1883396"><ele>841.35</ele><time>2026-06-25T17:50:21.000Z</time></trkpt>
        <trkpt lat="28.0974385" lon="105.1884352"><ele>838.87</ele><time>2026-06-25T17:50:27.000Z</time></trkpt>
        <trkpt lat="28.0973298" lon="105.1884286"><ele>836.84</ele><time>2026-06-25T17:50:33.000Z</time></trkpt>
        <trkpt lat="28.0972239" lon="105.1883663"><ele>835.28</ele><time>2026-06-25T17:50:39.000Z</time></trkpt>
        <trkpt lat="28.0971179" lon="105.1882793"><ele>833.64</ele><time>2026-06-25T17:50:47.000Z</time></trkpt>
        <trkpt lat="28.0970139" lon="105.1882256"><ele>830.71</ele><time>2026-06-25T17:50:57.000Z</time></trkpt>
        <trkpt lat="28.0969034" lon="105.188182"><ele>827.52</ele><time>2026-06-25T17:51:07.000Z</time></trkpt>
        <trkpt lat="28.0967899" lon="105.1881421"><ele>824.46</ele><time>2026-06-25T17:51:15.000Z</time></trkpt>
        <trkpt lat="28.0966867" lon="105.1880883"><ele>821.18</ele><time>2026-06-25T17:51:21.000Z</time></trkpt>
        <trkpt lat="28.0966118" lon="105.1881383"><ele>819.62</ele><time>2026-06-25T17:51:31.000Z</time></trkpt>
        <trkpt lat="28.0966386" lon="105.188226"><ele>816.64</ele><time>2026-06-25T17:51:37.000Z</time></trkpt>
        <trkpt lat="28.0966679" lon="105.188345"><ele>813.49</ele><time>2026-06-25T17:51:45.000Z</time></trkpt>
        <trkpt lat="28.0967077" lon="105.1884774"><ele>810.38</ele><time>2026-06-25T17:51:53.000Z</time></trkpt>
        <trkpt lat="28.0967573" lon="105.1885884"><ele>808.17</ele><time>2026-06-25T17:51:59.000Z</time></trkpt>
        <trkpt lat="28.0968052" lon="105.1886876"><ele>806.31</ele><time>2026-06-25T17:52:05.000Z</time></trkpt>
        <trkpt lat="28.0968672" lon="105.1887716"><ele>804.64</ele><time>2026-06-25T17:52:11.000Z</time></trkpt>
        <trkpt lat="28.0969522" lon="105.1888485"><ele>803.26</ele><time>2026-06-25T17:52:19.000Z</time></trkpt>
        <trkpt lat="28.0969185" lon="105.1889265"><ele>801.82</ele><time>2026-06-25T17:52:29.000Z</time></trkpt>
        <trkpt lat="28.0968292" lon="105.1889245"><ele>799.61</ele><time>2026-06-25T17:52:35.000Z</time></trkpt>
        <trkpt lat="28.0967246" lon="105.1888731"><ele>797.5</ele><time>2026-06-25T17:52:41.000Z</time></trkpt>
        <trkpt lat="28.0966256" lon="105.1888058"><ele>795.51</ele><time>2026-06-25T17:52:47.000Z</time></trkpt>
        <trkpt lat="28.0965413" lon="105.1887118"><ele>793.58</ele><time>2026-06-25T17:52:53.000Z</time></trkpt>
        <trkpt lat="28.0964835" lon="105.1885884"><ele>792.55</ele><time>2026-06-25T17:52:59.000Z</time></trkpt>
        <trkpt lat="28.0964168" lon="105.1884801"><ele>791.21</ele><time>2026-06-25T17:53:07.000Z</time></trkpt>
        <trkpt lat="28.0963466" lon="105.1884012"><ele>789.24</ele><time>2026-06-25T17:53:13.000Z</time></trkpt>
        <trkpt lat="28.0962593" lon="105.1883514"><ele>787.08</ele><time>2026-06-25T17:53:21.000Z</time></trkpt>
        <trkpt lat="28.0962406" lon="105.18835"><ele>784.88</ele><time>2026-06-25T17:53:25.000Z</time></trkpt>
        <trkpt lat="28.096169" lon="105.1883908"><ele>783.73</ele><time>2026-06-25T17:54:47.000Z</time></trkpt>
        <trkpt lat="28.0960948" lon="105.1884884"><ele>782</ele><time>2026-06-25T17:54:59.000Z</time></trkpt>
        <trkpt lat="28.0960204" lon="105.1885931"><ele>780.19</ele><time>2026-06-25T17:55:07.000Z</time></trkpt>
        <trkpt lat="28.0959082" lon="105.1886222"><ele>778.98</ele><time>2026-06-25T17:55:13.000Z</time></trkpt>
        <trkpt lat="28.0957945" lon="105.1886461"><ele>777.77</ele><time>2026-06-25T17:55:19.000Z</time></trkpt>
        <trkpt lat="28.0957175" lon="105.1886483"><ele>776.22</ele><time>2026-06-25T17:55:25.000Z</time></trkpt>
        <trkpt lat="28.09563" lon="105.1886724"><ele>774.8</ele><time>2026-06-25T17:56:09.000Z</time></trkpt>
        <trkpt lat="28.0955591" lon="105.1887542"><ele>773.93</ele><time>2026-06-25T17:56:17.000Z</time></trkpt>
        <trkpt lat="28.0956164" lon="105.1888365"><ele>772.52</ele><time>2026-06-25T17:56:25.000Z</time></trkpt>
        <trkpt lat="28.0957189" lon="105.1888524"><ele>770.25</ele><time>2026-06-25T17:56:31.000Z</time></trkpt>
        <trkpt lat="28.0958291" lon="105.1888413"><ele>767.82</ele><time>2026-06-25T17:56:37.000Z</time></trkpt>
        <trkpt lat="28.0959361" lon="105.1888547"><ele>766.37</ele><time>2026-06-25T17:56:43.000Z</time></trkpt>
        <trkpt lat="28.0959157" lon="105.1889351"><ele>764.07</ele><time>2026-06-25T17:56:51.000Z</time></trkpt>
        <trkpt lat="28.0958339" lon="105.1890225"><ele>761.23</ele><time>2026-06-25T17:56:57.000Z</time></trkpt>
        <trkpt lat="28.0957693" lon="105.1891342"><ele>759.41</ele><time>2026-06-25T17:57:03.000Z</time></trkpt>
        <trkpt lat="28.09576" lon="105.1892237"><ele>757.85</ele><time>2026-06-25T17:57:11.000Z</time></trkpt>
        <trkpt lat="28.0957706" lon="105.1893349"><ele>756.16</ele><time>2026-06-25T17:57:23.000Z</time></trkpt>
        <trkpt lat="28.0957641" lon="105.1894607"><ele>753.68</ele><time>2026-06-25T17:57:31.000Z</time></trkpt>
        <trkpt lat="28.0957106" lon="105.1895446"><ele>750.57</ele><time>2026-06-25T17:57:37.000Z</time></trkpt>
        <trkpt lat="28.0956134" lon="105.1895199"><ele>748.58</ele><time>2026-06-25T17:57:45.000Z</time></trkpt>
        <trkpt lat="28.0955107" lon="105.1894655"><ele>746.81</ele><time>2026-06-25T17:57:53.000Z</time></trkpt>
        <trkpt lat="28.095397" lon="105.1894041"><ele>744.64</ele><time>2026-06-25T17:58:01.000Z</time></trkpt>
        <trkpt lat="28.0953669" lon="105.1894618"><ele>742.93</ele><time>2026-06-25T17:58:11.000Z</time></trkpt>
        <trkpt lat="28.0954029" lon="105.1895682"><ele>740.99</ele><time>2026-06-25T17:58:19.000Z</time></trkpt>
        <trkpt lat="28.0954816" lon="105.1896502"><ele>738.76</ele><time>2026-06-25T17:58:25.000Z</time></trkpt>
        <trkpt lat="28.0955771" lon="105.1897458"><ele>736.7</ele><time>2026-06-25T17:58:33.000Z</time></trkpt>
        <trkpt lat="28.0956677" lon="105.1898126"><ele>734.4</ele><time>2026-06-25T17:58:39.000Z</time></trkpt>
        <trkpt lat="28.0957787" lon="105.1898429"><ele>733.15</ele><time>2026-06-25T17:58:47.000Z</time></trkpt>
        <trkpt lat="28.0957775" lon="105.1899291"><ele>731.55</ele><time>2026-06-25T17:58:57.000Z</time></trkpt>
        <trkpt lat="28.0956908" lon="105.1899705"><ele>728.37</ele><time>2026-06-25T17:59:03.000Z</time></trkpt>
        <trkpt lat="28.0955792" lon="105.1899761"><ele>726.15</ele><time>2026-06-25T17:59:09.000Z</time></trkpt>
        <trkpt lat="28.0954577" lon="105.1899369"><ele>723.97</ele><time>2026-06-25T17:59:17.000Z</time></trkpt>
        <trkpt lat="28.0953576" lon="105.1898628"><ele>722.4</ele><time>2026-06-25T17:59:25.000Z</time></trkpt>
        <trkpt lat="28.0952588" lon="105.1897744"><ele>720.07</ele><time>2026-06-25T17:59:33.000Z</time></trkpt>
        <trkpt lat="28.0951884" lon="105.1896777"><ele>717.94</ele><time>2026-06-25T17:59:39.000Z</time></trkpt>
        <trkpt lat="28.0951443" lon="105.1895555"><ele>716.71</ele><time>2026-06-25T17:59:47.000Z</time></trkpt>
        <trkpt lat="28.0950952" lon="105.1894599"><ele>714.1</ele><time>2026-06-25T17:59:53.000Z</time></trkpt>
        <trkpt lat="28.0950297" lon="105.1893844"><ele>711.54</ele><time>2026-06-25T17:59:59.000Z</time></trkpt>
        <trkpt lat="28.0949558" lon="105.1893029"><ele>709.2</ele><time>2026-06-25T18:00:05.000Z</time></trkpt>
        <trkpt lat="28.0948758" lon="105.189201"><ele>704.83</ele><time>2026-06-25T18:00:11.000Z</time></trkpt>
        <trkpt lat="28.0948239" lon="105.1891183"><ele>701.34</ele><time>2026-06-25T18:00:19.000Z</time></trkpt>
        <trkpt lat="28.0947612" lon="105.1890471"><ele>701.83</ele><time>2026-06-25T18:00:31.000Z</time></trkpt>
        <trkpt lat="28.0947175" lon="105.1890378"><ele>701.15</ele><time>2026-06-25T18:00:37.000Z</time></trkpt>
        <trkpt lat="28.0946327" lon="105.1890416"><ele>701.06</ele><time>2026-06-25T18:02:23.000Z</time></trkpt>
        <trkpt lat="28.0946272" lon="105.1890572"><ele>702.14</ele><time>2026-06-25T18:02:25.000Z</time></trkpt>
        <trkpt lat="28.0945556" lon="105.1891004"><ele>702.94</ele><time>2026-06-25T18:02:43.000Z</time></trkpt>
        <trkpt lat="28.0944668" lon="105.1890956"><ele>704.04</ele><time>2026-06-25T18:02:53.000Z</time></trkpt>
        <trkpt lat="28.0943689" lon="105.1891282"><ele>705.81</ele><time>2026-06-25T18:03:05.000Z</time></trkpt>
        <trkpt lat="28.0942678" lon="105.1891503"><ele>706.84</ele><time>2026-06-25T18:03:17.000Z</time></trkpt>
        <trkpt lat="28.0941712" lon="105.1892006"><ele>707.74</ele><time>2026-06-25T18:03:27.000Z</time></trkpt>
        <trkpt lat="28.0940783" lon="105.1892393"><ele>707.7</ele><time>2026-06-25T18:03:35.000Z</time></trkpt>
        <trkpt lat="28.0939998" lon="105.1892996"><ele>707.36</ele><time>2026-06-25T18:03:45.000Z</time></trkpt>
        <trkpt lat="28.0939177" lon="105.1893731"><ele>707.43</ele><time>2026-06-25T18:03:55.000Z</time></trkpt>
        <trkpt lat="28.0938715" lon="105.1894778"><ele>708.81</ele><time>2026-06-25T18:04:05.000Z</time></trkpt>
        <trkpt lat="28.093788" lon="105.1895267"><ele>708.85</ele><time>2026-06-25T18:04:13.000Z</time></trkpt>
        <trkpt lat="28.0937242" lon="105.1895528"><ele>708.08</ele><time>2026-06-25T18:04:29.000Z</time></trkpt>
        <trkpt lat="28.0936983" lon="105.1896506"><ele>706.72</ele><time>2026-06-25T18:05:35.000Z</time></trkpt>
        <trkpt lat="28.0936162" lon="105.1896993"><ele>704.82</ele><time>2026-06-25T18:05:45.000Z</time></trkpt>
        <trkpt lat="28.0935245" lon="105.1896842"><ele>703.76</ele><time>2026-06-25T18:05:55.000Z</time></trkpt>
        <trkpt lat="28.0934257" lon="105.1896646"><ele>703.25</ele><time>2026-06-25T18:06:05.000Z</time></trkpt>
        <trkpt lat="28.0933834" lon="105.1897366"><ele>702.43</ele><time>2026-06-25T18:06:17.000Z</time></trkpt>
        <trkpt lat="28.093349" lon="105.1898403"><ele>705.07</ele><time>2026-06-25T18:06:27.000Z</time></trkpt>
        <trkpt lat="28.0932926" lon="105.189935"><ele>708.2</ele><time>2026-06-25T18:06:35.000Z</time></trkpt>
        <trkpt lat="28.093216" lon="105.190011"><ele>709.1</ele><time>2026-06-25T18:06:43.000Z</time></trkpt>
        <trkpt lat="28.0931456" lon="105.1901079"><ele>708.77</ele><time>2026-06-25T18:06:53.000Z</time></trkpt>
        <trkpt lat="28.0930926" lon="105.190201"><ele>711.04</ele><time>2026-06-25T18:07:01.000Z</time></trkpt>
        <trkpt lat="28.0930309" lon="105.1902904"><ele>712.93</ele><time>2026-06-25T18:07:11.000Z</time></trkpt>
        <trkpt lat="28.0929562" lon="105.1903552"><ele>715.58</ele><time>2026-06-25T18:07:19.000Z</time></trkpt>
        <trkpt lat="28.0928794" lon="105.1904122"><ele>717.33</ele><time>2026-06-25T18:07:27.000Z</time></trkpt>
        <trkpt lat="28.0928089" lon="105.1904867"><ele>719.03</ele><time>2026-06-25T18:07:37.000Z</time></trkpt>
        <trkpt lat="28.09276" lon="105.1905755"><ele>718.79</ele><time>2026-06-25T18:07:45.000Z</time></trkpt>
        <trkpt lat="28.0927045" lon="105.1906645"><ele>720.42</ele><time>2026-06-25T18:07:57.000Z</time></trkpt>
        <trkpt lat="28.0926766" lon="105.1907264"><ele>721.4</ele><time>2026-06-25T18:08:05.000Z</time></trkpt>
        <trkpt lat="28.0926471" lon="105.1908181"><ele>722.05</ele><time>2026-06-25T18:09:13.000Z</time></trkpt>
        <trkpt lat="28.0925969" lon="105.1909177"><ele>721.19</ele><time>2026-06-25T18:09:25.000Z</time></trkpt>
        <trkpt lat="28.0925568" lon="105.1910181"><ele>719.58</ele><time>2026-06-25T18:09:35.000Z</time></trkpt>
        <trkpt lat="28.0925266" lon="105.1911177"><ele>719.1</ele><time>2026-06-25T18:09:47.000Z</time></trkpt>
        <trkpt lat="28.0925116" lon="105.1912351"><ele>721.08</ele><time>2026-06-25T18:09:59.000Z</time></trkpt>
        <trkpt lat="28.0925007" lon="105.1913541"><ele>724.22</ele><time>2026-06-25T18:10:09.000Z</time></trkpt>
        <trkpt lat="28.0925179" lon="105.1914716"><ele>727.16</ele><time>2026-06-25T18:10:19.000Z</time></trkpt>
        <trkpt lat="28.0925273" lon="105.1915818"><ele>728.62</ele><time>2026-06-25T18:10:29.000Z</time></trkpt>
        <trkpt lat="28.0925328" lon="105.1916875"><ele>731.57</ele><time>2026-06-25T18:10:41.000Z</time></trkpt>
        <trkpt lat="28.0924672" lon="105.1917388"><ele>734.83</ele><time>2026-06-25T18:10:59.000Z</time></trkpt>
        <trkpt lat="28.0923874" lon="105.1916943"><ele>738.77</ele><time>2026-06-25T18:11:09.000Z</time></trkpt>
        <trkpt lat="28.0923052" lon="105.1916167"><ele>741.39</ele><time>2026-06-25T18:11:21.000Z</time></trkpt>
        <trkpt lat="28.092231" lon="105.1916412"><ele>743.72</ele><time>2026-06-25T18:11:47.000Z</time></trkpt>
        <trkpt lat="28.0922108" lon="105.1917354"><ele>746.61</ele><time>2026-06-25T18:12:03.000Z</time></trkpt>
        <trkpt lat="28.0921838" lon="105.1918417"><ele>747.84</ele><time>2026-06-25T18:12:17.000Z</time></trkpt>
        <trkpt lat="28.0921607" lon="105.1917935"><ele>750.07</ele><time>2026-06-25T18:12:33.000Z</time></trkpt>
        <trkpt lat="28.0921343" lon="105.1916909"><ele>757.64</ele><time>2026-06-25T18:12:45.000Z</time></trkpt>
        <trkpt lat="28.0920819" lon="105.1915875"><ele>762.73</ele><time>2026-06-25T18:12:59.000Z</time></trkpt>
        <trkpt lat="28.0920589" lon="105.1914704"><ele>766.04</ele><time>2026-06-25T18:13:11.000Z</time></trkpt>
        <trkpt lat="28.0920301" lon="105.1913638"><ele>769.34</ele><time>2026-06-25T18:13:25.000Z</time></trkpt>
        <trkpt lat="28.0919568" lon="105.1913574"><ele>772.42</ele><time>2026-06-25T18:13:55.000Z</time></trkpt>
        <trkpt lat="28.0918902" lon="105.191426"><ele>776.51</ele><time>2026-06-25T18:14:19.000Z</time></trkpt>
        <trkpt lat="28.0918587" lon="105.19154"><ele>782.01</ele><time>2026-06-25T18:14:53.000Z</time></trkpt>
        <trkpt lat="28.0917927" lon="105.1916207"><ele>789.25</ele><time>2026-06-25T18:15:17.000Z</time></trkpt>
        <trkpt lat="28.0917254" lon="105.1917097"><ele>795.52</ele><time>2026-06-25T18:15:35.000Z</time></trkpt>
        <trkpt lat="28.0916626" lon="105.1918025"><ele>800.66</ele><time>2026-06-25T18:15:49.000Z</time></trkpt>
        <trkpt lat="28.091622" lon="105.1919052"><ele>804.71</ele><time>2026-06-25T18:16:05.000Z</time></trkpt>
        <trkpt lat="28.0915681" lon="105.1919938"><ele>807.6</ele><time>2026-06-25T18:16:25.000Z</time></trkpt>
        <trkpt lat="28.0914643" lon="105.1920124"><ele>812.79</ele><time>2026-06-25T18:17:35.000Z</time></trkpt>
        <trkpt lat="28.0913819" lon="105.1920833"><ele>817.42</ele><time>2026-06-25T18:17:45.000Z</time></trkpt>
        <trkpt lat="28.0912957" lon="105.1921617"><ele>820.97</ele><time>2026-06-25T18:18:01.000Z</time></trkpt>
        <trkpt lat="28.0912177" lon="105.1922229"><ele>821.44</ele><time>2026-06-25T18:18:11.000Z</time></trkpt>
        <trkpt lat="28.091145" lon="105.1922901"><ele>823.22</ele><time>2026-06-25T18:18:21.000Z</time></trkpt>
        <trkpt lat="28.0910642" lon="105.1923601"><ele>824.7</ele><time>2026-06-25T18:18:33.000Z</time></trkpt>
        <trkpt lat="28.0909735" lon="105.1924171"><ele>825.77</ele><time>2026-06-25T18:18:45.000Z</time></trkpt>
        <trkpt lat="28.0908893" lon="105.1924781"><ele>827.42</ele><time>2026-06-25T18:18:53.000Z</time></trkpt>
        <trkpt lat="28.0908038" lon="105.1925375"><ele>829.03</ele><time>2026-06-25T18:19:01.000Z</time></trkpt>
        <trkpt lat="28.0907271" lon="105.1926147"><ele>830.18</ele><time>2026-06-25T18:19:11.000Z</time></trkpt>
        <trkpt lat="28.0906461" lon="105.1926675"><ele>832.16</ele><time>2026-06-25T18:19:21.000Z</time></trkpt>
        <trkpt lat="28.090573" lon="105.1927314"><ele>834.34</ele><time>2026-06-25T18:19:33.000Z</time></trkpt>
        <trkpt lat="28.0905536" lon="105.1928384"><ele>836.92</ele><time>2026-06-25T18:19:45.000Z</time></trkpt>
        <trkpt lat="28.0905426" lon="105.192958"><ele>839.26</ele><time>2026-06-25T18:20:01.000Z</time></trkpt>
        <trkpt lat="28.0905245" lon="105.1930659"><ele>841.7</ele><time>2026-06-25T18:20:09.000Z</time></trkpt>
        <trkpt lat="28.090531" lon="105.1931861"><ele>841.21</ele><time>2026-06-25T18:20:19.000Z</time></trkpt>
        <trkpt lat="28.0905093" lon="105.1932924"><ele>842.47</ele><time>2026-06-25T18:20:29.000Z</time></trkpt>
        <trkpt lat="28.090472" lon="105.1933881"><ele>842.3</ele><time>2026-06-25T18:20:37.000Z</time></trkpt>
        <trkpt lat="28.0904378" lon="105.1934991"><ele>842.75</ele><time>2026-06-25T18:20:47.000Z</time></trkpt>
        <trkpt lat="28.0904814" lon="105.1936086"><ele>843.37</ele><time>2026-06-25T18:21:55.000Z</time></trkpt>
        <trkpt lat="28.0905761" lon="105.1937058"><ele>846.52</ele><time>2026-06-25T18:22:03.000Z</time></trkpt>
        <trkpt lat="28.0906571" lon="105.1937793"><ele>847.62</ele><time>2026-06-25T18:22:07.000Z</time></trkpt>
        <trkpt lat="28.0907458" lon="105.1938113"><ele>847.65</ele><time>2026-06-25T18:22:13.000Z</time></trkpt>
        <trkpt lat="28.0908465" lon="105.193776"><ele>847.93</ele><time>2026-06-25T18:22:21.000Z</time></trkpt>
        <trkpt lat="28.0909266" lon="105.1937089"><ele>848.82</ele><time>2026-06-25T18:22:27.000Z</time></trkpt>
        <trkpt lat="28.0910069" lon="105.1936356"><ele>849.94</ele><time>2026-06-25T18:22:35.000Z</time></trkpt>
        <trkpt lat="28.0911057" lon="105.1936147"><ele>851.34</ele><time>2026-06-25T18:22:45.000Z</time></trkpt>
        <trkpt lat="28.0911839" lon="105.1936733"><ele>852.14</ele><time>2026-06-25T18:22:53.000Z</time></trkpt>
        <trkpt lat="28.0911966" lon="105.1938129"><ele>852.02</ele><time>2026-06-25T18:28:43.000Z</time></trkpt>
        <trkpt lat="28.091148" lon="105.1938998"><ele>852.62</ele><time>2026-06-25T18:28:59.000Z</time></trkpt>
        <trkpt lat="28.0910613" lon="105.1939613"><ele>854.02</ele><time>2026-06-25T18:29:21.000Z</time></trkpt>
        <trkpt lat="28.0909804" lon="105.1940317"><ele>854.94</ele><time>2026-06-25T18:29:35.000Z</time></trkpt>
        <trkpt lat="28.0909043" lon="105.1940957"><ele>858.6</ele><time>2026-06-25T18:29:49.000Z</time></trkpt>
        <trkpt lat="28.0908539" lon="105.1941884"><ele>861.89</ele><time>2026-06-25T18:30:01.000Z</time></trkpt>
        <trkpt lat="28.0908284" lon="105.1942906"><ele>865.61</ele><time>2026-06-25T18:30:09.000Z</time></trkpt>
        <trkpt lat="28.0907871" lon="105.1943908"><ele>867.7</ele><time>2026-06-25T18:30:27.000Z</time></trkpt>
        <trkpt lat="28.0907947" lon="105.1945008"><ele>870.52</ele><time>2026-06-25T18:30:37.000Z</time></trkpt>
        <trkpt lat="28.0908148" lon="105.1946097"><ele>875.08</ele><time>2026-06-25T18:30:51.000Z</time></trkpt>
        <trkpt lat="28.0908941" lon="105.1946727"><ele>877.92</ele><time>2026-06-25T18:31:09.000Z</time></trkpt>
        <trkpt lat="28.0909187" lon="105.1947634"><ele>880.95</ele><time>2026-06-25T18:31:21.000Z</time></trkpt>
        <trkpt lat="28.0909255" lon="105.1948653"><ele>883.54</ele><time>2026-06-25T18:31:37.000Z</time></trkpt>
        <trkpt lat="28.0909336" lon="105.1949744"><ele>887.13</ele><time>2026-06-25T18:32:07.000Z</time></trkpt>
        <trkpt lat="28.0909339" lon="105.1950898"><ele>894.72</ele><time>2026-06-25T18:32:19.000Z</time></trkpt>
        <trkpt lat="28.0909206" lon="105.1951972"><ele>900.59</ele><time>2026-06-25T18:32:35.000Z</time></trkpt>
        <trkpt lat="28.0909555" lon="105.1953031"><ele>904.34</ele><time>2026-06-25T18:33:11.000Z</time></trkpt>
        <trkpt lat="28.0909865" lon="105.1954139"><ele>911.17</ele><time>2026-06-25T18:33:19.000Z</time></trkpt>
        <trkpt lat="28.0909567" lon="105.1955131"><ele>915.95</ele><time>2026-06-25T18:33:29.000Z</time></trkpt>
        <trkpt lat="28.0909145" lon="105.1956207"><ele>918.65</ele><time>2026-06-25T18:33:41.000Z</time></trkpt>
        <trkpt lat="28.0908547" lon="105.1957177"><ele>920.76</ele><time>2026-06-25T18:33:51.000Z</time></trkpt>
        <trkpt lat="28.0907731" lon="105.1957838"><ele>924.74</ele><time>2026-06-25T18:34:01.000Z</time></trkpt>
        <trkpt lat="28.0906699" lon="105.1957645"><ele>928.24</ele><time>2026-06-25T18:34:09.000Z</time></trkpt>
        <trkpt lat="28.0906011" lon="105.1958172"><ele>930.92</ele><time>2026-06-25T18:34:35.000Z</time></trkpt>
        <trkpt lat="28.0905383" lon="105.1958937"><ele>933.98</ele><time>2026-06-25T18:34:49.000Z</time></trkpt>
        <trkpt lat="28.0904784" lon="105.1959854"><ele>938.79</ele><time>2026-06-25T18:35:03.000Z</time></trkpt>
        <trkpt lat="28.0905044" lon="105.1960867"><ele>942.56</ele><time>2026-06-25T18:35:23.000Z</time></trkpt>
        <trkpt lat="28.0904577" lon="105.1961492"><ele>947.07</ele><time>2026-06-25T18:35:37.000Z</time></trkpt>
        <trkpt lat="28.0903956" lon="105.1962259"><ele>952.06</ele><time>2026-06-25T18:35:57.000Z</time></trkpt>
        <trkpt lat="28.0903718" lon="105.1963219"><ele>955.75</ele><time>2026-06-25T18:36:13.000Z</time></trkpt>
        <trkpt lat="28.0903209" lon="105.1964184"><ele>960.37</ele><time>2026-06-25T18:36:29.000Z</time></trkpt>
        <trkpt lat="28.0903034" lon="105.1965263"><ele>964.31</ele><time>2026-06-25T18:36:53.000Z</time></trkpt>
        <trkpt lat="28.09028" lon="105.1966321"><ele>970.15</ele><time>2026-06-25T18:37:11.000Z</time></trkpt>
        <trkpt lat="28.0902917" lon="105.1967358"><ele>974.64</ele><time>2026-06-25T18:37:27.000Z</time></trkpt>
        <trkpt lat="28.0902732" lon="105.1968375"><ele>979.94</ele><time>2026-06-25T18:37:47.000Z</time></trkpt>
        <trkpt lat="28.0902458" lon="105.1969376"><ele>986.19</ele><time>2026-06-25T18:38:05.000Z</time></trkpt>
        <trkpt lat="28.0902079" lon="105.1970376"><ele>993.17</ele><time>2026-06-25T18:38:31.000Z</time></trkpt>
        <trkpt lat="28.0901636" lon="105.197134"><ele>1001.3</ele><time>2026-06-25T18:38:53.000Z</time></trkpt>
        <trkpt lat="28.0901191" lon="105.1972395"><ele>1007.18</ele><time>2026-06-25T18:39:21.000Z</time></trkpt>
        <trkpt lat="28.0900746" lon="105.1973341"><ele>1014.36</ele><time>2026-06-25T18:39:47.000Z</time></trkpt>
        <trkpt lat="28.0900019" lon="105.1973982"><ele>1022.54</ele><time>2026-06-25T18:40:03.000Z</time></trkpt>
        <trkpt lat="28.0899054" lon="105.1974059"><ele>1028.68</ele><time>2026-06-25T18:40:19.000Z</time></trkpt>
        <trkpt lat="28.0898111" lon="105.1973504"><ele>1032.84</ele><time>2026-06-25T18:40:31.000Z</time></trkpt>
        <trkpt lat="28.0897645" lon="105.1973977"><ele>1037.66</ele><time>2026-06-25T18:41:05.000Z</time></trkpt>
        <trkpt lat="28.0897439" lon="105.1974907"><ele>1041.05</ele><time>2026-06-25T18:41:41.000Z</time></trkpt>
        <trkpt lat="28.0897415" lon="105.1975998"><ele>1048.46</ele><time>2026-06-25T18:42:25.000Z</time></trkpt>
        <trkpt lat="28.0897625" lon="105.1977276"><ele>1058.15</ele><time>2026-06-25T18:44:27.000Z</time></trkpt>
        <trkpt lat="28.0897843" lon="105.1978358"><ele>1067.72</ele><time>2026-06-25T18:44:49.000Z</time></trkpt>
        <trkpt lat="28.0898236" lon="105.1979331"><ele>1075.47</ele><time>2026-06-25T18:45:05.000Z</time></trkpt>
        <trkpt lat="28.0898442" lon="105.1980434"><ele>1081.46</ele><time>2026-06-25T18:45:15.000Z</time></trkpt>
        <trkpt lat="28.0898786" lon="105.1981405"><ele>1085.6</ele><time>2026-06-25T18:45:23.000Z</time></trkpt>
        <trkpt lat="28.0898835" lon="105.1982407"><ele>1087.49</ele><time>2026-06-25T18:45:31.000Z</time></trkpt>
        <trkpt lat="28.0898689" lon="105.1983623"><ele>1087.56</ele><time>2026-06-25T18:45:39.000Z</time></trkpt>
        <trkpt lat="28.0898371" lon="105.1984359"><ele>1087.87</ele><time>2026-06-25T18:45:47.000Z</time></trkpt>
        <trkpt lat="28.0897802" lon="105.1985169"><ele>1087.89</ele><time>2026-06-25T18:46:39.000Z</time></trkpt>
        <trkpt lat="28.0897312" lon="105.1986055"><ele>1089.56</ele><time>2026-06-25T18:46:53.000Z</time></trkpt>
        <trkpt lat="28.0896586" lon="105.1986685"><ele>1091.01</ele><time>2026-06-25T18:47:03.000Z</time></trkpt>
        <trkpt lat="28.0896125" lon="105.1987607"><ele>1092.63</ele><time>2026-06-25T18:47:19.000Z</time></trkpt>
        <trkpt lat="28.0895568" lon="105.1988516"><ele>1095.74</ele><time>2026-06-25T18:47:41.000Z</time></trkpt>
        <trkpt lat="28.0895084" lon="105.1989459"><ele>1099.75</ele><time>2026-06-25T18:48:05.000Z</time></trkpt>
        <trkpt lat="28.0894547" lon="105.1990317"><ele>1102.91</ele><time>2026-06-25T18:48:25.000Z</time></trkpt>
        <trkpt lat="28.0893943" lon="105.1991098"><ele>1107.28</ele><time>2026-06-25T18:48:47.000Z</time></trkpt>
        <trkpt lat="28.0893488" lon="105.1992015"><ele>1112.28</ele><time>2026-06-25T18:49:21.000Z</time></trkpt>
        <trkpt lat="28.0893601" lon="105.1993028"><ele>1118.89</ele><time>2026-06-25T18:50:05.000Z</time></trkpt>
        <trkpt lat="28.0893661" lon="105.1994078"><ele>1127.34</ele><time>2026-06-25T18:50:27.000Z</time></trkpt>
        <trkpt lat="28.0893745" lon="105.1995231"><ele>1134.56</ele><time>2026-06-25T18:50:45.000Z</time></trkpt>
        <trkpt lat="28.0893643" lon="105.1996342"><ele>1141.11</ele><time>2026-06-25T18:51:09.000Z</time></trkpt>
        <trkpt lat="28.0893322" lon="105.1997364"><ele>1146.89</ele><time>2026-06-25T18:51:31.000Z</time></trkpt>
        <trkpt lat="28.0893129" lon="105.1998526"><ele>1151.76</ele><time>2026-06-25T18:51:51.000Z</time></trkpt>
        <trkpt lat="28.0893198" lon="105.1999587"><ele>1156.08</ele><time>2026-06-25T18:51:57.000Z</time></trkpt>
        <trkpt lat="28.0893647" lon="105.2000612"><ele>1159.35</ele><time>2026-06-25T18:52:07.000Z</time></trkpt>
        <trkpt lat="28.0893963" lon="105.2001621"><ele>1160.36</ele><time>2026-06-25T18:52:17.000Z</time></trkpt>
        <trkpt lat="28.0894301" lon="105.2002588"><ele>1161.16</ele><time>2026-06-25T18:52:29.000Z</time></trkpt>
        <trkpt lat="28.0894547" lon="105.2003571"><ele>1162.12</ele><time>2026-06-25T18:52:45.000Z</time></trkpt>
        <trkpt lat="28.0894575" lon="105.2004678"><ele>1164.76</ele><time>2026-06-25T18:53:57.000Z</time></trkpt>
        <trkpt lat="28.0894705" lon="105.2005748"><ele>1168.87</ele><time>2026-06-25T18:54:27.000Z</time></trkpt>
        <trkpt lat="28.08948" lon="105.2006951"><ele>1174.71</ele><time>2026-06-25T18:56:09.000Z</time></trkpt>
        <trkpt lat="28.0894586" lon="105.2008013"><ele>1180.18</ele><time>2026-06-25T18:56:19.000Z</time></trkpt>
        <trkpt lat="28.0894514" lon="105.2009078"><ele>1182.49</ele><time>2026-06-25T18:56:31.000Z</time></trkpt>
        <trkpt lat="28.0894525" lon="105.2010143"><ele>1185.93</ele><time>2026-06-25T18:57:05.000Z</time></trkpt>
        <trkpt lat="28.0894605" lon="105.201128"><ele>1189.62</ele><time>2026-06-25T18:57:19.000Z</time></trkpt>
        <trkpt lat="28.0894689" lon="105.2012381"><ele>1191.62</ele><time>2026-06-25T18:57:31.000Z</time></trkpt>
        <trkpt lat="28.089455" lon="105.2013476"><ele>1193.58</ele><time>2026-06-25T18:57:55.000Z</time></trkpt>
        <trkpt lat="28.0894442" lon="105.2014567"><ele>1196.2</ele><time>2026-06-25T18:58:11.000Z</time></trkpt>
        <trkpt lat="28.0894358" lon="105.201568"><ele>1199.84</ele><time>2026-06-25T19:00:51.000Z</time></trkpt>
        <trkpt lat="28.0894607" lon="105.2016813"><ele>1202.17</ele><time>2026-06-25T19:01:03.000Z</time></trkpt>
        <trkpt lat="28.0894763" lon="105.2017952"><ele>1203.63</ele><time>2026-06-25T19:01:13.000Z</time></trkpt>
        <trkpt lat="28.0894943" lon="105.2019042"><ele>1204.59</ele><time>2026-06-25T19:01:23.000Z</time></trkpt>
        <trkpt lat="28.0894952" lon="105.2020074"><ele>1206.46</ele><time>2026-06-25T19:01:33.000Z</time></trkpt>
        <trkpt lat="28.0894794" lon="105.2021145"><ele>1208.14</ele><time>2026-06-25T19:01:45.000Z</time></trkpt>
        <trkpt lat="28.0894834" lon="105.2022174"><ele>1210.24</ele><time>2026-06-25T19:01:59.000Z</time></trkpt>
        <trkpt lat="28.0895109" lon="105.2023143"><ele>1212.88</ele><time>2026-06-25T19:02:27.000Z</time></trkpt>
        <trkpt lat="28.0895323" lon="105.2024131"><ele>1216.52</ele><time>2026-06-25T19:03:21.000Z</time></trkpt>
        <trkpt lat="28.0895725" lon="105.2025089"><ele>1220.85</ele><time>2026-06-25T19:03:39.000Z</time></trkpt>
        <trkpt lat="28.0896387" lon="105.2025958"><ele>1225</ele><time>2026-06-25T19:03:53.000Z</time></trkpt>
        <trkpt lat="28.0897045" lon="105.2026842"><ele>1229.46</ele><time>2026-06-25T19:04:11.000Z</time></trkpt>
        <trkpt lat="28.0897578" lon="105.2027723"><ele>1234.13</ele><time>2026-06-25T19:04:23.000Z</time></trkpt>
        <trkpt lat="28.0898034" lon="105.2028641"><ele>1238.61</ele><time>2026-06-25T19:04:39.000Z</time></trkpt>
        <trkpt lat="28.0898272" lon="105.2029683"><ele>1241.08</ele><time>2026-06-25T19:04:57.000Z</time></trkpt>
        <trkpt lat="28.0898302" lon="105.2030772"><ele>1245.55</ele><time>2026-06-25T19:05:15.000Z</time></trkpt>
        <trkpt lat="28.0898464" lon="105.2031889"><ele>1249.99</ele><time>2026-06-25T19:05:47.000Z</time></trkpt>
        <trkpt lat="28.0899025" lon="105.2032701"><ele>1256</ele><time>2026-06-25T19:06:05.000Z</time></trkpt>
        <trkpt lat="28.0899196" lon="105.203367"><ele>1260.95</ele><time>2026-06-25T19:06:21.000Z</time></trkpt>
        <trkpt lat="28.0898891" lon="105.2034704"><ele>1265.7</ele><time>2026-06-25T19:06:33.000Z</time></trkpt>
        <trkpt lat="28.0898074" lon="105.2035387"><ele>1269.22</ele><time>2026-06-25T19:06:41.000Z</time></trkpt>
        <trkpt lat="28.089758" lon="105.2036273"><ele>1272.19</ele><time>2026-06-25T19:06:49.000Z</time></trkpt>
        <trkpt lat="28.0897109" lon="105.2037191"><ele>1275.6</ele><time>2026-06-25T19:07:01.000Z</time></trkpt>
        <trkpt lat="28.0896521" lon="105.2037984"><ele>1279.45</ele><time>2026-06-25T19:07:17.000Z</time></trkpt>
        <trkpt lat="28.0896309" lon="105.2038935"><ele>1282.91</ele><time>2026-06-25T19:07:45.000Z</time></trkpt>
        <trkpt lat="28.0895711" lon="105.203974"><ele>1288.27</ele><time>2026-06-25T19:07:59.000Z</time></trkpt>
        <trkpt lat="28.0894791" lon="105.2040193"><ele>1293.25</ele><time>2026-06-25T19:08:15.000Z</time></trkpt>
        <trkpt lat="28.0893841" lon="105.2040511"><ele>1297.76</ele><time>2026-06-25T19:08:29.000Z</time></trkpt>
        <trkpt lat="28.0892896" lon="105.2040883"><ele>1301.91</ele><time>2026-06-25T19:08:43.000Z</time></trkpt>
        <trkpt lat="28.0893581" lon="105.2040245"><ele>1306.42</ele><time>2026-06-25T19:11:51.000Z</time></trkpt>
        <trkpt lat="28.0894609" lon="105.2039857"><ele>1309.29</ele><time>2026-06-25T19:17:19.000Z</time></trkpt>
        <trkpt lat="28.0895438" lon="105.2039143"><ele>1309.81</ele><time>2026-06-25T19:17:27.000Z</time></trkpt>
        <trkpt lat="28.0896781" lon="105.2039025"><ele>1309.94</ele><time>2026-06-25T19:17:33.000Z</time></trkpt>
        <trkpt lat="28.0897487" lon="105.20382"><ele>1309.17</ele><time>2026-06-25T19:17:43.000Z</time></trkpt>
        <trkpt lat="28.0897332" lon="105.2037194"><ele>1307.68</ele><time>2026-06-25T19:17:53.000Z</time></trkpt>
        <trkpt lat="28.0897221" lon="105.2036071"><ele>1303.78</ele><time>2026-06-25T19:17:57.000Z</time></trkpt>
        <trkpt lat="28.0897439" lon="105.2034952"><ele>1301.11</ele><time>2026-06-25T19:18:19.000Z</time></trkpt>
        <trkpt lat="28.0898295" lon="105.2034302"><ele>1296</ele><time>2026-06-25T19:18:25.000Z</time></trkpt>
        <trkpt lat="28.089885" lon="105.203336"><ele>1291.26</ele><time>2026-06-25T19:18:31.000Z</time></trkpt>
        <trkpt lat="28.0898882" lon="105.203223"><ele>1287.43</ele><time>2026-06-25T19:18:39.000Z</time></trkpt>
        <trkpt lat="28.0898103" lon="105.2031417"><ele>1283.27</ele><time>2026-06-25T19:18:51.000Z</time></trkpt>
        <trkpt lat="28.0897639" lon="105.2030446"><ele>1277.93</ele><time>2026-06-25T19:18:57.000Z</time></trkpt>
        <trkpt lat="28.0897416" lon="105.2029362"><ele>1274.94</ele><time>2026-06-25T19:19:05.000Z</time></trkpt>
        <trkpt lat="28.0897249" lon="105.2028306"><ele>1271.52</ele><time>2026-06-25T19:19:13.000Z</time></trkpt>
        <trkpt lat="28.0897027" lon="105.20273"><ele>1268.21</ele><time>2026-06-25T19:19:21.000Z</time></trkpt>
        <trkpt lat="28.0896679" lon="105.2026195"><ele>1264.74</ele><time>2026-06-25T19:19:33.000Z</time></trkpt>
        <trkpt lat="28.0896279" lon="105.2025147"><ele>1258.6</ele><time>2026-06-25T19:19:39.000Z</time></trkpt>
        <trkpt lat="28.0895734" lon="105.2024153"><ele>1252.5</ele><time>2026-06-25T19:19:47.000Z</time></trkpt>
        <trkpt lat="28.0895234" lon="105.2023039"><ele>1246.8</ele><time>2026-06-25T19:19:59.000Z</time></trkpt>
        <trkpt lat="28.0894814" lon="105.2022035"><ele>1242.05</ele><time>2026-06-25T19:20:13.000Z</time></trkpt>
        <trkpt lat="28.0894749" lon="105.2021"><ele>1237.44</ele><time>2026-06-25T19:20:27.000Z</time></trkpt>
        <trkpt lat="28.089488" lon="105.2019843"><ele>1232.08</ele><time>2026-06-25T19:20:37.000Z</time></trkpt>
        <trkpt lat="28.0894975" lon="105.2018773"><ele>1227.19</ele><time>2026-06-25T19:20:43.000Z</time></trkpt>
        <trkpt lat="28.0894975" lon="105.2017508"><ele>1223.16</ele><time>2026-06-25T19:20:49.000Z</time></trkpt>
        <trkpt lat="28.0894679" lon="105.201606"><ele>1219.83</ele><time>2026-06-25T19:20:55.000Z</time></trkpt>
        <trkpt lat="28.0894479" lon="105.2014877"><ele>1216.73</ele><time>2026-06-25T19:20:59.000Z</time></trkpt>
        <trkpt lat="28.0894341" lon="105.2013669"><ele>1214.84</ele><time>2026-06-25T19:21:07.000Z</time></trkpt>
        <trkpt lat="28.0894365" lon="105.2012458"><ele>1212.5</ele><time>2026-06-25T19:21:15.000Z</time></trkpt>
        <trkpt lat="28.0894353" lon="105.2011316"><ele>1210.05</ele><time>2026-06-25T19:21:23.000Z</time></trkpt>
        <trkpt lat="28.0894454" lon="105.2010164"><ele>1207.55</ele><time>2026-06-25T19:21:31.000Z</time></trkpt>
        <trkpt lat="28.0894419" lon="105.2009113"><ele>1205.34</ele><time>2026-06-25T19:21:39.000Z</time></trkpt>
        <trkpt lat="28.089458" lon="105.2008015"><ele>1203.3</ele><time>2026-06-25T19:21:49.000Z</time></trkpt>
        <trkpt lat="28.0894782" lon="105.2006967"><ele>1200.55</ele><time>2026-06-25T19:21:57.000Z</time></trkpt>
        <trkpt lat="28.089483" lon="105.2005927"><ele>1197.73</ele><time>2026-06-25T19:22:07.000Z</time></trkpt>
        <trkpt lat="28.0894713" lon="105.2004895"><ele>1195.33</ele><time>2026-06-25T19:23:01.000Z</time></trkpt>
        <trkpt lat="28.0894477" lon="105.2003845"><ele>1189.94</ele><time>2026-06-25T19:23:19.000Z</time></trkpt>
        <trkpt lat="28.0894341" lon="105.2002821"><ele>1183.8</ele><time>2026-06-25T19:23:33.000Z</time></trkpt>
        <trkpt lat="28.0894095" lon="105.2001779"><ele>1178.05</ele><time>2026-06-25T19:23:45.000Z</time></trkpt>
        <trkpt lat="28.0893797" lon="105.2000765"><ele>1173.04</ele><time>2026-06-25T19:23:53.000Z</time></trkpt>
        <trkpt lat="28.089348" lon="105.199968"><ele>1169.44</ele><time>2026-06-25T19:24:01.000Z</time></trkpt>
        <trkpt lat="28.0893124" lon="105.1998602"><ele>1167.39</ele><time>2026-06-25T19:24:09.000Z</time></trkpt>
        <trkpt lat="28.0893051" lon="105.1997494"><ele>1166.24</ele><time>2026-06-25T19:24:19.000Z</time></trkpt>
        <trkpt lat="28.0893206" lon="105.1996443"><ele>1165.27</ele><time>2026-06-25T19:24:25.000Z</time></trkpt>
        <trkpt lat="28.0893515" lon="105.1995174"><ele>1164.35</ele><time>2026-06-25T19:24:41.000Z</time></trkpt>
        <trkpt lat="28.0893328" lon="105.1993837"><ele>1162.4</ele><time>2026-06-25T19:24:49.000Z</time></trkpt>
        <trkpt lat="28.0893331" lon="105.1992658"><ele>1161.58</ele><time>2026-06-25T19:24:59.000Z</time></trkpt>
        <trkpt lat="28.0893006" lon="105.1991335"><ele>1159.45</ele><time>2026-06-25T19:25:11.000Z</time></trkpt>
        <trkpt lat="28.0893413" lon="105.1990401"><ele>1156.91</ele><time>2026-06-25T19:25:25.000Z</time></trkpt>
        <trkpt lat="28.08935" lon="105.1990979"><ele>1153.56</ele><time>2026-06-25T19:25:33.000Z</time></trkpt>
        <trkpt lat="28.0894077" lon="105.1991728"><ele>1145.22</ele><time>2026-06-25T19:25:35.000Z</time></trkpt>
        <trkpt lat="28.0894939" lon="105.1991829"><ele>1139.91</ele><time>2026-06-25T19:25:37.000Z</time></trkpt>
        <trkpt lat="28.0895516" lon="105.1991009"><ele>1137.16</ele><time>2026-06-25T19:25:41.000Z</time></trkpt>
        <trkpt lat="28.0895952" lon="105.1989843"><ele>1137.56</ele><time>2026-06-25T19:25:47.000Z</time></trkpt>
        <trkpt lat="28.0896046" lon="105.1988651"><ele>1138.55</ele><time>2026-06-25T19:25:59.000Z</time></trkpt>
        <trkpt lat="28.0896443" lon="105.1987541"><ele>1138.6</ele><time>2026-06-25T19:26:11.000Z</time></trkpt>
        <trkpt lat="28.0896668" lon="105.1986418"><ele>1137.6</ele><time>2026-06-25T19:26:25.000Z</time></trkpt>
        <trkpt lat="28.0897131" lon="105.198545"><ele>1131.01</ele><time>2026-06-25T19:26:39.000Z</time></trkpt>
        <trkpt lat="28.0897988" lon="105.198454"><ele>1122.16</ele><time>2026-06-25T19:26:55.000Z</time></trkpt>
        <trkpt lat="28.0898591" lon="105.1983563"><ele>1112.47</ele><time>2026-06-25T19:27:01.000Z</time></trkpt>
        <trkpt lat="28.0898996" lon="105.198252"><ele>1106.06</ele><time>2026-06-25T19:27:07.000Z</time></trkpt>
        <trkpt lat="28.0898995" lon="105.1981454"><ele>1100.3</ele><time>2026-06-25T19:27:15.000Z</time></trkpt>
        <trkpt lat="28.0898641" lon="105.1980482"><ele>1097.53</ele><time>2026-06-25T19:27:21.000Z</time></trkpt>
        <trkpt lat="28.0898307" lon="105.1979297"><ele>1096.22</ele><time>2026-06-25T19:27:27.000Z</time></trkpt>
        <trkpt lat="28.0898034" lon="105.197803"><ele>1094.8</ele><time>2026-06-25T19:27:35.000Z</time></trkpt>
        <trkpt lat="28.089758" lon="105.1977039"><ele>1093.04</ele><time>2026-06-25T19:27:43.000Z</time></trkpt>
        <trkpt lat="28.0896849" lon="105.1976314"><ele>1090.88</ele><time>2026-06-25T19:27:53.000Z</time></trkpt>
        <trkpt lat="28.0897273" lon="105.1975634"><ele>1087.95</ele><time>2026-06-25T19:28:05.000Z</time></trkpt>
        <trkpt lat="28.089697" lon="105.1974827"><ele>1083.22</ele><time>2026-06-25T19:28:11.000Z</time></trkpt>
        <trkpt lat="28.0897691" lon="105.197497"><ele>1080.1</ele><time>2026-06-25T19:28:19.000Z</time></trkpt>
        <trkpt lat="28.0898158" lon="105.1973892"><ele>1075.52</ele><time>2026-06-25T19:28:23.000Z</time></trkpt>
        <trkpt lat="28.0898013" lon="105.1972837"><ele>1073.31</ele><time>2026-06-25T19:28:47.000Z</time></trkpt>
        <trkpt lat="28.0897551" lon="105.1971799"><ele>1066.82</ele><time>2026-06-25T19:28:57.000Z</time></trkpt>
        <trkpt lat="28.0898198" lon="105.1971899"><ele>1061.91</ele><time>2026-06-25T19:29:03.000Z</time></trkpt>
        <trkpt lat="28.089895" lon="105.1972663"><ele>1056.33</ele><time>2026-06-25T19:29:09.000Z</time></trkpt>
        <trkpt lat="28.0900033" lon="105.1973106"><ele>1052.08</ele><time>2026-06-25T19:29:15.000Z</time></trkpt>
        <trkpt lat="28.0900765" lon="105.1972424"><ele>1047.98</ele><time>2026-06-25T19:29:21.000Z</time></trkpt>
        <trkpt lat="28.0900967" lon="105.1971131"><ele>1045.1</ele><time>2026-06-25T19:29:27.000Z</time></trkpt>
        <trkpt lat="28.0901167" lon="105.1970078"><ele>1043.61</ele><time>2026-06-25T19:29:39.000Z</time></trkpt>
        <trkpt lat="28.0901818" lon="105.1969427"><ele>1040.22</ele><time>2026-06-25T19:29:47.000Z</time></trkpt>
        <trkpt lat="28.0902655" lon="105.1968874"><ele>1035.91</ele><time>2026-06-25T19:29:59.000Z</time></trkpt>
        <trkpt lat="28.0903001" lon="105.196799"><ele>1030.42</ele><time>2026-06-25T19:30:15.000Z</time></trkpt>
        <trkpt lat="28.0903315" lon="105.196696"><ele>1020.96</ele><time>2026-06-25T19:30:23.000Z</time></trkpt>
        <trkpt lat="28.0903233" lon="105.1965757"><ele>1013.89</ele><time>2026-06-25T19:30:37.000Z</time></trkpt>
        <trkpt lat="28.0903141" lon="105.1964527"><ele>1005.68</ele><time>2026-06-25T19:30:45.000Z</time></trkpt>
        <trkpt lat="28.0903111" lon="105.196321"><ele>998.47</ele><time>2026-06-25T19:30:57.000Z</time></trkpt>
        <trkpt lat="28.0903457" lon="105.1962109"><ele>990.99</ele><time>2026-06-25T19:31:03.000Z</time></trkpt>
        <trkpt lat="28.0903502" lon="105.1960953"><ele>985.47</ele><time>2026-06-25T19:31:09.000Z</time></trkpt>
        <trkpt lat="28.0903806" lon="105.195983"><ele>981.65</ele><time>2026-06-25T19:31:15.000Z</time></trkpt>
        <trkpt lat="28.0904762" lon="105.1959446"><ele>977.08</ele><time>2026-06-25T19:31:21.000Z</time></trkpt>
        <trkpt lat="28.0905072" lon="105.1958565"><ele>973.76</ele><time>2026-06-25T19:31:37.000Z</time></trkpt>
        <trkpt lat="28.0905505" lon="105.1957682"><ele>968</ele><time>2026-06-25T19:31:45.000Z</time></trkpt>
        <trkpt lat="28.0906306" lon="105.195688"><ele>962.55</ele><time>2026-06-25T19:31:51.000Z</time></trkpt>
        <trkpt lat="28.0907512" lon="105.195682"><ele>958.16</ele><time>2026-06-25T19:32:05.000Z</time></trkpt>
        <trkpt lat="28.0908568" lon="105.1956155"><ele>950.27</ele><time>2026-06-25T19:32:11.000Z</time></trkpt>
        <trkpt lat="28.0909291" lon="105.1955303"><ele>944.58</ele><time>2026-06-25T19:32:17.000Z</time></trkpt>
        <trkpt lat="28.0909776" lon="105.1954322"><ele>939.44</ele><time>2026-06-25T19:32:23.000Z</time></trkpt>
        <trkpt lat="28.0909472" lon="105.1952993"><ele>933.81</ele><time>2026-06-25T19:32:29.000Z</time></trkpt>
        <trkpt lat="28.090893" lon="105.1951728"><ele>929.03</ele><time>2026-06-25T19:32:35.000Z</time></trkpt>
        <trkpt lat="28.0908745" lon="105.1950623"><ele>924.67</ele><time>2026-06-25T19:32:39.000Z</time></trkpt>
        <trkpt lat="28.0908976" lon="105.1949622"><ele>922.65</ele><time>2026-06-25T19:32:47.000Z</time></trkpt>
        <trkpt lat="28.0908822" lon="105.1948453"><ele>917.92</ele><time>2026-06-25T19:32:57.000Z</time></trkpt>
        <trkpt lat="28.0908647" lon="105.1947314"><ele>913.11</ele><time>2026-06-25T19:33:03.000Z</time></trkpt>
        <trkpt lat="28.0908538" lon="105.1946232"><ele>908.92</ele><time>2026-06-25T19:33:11.000Z</time></trkpt>
        <trkpt lat="28.0907842" lon="105.1945658"><ele>904.62</ele><time>2026-06-25T19:33:23.000Z</time></trkpt>
        <trkpt lat="28.0907894" lon="105.1944746"><ele>900.28</ele><time>2026-06-25T19:33:37.000Z</time></trkpt>
        <trkpt lat="28.0907867" lon="105.194371"><ele>893.64</ele><time>2026-06-25T19:33:47.000Z</time></trkpt>
        <trkpt lat="28.0908417" lon="105.1942821"><ele>888.53</ele><time>2026-06-25T19:33:57.000Z</time></trkpt>
        <trkpt lat="28.0908669" lon="105.1941761"><ele>883.79</ele><time>2026-06-25T19:34:05.000Z</time></trkpt>
        <trkpt lat="28.0908831" lon="105.1940663"><ele>881.39</ele><time>2026-06-25T19:34:13.000Z</time></trkpt>
        <trkpt lat="28.090952" lon="105.1940122"><ele>879.84</ele><time>2026-06-25T19:34:21.000Z</time></trkpt>
        <trkpt lat="28.0910464" lon="105.1939873"><ele>877.61</ele><time>2026-06-25T19:34:29.000Z</time></trkpt>
        <trkpt lat="28.0911439" lon="105.1939528"><ele>876.3</ele><time>2026-06-25T19:34:39.000Z</time></trkpt>
        <trkpt lat="28.0912165" lon="105.1938734"><ele>873.54</ele><time>2026-06-25T19:34:51.000Z</time></trkpt>
        <trkpt lat="28.0912327" lon="105.1938025"><ele>867.1</ele><time>2026-06-25T19:35:01.000Z</time></trkpt>
        <trkpt lat="28.0913025" lon="105.1937607"><ele>862.89</ele><time>2026-06-25T19:35:45.000Z</time></trkpt>
        <trkpt lat="28.091408" lon="105.1937334"><ele>858.53</ele><time>2026-06-25T19:35:49.000Z</time></trkpt>
        <trkpt lat="28.0915073" lon="105.1936442"><ele>854.73</ele><time>2026-06-25T19:35:53.000Z</time></trkpt>
        <trkpt lat="28.0915959" lon="105.1935578"><ele>853.05</ele><time>2026-06-25T19:35:57.000Z</time></trkpt>
        <trkpt lat="28.0916916" lon="105.1935372"><ele>851.84</ele><time>2026-06-25T19:36:01.000Z</time></trkpt>
        <trkpt lat="28.0917647" lon="105.1936178"><ele>852.11</ele><time>2026-06-25T19:36:09.000Z</time></trkpt>
        <trkpt lat="28.0918098" lon="105.1936733"><ele>851.16</ele><time>2026-06-25T19:36:17.000Z</time></trkpt>
        <trkpt lat="28.0918065" lon="105.1938287"><ele>849.77</ele><time>2026-06-25T19:37:29.000Z</time></trkpt>
        <trkpt lat="28.0918546" lon="105.1939254"><ele>847.94</ele><time>2026-06-25T19:37:31.000Z</time></trkpt>
        <trkpt lat="28.0919238" lon="105.1940073"><ele>846.34</ele><time>2026-06-25T19:37:33.000Z</time></trkpt>
        <trkpt lat="28.0920125" lon="105.1940844"><ele>845.27</ele><time>2026-06-25T19:37:35.000Z</time></trkpt>
        <trkpt lat="28.0921158" lon="105.19416"><ele>844.58</ele><time>2026-06-25T19:37:37.000Z</time></trkpt>
        <trkpt lat="28.0922232" lon="105.194235"><ele>843.71</ele><time>2026-06-25T19:37:39.000Z</time></trkpt>
        <trkpt lat="28.0923157" lon="105.1943115"><ele>842.94</ele><time>2026-06-25T19:37:41.000Z</time></trkpt>
        <trkpt lat="28.0923904" lon="105.1943793"><ele>842.46</ele><time>2026-06-25T19:37:43.000Z</time></trkpt>
        <trkpt lat="28.0924938" lon="105.1943765"><ele>842.25</ele><time>2026-06-25T19:37:47.000Z</time></trkpt>
        <trkpt lat="28.0925924" lon="105.1942658"><ele>842.13</ele><time>2026-06-25T19:37:51.000Z</time></trkpt>
        <trkpt lat="28.0926772" lon="105.1941455"><ele>842.28</ele><time>2026-06-25T19:37:53.000Z</time></trkpt>
        <trkpt lat="28.0927661" lon="105.1940287"><ele>842.79</ele><time>2026-06-25T19:37:55.000Z</time></trkpt>
        <trkpt lat="28.0928689" lon="105.1939213"><ele>843.66</ele><time>2026-06-25T19:37:57.000Z</time></trkpt>
        <trkpt lat="28.0929852" lon="105.1938228"><ele>844.52</ele><time>2026-06-25T19:37:59.000Z</time></trkpt>
        <trkpt lat="28.093112" lon="105.1937285"><ele>845.33</ele><time>2026-06-25T19:38:01.000Z</time></trkpt>
        <trkpt lat="28.0932461" lon="105.1936279"><ele>846.08</ele><time>2026-06-25T19:38:03.000Z</time></trkpt>
        <trkpt lat="28.0933743" lon="105.1935177"><ele>847.15</ele><time>2026-06-25T19:38:05.000Z</time></trkpt>
        <trkpt lat="28.0934785" lon="105.1934116"><ele>848.57</ele><time>2026-06-25T19:38:07.000Z</time></trkpt>
        <trkpt lat="28.0935664" lon="105.1933194"><ele>850.15</ele><time>2026-06-25T19:38:09.000Z</time></trkpt>
        <trkpt lat="28.0937068" lon="105.1933103"><ele>851.6</ele><time>2026-06-25T19:38:13.000Z</time></trkpt>
        <trkpt lat="28.093754" lon="105.1934384"><ele>852.33</ele><time>2026-06-25T19:38:17.000Z</time></trkpt>
        <trkpt lat="28.0937329" lon="105.1935741"><ele>852.73</ele><time>2026-06-25T19:38:19.000Z</time></trkpt>
        <trkpt lat="28.0937505" lon="105.1937771"><ele>852.63</ele><time>2026-06-25T19:38:23.000Z</time></trkpt>
        <trkpt lat="28.0938609" lon="105.1938297"><ele>852.44</ele><time>2026-06-25T19:38:25.000Z</time></trkpt>
        <trkpt lat="28.0940053" lon="105.1937996"><ele>851.71</ele><time>2026-06-25T19:38:27.000Z</time></trkpt>
        <trkpt lat="28.0941447" lon="105.1937651"><ele>850.79</ele><time>2026-06-25T19:38:29.000Z</time></trkpt>
        <trkpt lat="28.0942747" lon="105.1937707"><ele>850.53</ele><time>2026-06-25T19:38:31.000Z</time></trkpt>
        <trkpt lat="28.0943754" lon="105.1938353"><ele>849.6</ele><time>2026-06-25T19:38:33.000Z</time></trkpt>
        <trkpt lat="28.0943817" lon="105.1939482"><ele>848.68</ele><time>2026-06-25T19:38:35.000Z</time></trkpt>
        <trkpt lat="28.0943895" lon="105.1941641"><ele>847.89</ele><time>2026-06-25T19:38:39.000Z</time></trkpt>
        <trkpt lat="28.0944436" lon="105.1943032"><ele>846.01</ele><time>2026-06-25T19:38:41.000Z</time></trkpt>
        <trkpt lat="28.0945448" lon="105.1944358"><ele>845.13</ele><time>2026-06-25T19:38:43.000Z</time></trkpt>
        <trkpt lat="28.0946349" lon="105.1945739"><ele>843.63</ele><time>2026-06-25T19:38:45.000Z</time></trkpt>
        <trkpt lat="28.0947216" lon="105.1947409"><ele>841.8</ele><time>2026-06-25T19:38:47.000Z</time></trkpt>
        <trkpt lat="28.0948361" lon="105.1948887"><ele>839.59</ele><time>2026-06-25T19:38:49.000Z</time></trkpt>
        <trkpt lat="28.0949735" lon="105.1949769"><ele>838.44</ele><time>2026-06-25T19:38:51.000Z</time></trkpt>
        <trkpt lat="28.0951069" lon="105.1950233"><ele>837.9</ele><time>2026-06-25T19:38:53.000Z</time></trkpt>
        <trkpt lat="28.0952311" lon="105.195035"><ele>838.21</ele><time>2026-06-25T19:38:55.000Z</time></trkpt>
        <trkpt lat="28.095344" lon="105.1950067"><ele>838.12</ele><time>2026-06-25T19:38:57.000Z</time></trkpt>
        <trkpt lat="28.0954404" lon="105.1950132"><ele>838.21</ele><time>2026-06-25T19:38:59.000Z</time></trkpt>
        <trkpt lat="28.0955536" lon="105.195148"><ele>837.95</ele><time>2026-06-25T19:39:03.000Z</time></trkpt>
        <trkpt lat="28.0956561" lon="105.1952204"><ele>837.45</ele><time>2026-06-25T19:39:05.000Z</time></trkpt>
        <trkpt lat="28.0957498" lon="105.1952648"><ele>837.31</ele><time>2026-06-25T19:39:07.000Z</time></trkpt>
        <trkpt lat="28.0958128" lon="105.195413"><ele>837.44</ele><time>2026-06-25T19:39:11.000Z</time></trkpt>
        <trkpt lat="28.0958299" lon="105.1955557"><ele>836.9</ele><time>2026-06-25T19:39:13.000Z</time></trkpt>
        <trkpt lat="28.0958559" lon="105.1957028"><ele>836.94</ele><time>2026-06-25T19:39:15.000Z</time></trkpt>
        <trkpt lat="28.0958999" lon="105.1958447"><ele>837.02</ele><time>2026-06-25T19:39:17.000Z</time></trkpt>
        <trkpt lat="28.0959536" lon="105.1959735"><ele>836.65</ele><time>2026-06-25T19:39:19.000Z</time></trkpt>
        <trkpt lat="28.0959859" lon="105.1960894"><ele>836.18</ele><time>2026-06-25T19:39:21.000Z</time></trkpt>
        <trkpt lat="28.0959672" lon="105.1962003"><ele>836.44</ele><time>2026-06-25T19:39:23.000Z</time></trkpt>
        <trkpt lat="28.0959472" lon="105.1963211"><ele>836.17</ele><time>2026-06-25T19:39:25.000Z</time></trkpt>
        <trkpt lat="28.0959656" lon="105.1964455"><ele>835.66</ele><time>2026-06-25T19:39:27.000Z</time></trkpt>
        <trkpt lat="28.0960287" lon="105.1965469"><ele>835.25</ele><time>2026-06-25T19:39:29.000Z</time></trkpt>
        <trkpt lat="28.0961272" lon="105.1966057"><ele>834.89</ele><time>2026-06-25T19:39:31.000Z</time></trkpt>
        <trkpt lat="28.0962425" lon="105.1966552"><ele>835.33</ele><time>2026-06-25T19:39:33.000Z</time></trkpt>
        <trkpt lat="28.0963589" lon="105.1966866"><ele>836.03</ele><time>2026-06-25T19:39:35.000Z</time></trkpt>
        <trkpt lat="28.0964873" lon="105.1966756"><ele>836.27</ele><time>2026-06-25T19:39:37.000Z</time></trkpt>
        <trkpt lat="28.0966162" lon="105.1966359"><ele>836.94</ele><time>2026-06-25T19:39:39.000Z</time></trkpt>
        <trkpt lat="28.0967526" lon="105.1966036"><ele>837.77</ele><time>2026-06-25T19:39:41.000Z</time></trkpt>
        <trkpt lat="28.0969008" lon="105.1965694"><ele>838.73</ele><time>2026-06-25T19:39:43.000Z</time></trkpt>
        <trkpt lat="28.0970533" lon="105.1965378"><ele>839.98</ele><time>2026-06-25T19:39:45.000Z</time></trkpt>
        <trkpt lat="28.0971924" lon="105.1965089"><ele>841.52</ele><time>2026-06-25T19:39:47.000Z</time></trkpt>
        <trkpt lat="28.0973138" lon="105.1964544"><ele>842.83</ele><time>2026-06-25T19:39:49.000Z</time></trkpt>
        <trkpt lat="28.0974136" lon="105.1963915"><ele>844.14</ele><time>2026-06-25T19:39:51.000Z</time></trkpt>
        <trkpt lat="28.0975135" lon="105.1963936"><ele>844.79</ele><time>2026-06-25T19:39:53.000Z</time></trkpt>
        <trkpt lat="28.0975624" lon="105.1964805"><ele>845.21</ele><time>2026-06-25T19:39:55.000Z</time></trkpt>
        <trkpt lat="28.0976083" lon="105.1966292"><ele>845.4</ele><time>2026-06-25T19:39:57.000Z</time></trkpt>
        <trkpt lat="28.0976627" lon="105.1967866"><ele>845.71</ele><time>2026-06-25T19:39:59.000Z</time></trkpt>
        <trkpt lat="28.097699" lon="105.1969305"><ele>846.04</ele><time>2026-06-25T19:40:01.000Z</time></trkpt>
        <trkpt lat="28.097699" lon="105.1970536"><ele>846.49</ele><time>2026-06-25T19:40:03.000Z</time></trkpt>
        <trkpt lat="28.0976795" lon="105.1971766"><ele>846.84</ele><time>2026-06-25T19:40:05.000Z</time></trkpt>
        <trkpt lat="28.0976667" lon="105.1973038"><ele>846.98</ele><time>2026-06-25T19:40:07.000Z</time></trkpt>
        <trkpt lat="28.0976763" lon="105.1974673"><ele>846.99</ele><time>2026-06-25T19:40:09.000Z</time></trkpt>
        <trkpt lat="28.0976943" lon="105.1976443"><ele>846.79</ele><time>2026-06-25T19:40:11.000Z</time></trkpt>
        <trkpt lat="28.0977458" lon="105.1978011"><ele>847.03</ele><time>2026-06-25T19:40:13.000Z</time></trkpt>
        <trkpt lat="28.0978436" lon="105.1979162"><ele>847.4</ele><time>2026-06-25T19:40:15.000Z</time></trkpt>
        <trkpt lat="28.0979558" lon="105.1979765"><ele>848.17</ele><time>2026-06-25T19:40:17.000Z</time></trkpt>
        <trkpt lat="28.0980195" lon="105.1980686"><ele>847.97</ele><time>2026-06-25T19:40:19.000Z</time></trkpt>
        <trkpt lat="28.0980239" lon="105.198215"><ele>847.33</ele><time>2026-06-25T19:40:21.000Z</time></trkpt>
        <trkpt lat="28.0979991" lon="105.1983964"><ele>846.18</ele><time>2026-06-25T19:40:23.000Z</time></trkpt>
        <trkpt lat="28.0979615" lon="105.1985768"><ele>844.73</ele><time>2026-06-25T19:40:25.000Z</time></trkpt>
        <trkpt lat="28.0979198" lon="105.1987386"><ele>842.95</ele><time>2026-06-25T19:40:27.000Z</time></trkpt>
        <trkpt lat="28.0978479" lon="105.1988667"><ele>840.95</ele><time>2026-06-25T19:40:29.000Z</time></trkpt>
        <trkpt lat="28.0977371" lon="105.1989983"><ele>838.65</ele><time>2026-06-25T19:40:31.000Z</time></trkpt>
        <trkpt lat="28.0976309" lon="105.1991495"><ele>836.57</ele><time>2026-06-25T19:40:33.000Z</time></trkpt>
        <trkpt lat="28.0975594" lon="105.1993162"><ele>834.98</ele><time>2026-06-25T19:40:35.000Z</time></trkpt>
        <trkpt lat="28.0975113" lon="105.1994652"><ele>833.57</ele><time>2026-06-25T19:40:37.000Z</time></trkpt>
        <trkpt lat="28.0974823" lon="105.199603"><ele>832.22</ele><time>2026-06-25T19:40:39.000Z</time></trkpt>
        <trkpt lat="28.0974852" lon="105.1997145"><ele>830.39</ele><time>2026-06-25T19:40:41.000Z</time></trkpt>
        <trkpt lat="28.097547" lon="105.1998312"><ele>828.76</ele><time>2026-06-25T19:40:45.000Z</time></trkpt>
        <trkpt lat="28.0976195" lon="105.1999238"><ele>827.55</ele><time>2026-06-25T19:40:59.000Z</time></trkpt>
        <trkpt lat="28.0977649" lon="105.1999945"><ele>826.48</ele><time>2026-06-25T19:41:05.000Z</time></trkpt>
        <trkpt lat="28.0979166" lon="105.1999757"><ele>826.09</ele><time>2026-06-25T19:41:09.000Z</time></trkpt>
        <trkpt lat="28.0980066" lon="105.1999892"><ele>826.73</ele><time>2026-06-25T19:41:15.000Z</time></trkpt>
        <trkpt lat="28.0980501" lon="105.2000653"><ele>827.72</ele><time>2026-06-25T19:41:33.000Z</time></trkpt>
        <trkpt lat="28.0980882" lon="105.2001894"><ele>827.81</ele><time>2026-06-25T19:41:39.000Z</time></trkpt>
        <trkpt lat="28.098141" lon="105.200331"><ele>827.76</ele><time>2026-06-25T19:41:43.000Z</time></trkpt>
        <trkpt lat="28.0981952" lon="105.200456"><ele>828.14</ele><time>2026-06-25T19:41:47.000Z</time></trkpt>
        <trkpt lat="28.098267" lon="105.2006192"><ele>828.34</ele><time>2026-06-25T19:41:51.000Z</time></trkpt>
        <trkpt lat="28.0983585" lon="105.2006885"><ele>827.56</ele><time>2026-06-25T19:41:53.000Z</time></trkpt>
        <trkpt lat="28.0984593" lon="105.200674"><ele>827.06</ele><time>2026-06-25T19:41:55.000Z</time></trkpt>
        <trkpt lat="28.0985662" lon="105.2005996"><ele>826.28</ele><time>2026-06-25T19:41:57.000Z</time></trkpt>
        <trkpt lat="28.0986861" lon="105.2004851"><ele>825.36</ele><time>2026-06-25T19:41:59.000Z</time></trkpt>
        <trkpt lat="28.0988229" lon="105.2003502"><ele>823.71</ele><time>2026-06-25T19:42:01.000Z</time></trkpt>
        <trkpt lat="28.0989454" lon="105.2002156"><ele>822.25</ele><time>2026-06-25T19:42:03.000Z</time></trkpt>
        <trkpt lat="28.0990565" lon="105.2000816"><ele>820.98</ele><time>2026-06-25T19:42:05.000Z</time></trkpt>
        <trkpt lat="28.0991591" lon="105.1999549"><ele>820.04</ele><time>2026-06-25T19:42:07.000Z</time></trkpt>
        <trkpt lat="28.0992698" lon="105.1998503"><ele>819.4</ele><time>2026-06-25T19:42:09.000Z</time></trkpt>
        <trkpt lat="28.0993927" lon="105.1998081"><ele>818.91</ele><time>2026-06-25T19:42:11.000Z</time></trkpt>
        <trkpt lat="28.0995248" lon="105.1998282"><ele>818.4</ele><time>2026-06-25T19:42:13.000Z</time></trkpt>
        <trkpt lat="28.0996567" lon="105.1998483"><ele>817.51</ele><time>2026-06-25T19:42:15.000Z</time></trkpt>
        <trkpt lat="28.0997649" lon="105.1998074"><ele>816.63</ele><time>2026-06-25T19:42:17.000Z</time></trkpt>
        <trkpt lat="28.0998473" lon="105.1997379"><ele>816.05</ele><time>2026-06-25T19:42:19.000Z</time></trkpt>
        <trkpt lat="28.0999607" lon="105.1996793"><ele>815.45</ele><time>2026-06-25T19:42:23.000Z</time></trkpt>
        <trkpt lat="28.0999991" lon="105.1996551"><ele>814.9</ele><time>2026-06-25T19:42:27.000Z</time></trkpt>
        <trkpt lat="28.1000702" lon="105.1996031"><ele>814.93</ele><time>2026-06-25T19:44:31.000Z</time></trkpt>
        <trkpt lat="28.1001674" lon="105.1995948"><ele>814.33</ele><time>2026-06-25T19:44:35.000Z</time></trkpt>
        <trkpt lat="28.1002545" lon="105.1995485"><ele>813.42</ele><time>2026-06-25T19:44:39.000Z</time></trkpt>
        <trkpt lat="28.1003517" lon="105.1994833"><ele>812.68</ele><time>2026-06-25T19:44:43.000Z</time></trkpt>
        <trkpt lat="28.1004544" lon="105.1994217"><ele>811.28</ele><time>2026-06-25T19:44:47.000Z</time></trkpt>
        <trkpt lat="28.1005661" lon="105.1993555"><ele>810.13</ele><time>2026-06-25T19:44:51.000Z</time></trkpt>
        <trkpt lat="28.1006753" lon="105.1993086"><ele>809.32</ele><time>2026-06-25T19:44:55.000Z</time></trkpt>
        <trkpt lat="28.100774" lon="105.1993279"><ele>809.94</ele><time>2026-06-25T19:44:59.000Z</time></trkpt>
        <trkpt lat="28.100871" lon="105.1994068"><ele>810.6</ele><time>2026-06-25T19:45:03.000Z</time></trkpt>
        <trkpt lat="28.1009501" lon="105.1994896"><ele>810.27</ele><time>2026-06-25T19:45:07.000Z</time></trkpt>
        <trkpt lat="28.1010035" lon="105.1995865"><ele>809.94</ele><time>2026-06-25T19:45:11.000Z</time></trkpt>
        <trkpt lat="28.1010231" lon="105.1996945"><ele>809.47</ele><time>2026-06-25T19:45:15.000Z</time></trkpt>
        <trkpt lat="28.1010454" lon="105.1998068"><ele>808.66</ele><time>2026-06-25T19:45:19.000Z</time></trkpt>
        <trkpt lat="28.1010468" lon="105.1999233"><ele>807.7</ele><time>2026-06-25T19:45:23.000Z</time></trkpt>
        <trkpt lat="28.1010216" lon="105.2000426"><ele>807.38</ele><time>2026-06-25T19:45:27.000Z</time></trkpt>
        <trkpt lat="28.1009951" lon="105.2001675"><ele>806.7</ele><time>2026-06-25T19:45:31.000Z</time></trkpt>
        <trkpt lat="28.100969" lon="105.2002938"><ele>804.93</ele><time>2026-06-25T19:45:35.000Z</time></trkpt>
        <trkpt lat="28.1009711" lon="105.2004123"><ele>803.03</ele><time>2026-06-25T19:45:39.000Z</time></trkpt>
        <trkpt lat="28.1009987" lon="105.2005249"><ele>801.48</ele><time>2026-06-25T19:45:43.000Z</time></trkpt>
        <trkpt lat="28.1010325" lon="105.2006336"><ele>800.38</ele><time>2026-06-25T19:45:47.000Z</time></trkpt>
        <trkpt lat="28.1011238" lon="105.2006613"><ele>799.99</ele><time>2026-06-25T19:45:53.000Z</time></trkpt>
        <trkpt lat="28.1012232" lon="105.2006111"><ele>800.24</ele><time>2026-06-25T19:45:59.000Z</time></trkpt>
        <trkpt lat="28.1013478" lon="105.2005489"><ele>800.9</ele><time>2026-06-25T19:46:05.000Z</time></trkpt>
        <trkpt lat="28.1014546" lon="105.2004914"><ele>801.3</ele><time>2026-06-25T19:46:09.000Z</time></trkpt>
        <trkpt lat="28.1015557" lon="105.2004381"><ele>801.06</ele><time>2026-06-25T19:46:13.000Z</time></trkpt>
        <trkpt lat="28.1016823" lon="105.2004303"><ele>800.38</ele><time>2026-06-25T19:46:17.000Z</time></trkpt>
        <trkpt lat="28.101796" lon="105.2004826"><ele>799.96</ele><time>2026-06-25T19:46:21.000Z</time></trkpt>
        <trkpt lat="28.1018768" lon="105.2005878"><ele>799.12</ele><time>2026-06-25T19:46:25.000Z</time></trkpt>
        <trkpt lat="28.1019446" lon="105.2007192"><ele>798.08</ele><time>2026-06-25T19:46:29.000Z</time></trkpt>
        <trkpt lat="28.1019815" lon="105.2008687"><ele>796.89</ele><time>2026-06-25T19:46:33.000Z</time></trkpt>
        <trkpt lat="28.1020176" lon="105.2010125"><ele>795.43</ele><time>2026-06-25T19:46:37.000Z</time></trkpt>
        <trkpt lat="28.1020829" lon="105.201107"><ele>793.61</ele><time>2026-06-25T19:46:41.000Z</time></trkpt>
        <trkpt lat="28.1021808" lon="105.2011496"><ele>792.06</ele><time>2026-06-25T19:46:51.000Z</time></trkpt>
        <trkpt lat="28.1022906" lon="105.2011413"><ele>790.81</ele><time>2026-06-25T19:46:59.000Z</time></trkpt>
        <trkpt lat="28.1023963" lon="105.2011183"><ele>790.61</ele><time>2026-06-25T19:47:07.000Z</time></trkpt>
        <trkpt lat="28.1024925" lon="105.2010902"><ele>790.69</ele><time>2026-06-25T19:47:15.000Z</time></trkpt>
        <trkpt lat="28.1025886" lon="105.2010619"><ele>791.03</ele><time>2026-06-25T19:47:23.000Z</time></trkpt>
        <trkpt lat="28.1026725" lon="105.20099"><ele>791.5</ele><time>2026-06-25T19:47:31.000Z</time></trkpt>
        <trkpt lat="28.1027302" lon="105.2008898"><ele>791.89</ele><time>2026-06-25T19:47:39.000Z</time></trkpt>
        <trkpt lat="28.1027833" lon="105.200782"><ele>791.75</ele><time>2026-06-25T19:47:47.000Z</time></trkpt>
        <trkpt lat="28.1028595" lon="105.2006939"><ele>791.8</ele><time>2026-06-25T19:47:55.000Z</time></trkpt>
        <trkpt lat="28.1029278" lon="105.2005947"><ele>791.73</ele><time>2026-06-25T19:48:03.000Z</time></trkpt>
        <trkpt lat="28.1029786" lon="105.200496"><ele>791.54</ele><time>2026-06-25T19:48:11.000Z</time></trkpt>
        <trkpt lat="28.1030141" lon="105.2003958"><ele>791.45</ele><time>2026-06-25T19:48:19.000Z</time></trkpt>
        <trkpt lat="28.1030735" lon="105.2003183"><ele>791.64</ele><time>2026-06-25T19:48:27.000Z</time></trkpt>
        <trkpt lat="28.1031635" lon="105.2003065"><ele>791.39</ele><time>2026-06-25T19:48:35.000Z</time></trkpt>
        <trkpt lat="28.1032312" lon="105.2003769"><ele>790.99</ele><time>2026-06-25T19:48:41.000Z</time></trkpt>
        <trkpt lat="28.1032735" lon="105.2004818"><ele>789.99</ele><time>2026-06-25T19:48:45.000Z</time></trkpt>
        <trkpt lat="28.1033116" lon="105.200596"><ele>788.71</ele><time>2026-06-25T19:48:49.000Z</time></trkpt>
        <trkpt lat="28.103375" lon="105.2007192"><ele>787.64</ele><time>2026-06-25T19:48:55.000Z</time></trkpt>
        <trkpt lat="28.1034633" lon="105.2007607"><ele>786.72</ele><time>2026-06-25T19:49:05.000Z</time></trkpt>
        <trkpt lat="28.1035337" lon="105.2007001"><ele>785.4</ele><time>2026-06-25T19:49:17.000Z</time></trkpt>
        <trkpt lat="28.1035915" lon="105.2006064"><ele>785.44</ele><time>2026-06-25T19:49:37.000Z</time></trkpt>
        <trkpt lat="28.1036656" lon="105.2005277"><ele>786.39</ele><time>2026-06-25T19:49:55.000Z</time></trkpt>
        <trkpt lat="28.1037644" lon="105.2004789"><ele>787.14</ele><time>2026-06-25T19:50:05.000Z</time></trkpt>
        <trkpt lat="28.1038528" lon="105.2004321"><ele>788.02</ele><time>2026-06-25T19:50:13.000Z</time></trkpt>
        <trkpt lat="28.1039416" lon="105.2003924"><ele>788.44</ele><time>2026-06-25T19:50:21.000Z</time></trkpt>
        <trkpt lat="28.1040303" lon="105.2003366"><ele>789</ele><time>2026-06-25T19:50:31.000Z</time></trkpt>
        <trkpt lat="28.1041269" lon="105.200286"><ele>788.86</ele><time>2026-06-25T19:50:43.000Z</time></trkpt>
        <trkpt lat="28.1042234" lon="105.2002303"><ele>788.96</ele><time>2026-06-25T19:50:53.000Z</time></trkpt>
        <trkpt lat="28.1042938" lon="105.2001571"><ele>788.36</ele><time>2026-06-25T19:51:01.000Z</time></trkpt>
        <trkpt lat="28.1043523" lon="105.200078"><ele>788.14</ele><time>2026-06-25T19:51:09.000Z</time></trkpt>
        <trkpt lat="28.10443" lon="105.2000398"><ele>787.93</ele><time>2026-06-25T19:51:19.000Z</time></trkpt>
        <trkpt lat="28.1045237" lon="105.2000182"><ele>787.88</ele><time>2026-06-25T19:51:29.000Z</time></trkpt>
        <trkpt lat="28.1046141" lon="105.2000412"><ele>787.84</ele><time>2026-06-25T19:51:37.000Z</time></trkpt>
        <trkpt lat="28.1046918" lon="105.2001146"><ele>788.01</ele><time>2026-06-25T19:51:45.000Z</time></trkpt>
        <trkpt lat="28.1047824" lon="105.2001636"><ele>788.21</ele><time>2026-06-25T19:51:53.000Z</time></trkpt>
        <trkpt lat="28.1048797" lon="105.2001896"><ele>788.45</ele><time>2026-06-25T19:52:01.000Z</time></trkpt>
        <trkpt lat="28.1049627" lon="105.2002597"><ele>788.4</ele><time>2026-06-25T19:52:09.000Z</time></trkpt>
        <trkpt lat="28.1050126" lon="105.2003705"><ele>787.95</ele><time>2026-06-25T19:52:17.000Z</time></trkpt>
        <trkpt lat="28.1050562" lon="105.2004869"><ele>787.13</ele><time>2026-06-25T19:52:25.000Z</time></trkpt>
        <trkpt lat="28.1050705" lon="105.2006032"><ele>786.23</ele><time>2026-06-25T19:52:33.000Z</time></trkpt>
        <trkpt lat="28.1051087" lon="105.2007063"><ele>785.09</ele><time>2026-06-25T19:52:43.000Z</time></trkpt>
        <trkpt lat="28.1051788" lon="105.2007935"><ele>784.46</ele><time>2026-06-25T19:52:53.000Z</time></trkpt>
        <trkpt lat="28.1052672" lon="105.2008532"><ele>783.99</ele><time>2026-06-25T19:53:01.000Z</time></trkpt>
        <trkpt lat="28.1053738" lon="105.2008841"><ele>784.21</ele><time>2026-06-25T19:53:09.000Z</time></trkpt>
        <trkpt lat="28.1054709" lon="105.2008404"><ele>784.36</ele><time>2026-06-25T19:53:17.000Z</time></trkpt>
        <trkpt lat="28.1055531" lon="105.2007464"><ele>784.14</ele><time>2026-06-25T19:53:23.000Z</time></trkpt>
        <trkpt lat="28.1056432" lon="105.2006724"><ele>783.83</ele><time>2026-06-25T19:53:27.000Z</time></trkpt>
        <trkpt lat="28.1057369" lon="105.2006388"><ele>784.18</ele><time>2026-06-25T19:53:31.000Z</time></trkpt>
        <trkpt lat="28.1058344" lon="105.2006112"><ele>785.14</ele><time>2026-06-25T19:53:37.000Z</time></trkpt>
        <trkpt lat="28.1059326" lon="105.2005646"><ele>785.4</ele><time>2026-06-25T19:53:45.000Z</time></trkpt>
        <trkpt lat="28.106043" lon="105.200535"><ele>785.67</ele><time>2026-06-25T19:53:51.000Z</time></trkpt>
        <trkpt lat="28.1061359" lon="105.2005569"><ele>786.81</ele><time>2026-06-25T19:53:57.000Z</time></trkpt>
        <trkpt lat="28.1062286" lon="105.2005781"><ele>787.05</ele><time>2026-06-25T19:54:53.000Z</time></trkpt>
        <trkpt lat="28.1063162" lon="105.2006134"><ele>786.32</ele><time>2026-06-25T19:55:05.000Z</time></trkpt>
        <trkpt lat="28.1063687" lon="105.2005194"><ele>783.74</ele><time>2026-06-25T19:55:11.000Z</time></trkpt>
        <trkpt lat="28.1064144" lon="105.2004095"><ele>782.88</ele><time>2026-06-25T19:55:15.000Z</time></trkpt>
        <trkpt lat="28.1064913" lon="105.2003426"><ele>782.96</ele><time>2026-06-25T19:55:19.000Z</time></trkpt>
        <trkpt lat="28.1065825" lon="105.2003365"><ele>783.71</ele><time>2026-06-25T19:55:23.000Z</time></trkpt>
        <trkpt lat="28.1067022" lon="105.2003332"><ele>784.13</ele><time>2026-06-25T19:55:29.000Z</time></trkpt>
        <trkpt lat="28.106776" lon="105.2002461"><ele>783.15</ele><time>2026-06-25T19:55:35.000Z</time></trkpt>
        <trkpt lat="28.1068019" lon="105.2001145"><ele>783.15</ele><time>2026-06-25T19:55:41.000Z</time></trkpt>
        <trkpt lat="28.1068218" lon="105.1999767"><ele>784.29</ele><time>2026-06-25T19:55:47.000Z</time></trkpt>
        <trkpt lat="28.1068701" lon="105.1998353"><ele>785.12</ele><time>2026-06-25T19:55:53.000Z</time></trkpt>
        <trkpt lat="28.1069597" lon="105.1997227"><ele>785.19</ele><time>2026-06-25T19:55:59.000Z</time></trkpt>
        <trkpt lat="28.107044" lon="105.1996428"><ele>784.22</ele><time>2026-06-25T19:56:03.000Z</time></trkpt>
        <trkpt lat="28.1070934" lon="105.199535"><ele>783.79</ele><time>2026-06-25T19:56:07.000Z</time></trkpt>
        <trkpt lat="28.1071359" lon="105.1994245"><ele>785.18</ele><time>2026-06-25T19:56:11.000Z</time></trkpt>
        <trkpt lat="28.1071778" lon="105.1993204"><ele>786.97</ele><time>2026-06-25T19:56:15.000Z</time></trkpt>
        <trkpt lat="28.1072032" lon="105.1992205"><ele>788.77</ele><time>2026-06-25T19:56:19.000Z</time></trkpt>
        <trkpt lat="28.1072025" lon="105.1990961"><ele>789.07</ele><time>2026-06-25T19:56:23.000Z</time></trkpt>
        <trkpt lat="28.1072613" lon="105.198993"><ele>788.25</ele><time>2026-06-25T19:56:27.000Z</time></trkpt>
        <trkpt lat="28.1073628" lon="105.1989469"><ele>786</ele><time>2026-06-25T19:56:33.000Z</time></trkpt>
        <trkpt lat="28.1074442" lon="105.1988832"><ele>783.89</ele><time>2026-06-25T19:56:41.000Z</time></trkpt>
        <trkpt lat="28.1074911" lon="105.1987675"><ele>783.16</ele><time>2026-06-25T19:56:47.000Z</time></trkpt>
        <trkpt lat="28.1075843" lon="105.1986899"><ele>783.25</ele><time>2026-06-25T19:56:53.000Z</time></trkpt>
        <trkpt lat="28.1076969" lon="105.1986674"><ele>783.28</ele><time>2026-06-25T19:56:57.000Z</time></trkpt>
        <trkpt lat="28.1078066" lon="105.1986345"><ele>782.39</ele><time>2026-06-25T19:57:01.000Z</time></trkpt>
        <trkpt lat="28.1078923" lon="105.1985851"><ele>782.11</ele><time>2026-06-25T19:57:05.000Z</time></trkpt>
        <trkpt lat="28.1080036" lon="105.198533"><ele>783.64</ele><time>2026-06-25T19:57:11.000Z</time></trkpt>
        <trkpt lat="28.1080999" lon="105.1985559"><ele>785.47</ele><time>2026-06-25T19:57:15.000Z</time></trkpt>
        <trkpt lat="28.1081868" lon="105.1986044"><ele>785.32</ele><time>2026-06-25T19:57:19.000Z</time></trkpt>
        <trkpt lat="28.108272" lon="105.1986545"><ele>783.76</ele><time>2026-06-25T19:57:23.000Z</time></trkpt>
        <trkpt lat="28.1083708" lon="105.1986805"><ele>782.68</ele><time>2026-06-25T19:57:27.000Z</time></trkpt>
        <trkpt lat="28.1084743" lon="105.1986695"><ele>781.18</ele><time>2026-06-25T19:57:31.000Z</time></trkpt>
        <trkpt lat="28.108572" lon="105.1986499"><ele>779.83</ele><time>2026-06-25T19:57:35.000Z</time></trkpt>
        <trkpt lat="28.1086706" lon="105.1986307"><ele>778.83</ele><time>2026-06-25T19:57:39.000Z</time></trkpt>
        <trkpt lat="28.1087643" lon="105.198632"><ele>778.33</ele><time>2026-06-25T19:57:43.000Z</time></trkpt>
        <trkpt lat="28.1088532" lon="105.1986637"><ele>777.49</ele><time>2026-06-25T19:57:47.000Z</time></trkpt>
        <trkpt lat="28.1089187" lon="105.1987474"><ele>777.04</ele><time>2026-06-25T19:57:51.000Z</time></trkpt>
        <trkpt lat="28.1089741" lon="105.1988486"><ele>776.33</ele><time>2026-06-25T19:57:55.000Z</time></trkpt>
        <trkpt lat="28.1090284" lon="105.1989436"><ele>775.25</ele><time>2026-06-25T19:57:59.000Z</time></trkpt>
        <trkpt lat="28.1090825" lon="105.1990354"><ele>774.31</ele><time>2026-06-25T19:58:03.000Z</time></trkpt>
        <trkpt lat="28.1091518" lon="105.1991292"><ele>773.96</ele><time>2026-06-25T19:58:07.000Z</time></trkpt>
        <trkpt lat="28.1092479" lon="105.1992028"><ele>774.07</ele><time>2026-06-25T19:58:11.000Z</time></trkpt>
        <trkpt lat="28.1093672" lon="105.1991967"><ele>773.94</ele><time>2026-06-25T19:58:17.000Z</time></trkpt>
        <trkpt lat="28.1094689" lon="105.1991665"><ele>773.28</ele><time>2026-06-25T19:58:21.000Z</time></trkpt>
        <trkpt lat="28.1095623" lon="105.1991272"><ele>773.36</ele><time>2026-06-25T19:58:25.000Z</time></trkpt>
        <trkpt lat="28.1096517" lon="105.1990953"><ele>774.35</ele><time>2026-06-25T19:58:29.000Z</time></trkpt>
        <trkpt lat="28.1097432" lon="105.1990555"><ele>775</ele><time>2026-06-25T19:58:33.000Z</time></trkpt>
        <trkpt lat="28.1098518" lon="105.1989914"><ele>776.69</ele><time>2026-06-25T19:58:39.000Z</time></trkpt>
        <trkpt lat="28.1099719" lon="105.1989539"><ele>777.23</ele><time>2026-06-25T19:58:45.000Z</time></trkpt>
        <trkpt lat="28.1101061" lon="105.1989561"><ele>776.95</ele><time>2026-06-25T19:58:51.000Z</time></trkpt>
        <trkpt lat="28.110234" lon="105.1989556"><ele>775.56</ele><time>2026-06-25T19:58:55.000Z</time></trkpt>
        <trkpt lat="28.1103527" lon="105.1989574"><ele>774.27</ele><time>2026-06-25T19:58:59.000Z</time></trkpt>
        <trkpt lat="28.1104625" lon="105.1989532"><ele>773.92</ele><time>2026-06-25T19:59:03.000Z</time></trkpt>
        <trkpt lat="28.1105715" lon="105.1989468"><ele>774.2</ele><time>2026-06-25T19:59:07.000Z</time></trkpt>
        <trkpt lat="28.1106713" lon="105.1989499"><ele>774.58</ele><time>2026-06-25T19:59:11.000Z</time></trkpt>
        <trkpt lat="28.1107692" lon="105.1989599"><ele>775</ele><time>2026-06-25T19:59:15.000Z</time></trkpt>
        <trkpt lat="28.1108671" lon="105.198977"><ele>774.75</ele><time>2026-06-25T19:59:19.000Z</time></trkpt>
        <trkpt lat="28.110943" lon="105.1990515"><ele>774.4</ele><time>2026-06-25T19:59:23.000Z</time></trkpt>
        <trkpt lat="28.1110121" lon="105.1991334"><ele>774.06</ele><time>2026-06-25T19:59:27.000Z</time></trkpt>
        <trkpt lat="28.1110982" lon="105.1991801"><ele>774</ele><time>2026-06-25T19:59:31.000Z</time></trkpt>
        <trkpt lat="28.1111936" lon="105.1991896"><ele>774.35</ele><time>2026-06-25T19:59:35.000Z</time></trkpt>
        <trkpt lat="28.1112828" lon="105.1991617"><ele>774.87</ele><time>2026-06-25T19:59:39.000Z</time></trkpt>
        <trkpt lat="28.1113511" lon="105.1990819"><ele>774.7</ele><time>2026-06-25T19:59:43.000Z</time></trkpt>
        <trkpt lat="28.1114171" lon="105.1989882"><ele>774.19</ele><time>2026-06-25T19:59:47.000Z</time></trkpt>
        <trkpt lat="28.1114932" lon="105.1989035"><ele>772.76</ele><time>2026-06-25T19:59:51.000Z</time></trkpt>
        <trkpt lat="28.1115877" lon="105.198836"><ele>771.17</ele><time>2026-06-25T19:59:55.000Z</time></trkpt>
        <trkpt lat="28.1116901" lon="105.1988174"><ele>769.34</ele><time>2026-06-25T19:59:59.000Z</time></trkpt>
        <trkpt lat="28.1117699" lon="105.1989259"><ele>769.06</ele><time>2026-06-25T20:00:05.000Z</time></trkpt>
        <trkpt lat="28.1118307" lon="105.1990509"><ele>770.01</ele><time>2026-06-25T20:00:09.000Z</time></trkpt>
        <trkpt lat="28.1118925" lon="105.1991785"><ele>770.26</ele><time>2026-06-25T20:00:13.000Z</time></trkpt>
        <trkpt lat="28.1119515" lon="105.1993008"><ele>770.03</ele><time>2026-06-25T20:00:17.000Z</time></trkpt>
        <trkpt lat="28.1119846" lon="105.199426"><ele>769.51</ele><time>2026-06-25T20:00:21.000Z</time></trkpt>
        <trkpt lat="28.1120011" lon="105.19955"><ele>768.93</ele><time>2026-06-25T20:00:25.000Z</time></trkpt>
        <trkpt lat="28.1120313" lon="105.1996644"><ele>768.19</ele><time>2026-06-25T20:00:29.000Z</time></trkpt>
        <trkpt lat="28.1120816" lon="105.1997692"><ele>766.58</ele><time>2026-06-25T20:00:33.000Z</time></trkpt>
        <trkpt lat="28.1121408" lon="105.199879"><ele>764.67</ele><time>2026-06-25T20:00:37.000Z</time></trkpt>
        <trkpt lat="28.1121945" lon="105.2000059"><ele>762.78</ele><time>2026-06-25T20:00:41.000Z</time></trkpt>
        <trkpt lat="28.1122247" lon="105.2001424"><ele>760.72</ele><time>2026-06-25T20:00:45.000Z</time></trkpt>
        <trkpt lat="28.1122383" lon="105.2002792"><ele>758.78</ele><time>2026-06-25T20:00:49.000Z</time></trkpt>
        <trkpt lat="28.1122579" lon="105.2004194"><ele>756.35</ele><time>2026-06-25T20:00:53.000Z</time></trkpt>
        <trkpt lat="28.1123134" lon="105.2005454"><ele>754.74</ele><time>2026-06-25T20:00:57.000Z</time></trkpt>
        <trkpt lat="28.1124" lon="105.2006511"><ele>753.09</ele><time>2026-06-25T20:01:01.000Z</time></trkpt>
        <trkpt lat="28.11246" lon="105.2007753"><ele>752.04</ele><time>2026-06-25T20:01:05.000Z</time></trkpt>
        <trkpt lat="28.1124899" lon="105.2009116"><ele>751.26</ele><time>2026-06-25T20:01:09.000Z</time></trkpt>
        <trkpt lat="28.1124912" lon="105.2010538"><ele>749.5</ele><time>2026-06-25T20:01:13.000Z</time></trkpt>
        <trkpt lat="28.1124557" lon="105.2011908"><ele>748.03</ele><time>2026-06-25T20:01:17.000Z</time></trkpt>
        <trkpt lat="28.1124129" lon="105.2013322"><ele>745.71</ele><time>2026-06-25T20:01:21.000Z</time></trkpt>
        <trkpt lat="28.1124187" lon="105.2014762"><ele>742.87</ele><time>2026-06-25T20:01:25.000Z</time></trkpt>
        <trkpt lat="28.1124567" lon="105.2016014"><ele>741.46</ele><time>2026-06-25T20:01:29.000Z</time></trkpt>
        <trkpt lat="28.1125202" lon="105.2017287"><ele>739.42</ele><time>2026-06-25T20:01:33.000Z</time></trkpt>
        <trkpt lat="28.1125973" lon="105.2018535"><ele>737.04</ele><time>2026-06-25T20:01:37.000Z</time></trkpt>
        <trkpt lat="28.1126635" lon="105.2019888"><ele>734.52</ele><time>2026-06-25T20:01:41.000Z</time></trkpt>
        <trkpt lat="28.1127252" lon="105.2021258"><ele>732.28</ele><time>2026-06-25T20:01:45.000Z</time></trkpt>
        <trkpt lat="28.1127727" lon="105.2022748"><ele>729.62</ele><time>2026-06-25T20:01:49.000Z</time></trkpt>
        <trkpt lat="28.1128139" lon="105.2024223"><ele>727.17</ele><time>2026-06-25T20:01:53.000Z</time></trkpt>
        <trkpt lat="28.1128908" lon="105.2025449"><ele>724.1</ele><time>2026-06-25T20:01:57.000Z</time></trkpt>
        <trkpt lat="28.11299" lon="105.2026381"><ele>722.11</ele><time>2026-06-25T20:02:01.000Z</time></trkpt>
        <trkpt lat="28.1130572" lon="105.2027587"><ele>721.72</ele><time>2026-06-25T20:02:05.000Z</time></trkpt>
        <trkpt lat="28.1130636" lon="105.2028766"><ele>724.53</ele><time>2026-06-25T20:02:13.000Z</time></trkpt>
        <trkpt lat="28.1130406" lon="105.2028992"><ele>728.03</ele><time>2026-06-25T20:02:17.000Z</time></trkpt>
        <trkpt lat="28.1129564" lon="105.2029213"><ele>729.86</ele><time>2026-06-25T20:02:47.000Z</time></trkpt>
        <trkpt lat="28.1128525" lon="105.2029105"><ele>729.86</ele><time>2026-06-25T20:02:55.000Z</time></trkpt>
        <trkpt lat="28.1127334" lon="105.202835"><ele>728.29</ele><time>2026-06-25T20:03:01.000Z</time></trkpt>
        <trkpt lat="28.1126083" lon="105.2027988"><ele>724.73</ele><time>2026-06-25T20:03:05.000Z</time></trkpt>
        <trkpt lat="28.1124861" lon="105.2027987"><ele>722.02</ele><time>2026-06-25T20:03:09.000Z</time></trkpt>
        <trkpt lat="28.1123689" lon="105.2028132"><ele>719.24</ele><time>2026-06-25T20:03:13.000Z</time></trkpt>
        <trkpt lat="28.1122526" lon="105.2028728"><ele>715.51</ele><time>2026-06-25T20:03:17.000Z</time></trkpt>
        <trkpt lat="28.112125" lon="105.2029378"><ele>711.5</ele><time>2026-06-25T20:03:21.000Z</time></trkpt>
        <trkpt lat="28.1120007" lon="105.2029558"><ele>709.28</ele><time>2026-06-25T20:03:25.000Z</time></trkpt>
        <trkpt lat="28.111872" lon="105.2029593"><ele>706.92</ele><time>2026-06-25T20:03:29.000Z</time></trkpt>
        <trkpt lat="28.1117404" lon="105.2029754"><ele>704.74</ele><time>2026-06-25T20:03:33.000Z</time></trkpt>
        <trkpt lat="28.1116479" lon="105.2031234"><ele>704.53</ele><time>2026-06-25T20:03:37.000Z</time></trkpt>
        <trkpt lat="28.1116402" lon="105.2032527"><ele>705.26</ele><time>2026-06-25T20:03:39.000Z</time></trkpt>
        <trkpt lat="28.1116348" lon="105.2034189"><ele>706.04</ele><time>2026-06-25T20:03:43.000Z</time></trkpt>
        <trkpt lat="28.111619" lon="105.2035809"><ele>706.2</ele><time>2026-06-25T20:03:47.000Z</time></trkpt>
        <trkpt lat="28.111572" lon="105.2037292"><ele>706.15</ele><time>2026-06-25T20:03:51.000Z</time></trkpt>
        <trkpt lat="28.1114954" lon="105.2038443"><ele>706.11</ele><time>2026-06-25T20:03:55.000Z</time></trkpt>
        <trkpt lat="28.1114132" lon="105.2039467"><ele>706.89</ele><time>2026-06-25T20:03:59.000Z</time></trkpt>
        <trkpt lat="28.1113242" lon="105.2040283"><ele>707.83</ele><time>2026-06-25T20:04:03.000Z</time></trkpt>
        <trkpt lat="28.1112469" lon="105.2041119"><ele>708.46</ele><time>2026-06-25T20:04:07.000Z</time></trkpt>
        <trkpt lat="28.1111604" lon="105.2041929"><ele>708.59</ele><time>2026-06-25T20:04:11.000Z</time></trkpt>
        <trkpt lat="28.1110647" lon="105.2042638"><ele>707.93</ele><time>2026-06-25T20:04:15.000Z</time></trkpt>
        <trkpt lat="28.1110194" lon="105.204376"><ele>707.54</ele><time>2026-06-25T20:04:19.000Z</time></trkpt>
        <trkpt lat="28.1110184" lon="105.204501"><ele>706.56</ele><time>2026-06-25T20:04:23.000Z</time></trkpt>
        <trkpt lat="28.1110194" lon="105.2046415"><ele>705.04</ele><time>2026-06-25T20:04:27.000Z</time></trkpt>
        <trkpt lat="28.1110083" lon="105.2047863"><ele>704.34</ele><time>2026-06-25T20:04:31.000Z</time></trkpt>
        <trkpt lat="28.1109623" lon="105.2049127"><ele>704.36</ele><time>2026-06-25T20:04:35.000Z</time></trkpt>
        <trkpt lat="28.1108916" lon="105.2050282"><ele>703.78</ele><time>2026-06-25T20:04:39.000Z</time></trkpt>
        <trkpt lat="28.1107904" lon="105.2051136"><ele>702.29</ele><time>2026-06-25T20:04:43.000Z</time></trkpt>
        <trkpt lat="28.1106837" lon="105.2051872"><ele>700.77</ele><time>2026-06-25T20:04:47.000Z</time></trkpt>
        <trkpt lat="28.1105744" lon="105.2052589"><ele>700</ele><time>2026-06-25T20:04:51.000Z</time></trkpt>
        <trkpt lat="28.1104911" lon="105.2053383"><ele>699.49</ele><time>2026-06-25T20:04:55.000Z</time></trkpt>
        <trkpt lat="28.1103996" lon="105.2054377"><ele>698.69</ele><time>2026-06-25T20:04:59.000Z</time></trkpt>
        <trkpt lat="28.1103101" lon="105.2055185"><ele>697.81</ele><time>2026-06-25T20:05:03.000Z</time></trkpt>
        <trkpt lat="28.1102127" lon="105.2055551"><ele>696.97</ele><time>2026-06-25T20:05:07.000Z</time></trkpt>
        <trkpt lat="28.1101057" lon="105.2055975"><ele>695.52</ele><time>2026-06-25T20:05:11.000Z</time></trkpt>
        <trkpt lat="28.110048" lon="105.205731"><ele>693.4</ele><time>2026-06-25T20:05:15.000Z</time></trkpt>
        <trkpt lat="28.1100454" lon="105.2058806"><ele>692.2</ele><time>2026-06-25T20:05:19.000Z</time></trkpt>
        <trkpt lat="28.1100727" lon="105.2060328"><ele>690.68</ele><time>2026-06-25T20:05:23.000Z</time></trkpt>
        <trkpt lat="28.1101505" lon="105.2061872"><ele>687.9</ele><time>2026-06-25T20:05:27.000Z</time></trkpt>
        <trkpt lat="28.1102489" lon="105.2062936"><ele>687.46</ele><time>2026-06-25T20:05:31.000Z</time></trkpt>
        <trkpt lat="28.1103586" lon="105.2063478"><ele>686.85</ele><time>2026-06-25T20:05:35.000Z</time></trkpt>
        <trkpt lat="28.1104753" lon="105.2064092"><ele>687.18</ele><time>2026-06-25T20:05:41.000Z</time></trkpt>
        <trkpt lat="28.1105883" lon="105.2064942"><ele>685.88</ele><time>2026-06-25T20:05:47.000Z</time></trkpt>
        <trkpt lat="28.1106488" lon="105.2066001"><ele>683.89</ele><time>2026-06-25T20:05:51.000Z</time></trkpt>
        <trkpt lat="28.1106828" lon="105.2067256"><ele>681.96</ele><time>2026-06-25T20:05:55.000Z</time></trkpt>
        <trkpt lat="28.1107349" lon="105.2068335"><ele>679.23</ele><time>2026-06-25T20:05:59.000Z</time></trkpt>
        <trkpt lat="28.1108139" lon="105.2069126"><ele>675.48</ele><time>2026-06-25T20:06:03.000Z</time></trkpt>
        <trkpt lat="28.1109101" lon="105.206974"><ele>671.69</ele><time>2026-06-25T20:06:07.000Z</time></trkpt>
        <trkpt lat="28.1110073" lon="105.2070501"><ele>668.31</ele><time>2026-06-25T20:06:11.000Z</time></trkpt>
        <trkpt lat="28.1111083" lon="105.20714"><ele>665.12</ele><time>2026-06-25T20:06:15.000Z</time></trkpt>
        <trkpt lat="28.111206" lon="105.2072101"><ele>662.38</ele><time>2026-06-25T20:06:21.000Z</time></trkpt>
        <trkpt lat="28.1112802" lon="105.2072862"><ele>661.84</ele><time>2026-06-25T20:06:57.000Z</time></trkpt>
        <trkpt lat="28.1113151" lon="105.2073926"><ele>662.57</ele><time>2026-06-25T20:07:05.000Z</time></trkpt>
        <trkpt lat="28.1113748" lon="105.2075087"><ele>660.71</ele><time>2026-06-25T20:07:11.000Z</time></trkpt>
        <trkpt lat="28.1114231" lon="105.2076121"><ele>658.4</ele><time>2026-06-25T20:07:15.000Z</time></trkpt>
        <trkpt lat="28.1114697" lon="105.2077115"><ele>654.74</ele><time>2026-06-25T20:07:19.000Z</time></trkpt>
        <trkpt lat="28.1115536" lon="105.2077599"><ele>651.24</ele><time>2026-06-25T20:07:25.000Z</time></trkpt>
        <trkpt lat="28.1115942" lon="105.2077572"><ele>649.79</ele><time>2026-06-25T20:07:29.000Z</time></trkpt>
        <trkpt lat="28.1116235" lon="105.2076697"><ele>649.47</ele><time>2026-06-25T20:07:39.000Z</time></trkpt>
        <trkpt lat="28.1116408" lon="105.20753"><ele>649.82</ele><time>2026-06-25T20:07:47.000Z</time></trkpt>
        <trkpt lat="28.1116984" lon="105.2074032"><ele>648.64</ele><time>2026-06-25T20:07:55.000Z</time></trkpt>
        <trkpt lat="28.1117768" lon="105.207317"><ele>647.96</ele><time>2026-06-25T20:08:01.000Z</time></trkpt>
        <trkpt lat="28.1118688" lon="105.2072422"><ele>647.21</ele><time>2026-06-25T20:08:07.000Z</time></trkpt>
        <trkpt lat="28.1119663" lon="105.2071788"><ele>646.4</ele><time>2026-06-25T20:08:13.000Z</time></trkpt>
        <trkpt lat="28.1120536" lon="105.2071523"><ele>645.31</ele><time>2026-06-25T20:08:21.000Z</time></trkpt>
        <trkpt lat="28.1121495" lon="105.2071743"><ele>644</ele><time>2026-06-25T20:08:29.000Z</time></trkpt>
        <trkpt lat="28.1122612" lon="105.207217"><ele>641.69</ele><time>2026-06-25T20:08:35.000Z</time></trkpt>
        <trkpt lat="28.1123707" lon="105.207252"><ele>639.7</ele><time>2026-06-25T20:08:43.000Z</time></trkpt>
        <trkpt lat="28.1124727" lon="105.2072756"><ele>637.85</ele><time>2026-06-25T20:08:51.000Z</time></trkpt>
        <trkpt lat="28.1125728" lon="105.2072852"><ele>636.03</ele><time>2026-06-25T20:08:59.000Z</time></trkpt>
        <trkpt lat="28.1126648" lon="105.2072765"><ele>634.11</ele><time>2026-06-25T20:09:05.000Z</time></trkpt>
        <trkpt lat="28.1127709" lon="105.2072383"><ele>632.37</ele><time>2026-06-25T20:09:11.000Z</time></trkpt>
        <trkpt lat="28.112877" lon="105.2071622"><ele>630.95</ele><time>2026-06-25T20:09:17.000Z</time></trkpt>
        <trkpt lat="28.1129922" lon="105.2070874"><ele>629.62</ele><time>2026-06-25T20:09:23.000Z</time></trkpt>
        <trkpt lat="28.1130893" lon="105.207043"><ele>628.52</ele><time>2026-06-25T20:09:27.000Z</time></trkpt>
        <trkpt lat="28.1131915" lon="105.2070379"><ele>627.67</ele><time>2026-06-25T20:09:31.000Z</time></trkpt>
        <trkpt lat="28.1132887" lon="105.2070784"><ele>626.33</ele><time>2026-06-25T20:09:35.000Z</time></trkpt>
        <trkpt lat="28.113377" lon="105.2071216"><ele>624.84</ele><time>2026-06-25T20:09:39.000Z</time></trkpt>
        <trkpt lat="28.1134665" lon="105.2071226"><ele>623.43</ele><time>2026-06-25T20:09:43.000Z</time></trkpt>
        <trkpt lat="28.1135564" lon="105.2070786"><ele>622.18</ele><time>2026-06-25T20:09:47.000Z</time></trkpt>
        <trkpt lat="28.1136419" lon="105.2070112"><ele>621.01</ele><time>2026-06-25T20:09:51.000Z</time></trkpt>
        <trkpt lat="28.1137262" lon="105.2069374"><ele>619.92</ele><time>2026-06-25T20:09:55.000Z</time></trkpt>
        <trkpt lat="28.1138042" lon="105.2068561"><ele>618.77</ele><time>2026-06-25T20:09:59.000Z</time></trkpt>
        <trkpt lat="28.1138629" lon="105.2067588"><ele>617.51</ele><time>2026-06-25T20:10:03.000Z</time></trkpt>
        <trkpt lat="28.1138971" lon="105.206652"><ele>616.53</ele><time>2026-06-25T20:10:07.000Z</time></trkpt>
        <trkpt lat="28.1139345" lon="105.2065472"><ele>615.54</ele><time>2026-06-25T20:10:11.000Z</time></trkpt>
        <trkpt lat="28.1139951" lon="105.2064554"><ele>613.81</ele><time>2026-06-25T20:10:15.000Z</time></trkpt>
        <trkpt lat="28.1140833" lon="105.2063831"><ele>612.1</ele><time>2026-06-25T20:10:19.000Z</time></trkpt>
        <trkpt lat="28.114183" lon="105.2063177"><ele>609.44</ele><time>2026-06-25T20:10:23.000Z</time></trkpt>
        <trkpt lat="28.1142755" lon="105.2062427"><ele>607.66</ele><time>2026-06-25T20:10:27.000Z</time></trkpt>
        <trkpt lat="28.1143459" lon="105.2061546"><ele>606.22</ele><time>2026-06-25T20:10:31.000Z</time></trkpt>
        <trkpt lat="28.1144116" lon="105.2060658"><ele>604.84</ele><time>2026-06-25T20:10:36.000Z</time></trkpt>
        <trkpt lat="28.1144718" lon="105.2059736"><ele>603.71</ele><time>2026-06-25T20:10:39.000Z</time></trkpt>
        <trkpt lat="28.1145368" lon="105.2058804"><ele>602.73</ele><time>2026-06-25T20:10:43.000Z</time></trkpt>
        <trkpt lat="28.1146096" lon="105.2057944"><ele>600.98</ele><time>2026-06-25T20:10:47.000Z</time></trkpt>
        <trkpt lat="28.1146887" lon="105.205716"><ele>599.48</ele><time>2026-06-25T20:10:51.000Z</time></trkpt>
        <trkpt lat="28.1147771" lon="105.2056518"><ele>598.24</ele><time>2026-06-25T20:10:55.000Z</time></trkpt>
        <trkpt lat="28.1148716" lon="105.2056014"><ele>597.96</ele><time>2026-06-25T20:10:59.000Z</time></trkpt>
        <trkpt lat="28.114926" lon="105.2055687"><ele>597.75</ele><time>2026-06-25T20:11:05.000Z</time></trkpt>
        <trkpt lat="28.115016" lon="105.2055357"><ele>597.27</ele><time>2026-06-25T20:11:21.000Z</time></trkpt>
        <trkpt lat="28.1151091" lon="105.2055147"><ele>596.77</ele><time>2026-06-25T20:11:25.000Z</time></trkpt>
        <trkpt lat="28.1152" lon="105.2055694"><ele>595.2</ele><time>2026-06-25T20:11:29.000Z</time></trkpt>
        <trkpt lat="28.1152502" lon="105.2056829"><ele>593.92</ele><time>2026-06-25T20:11:33.000Z</time></trkpt>
        <trkpt lat="28.1153138" lon="105.2058142"><ele>591.93</ele><time>2026-06-25T20:11:37.000Z</time></trkpt>
        <trkpt lat="28.1153933" lon="105.2059207"><ele>590.46</ele><time>2026-06-25T20:11:41.000Z</time></trkpt>
        <trkpt lat="28.1154846" lon="105.2059827"><ele>588.74</ele><time>2026-06-25T20:11:45.000Z</time></trkpt>
        <trkpt lat="28.1155998" lon="105.2060277"><ele>586.81</ele><time>2026-06-25T20:11:49.000Z</time></trkpt>
        <trkpt lat="28.1157331" lon="105.2060548"><ele>584.73</ele><time>2026-06-25T20:11:53.000Z</time></trkpt>
        <trkpt lat="28.1158653" lon="105.2060591"><ele>583.39</ele><time>2026-06-25T20:11:57.000Z</time></trkpt>
        <trkpt lat="28.116014" lon="105.2060368"><ele>581.79</ele><time>2026-06-25T20:12:01.000Z</time></trkpt>
        <trkpt lat="28.1161382" lon="105.2059742"><ele>579.99</ele><time>2026-06-25T20:12:05.000Z</time></trkpt>
        <trkpt lat="28.1162671" lon="105.2059097"><ele>577.54</ele><time>2026-06-25T20:12:09.000Z</time></trkpt>
        <trkpt lat="28.116397" lon="105.2058845"><ele>575.64</ele><time>2026-06-25T20:12:13.000Z</time></trkpt>
        <trkpt lat="28.1165214" lon="105.2059145"><ele>574.13</ele><time>2026-06-25T20:12:17.000Z</time></trkpt>
        <trkpt lat="28.1166197" lon="105.2060055"><ele>572.14</ele><time>2026-06-25T20:12:21.000Z</time></trkpt>
        <trkpt lat="28.1166857" lon="105.2061278"><ele>570.07</ele><time>2026-06-25T20:12:25.000Z</time></trkpt>
        <trkpt lat="28.116734" lon="105.2062652"><ele>568.55</ele><time>2026-06-25T20:12:29.000Z</time></trkpt>
        <trkpt lat="28.1168145" lon="105.2063692"><ele>567.21</ele><time>2026-06-25T20:12:33.000Z</time></trkpt>
        <trkpt lat="28.1169002" lon="105.2063417"><ele>566.09</ele><time>2026-06-25T20:12:37.000Z</time></trkpt>
        <trkpt lat="28.1169343" lon="105.2062346"><ele>562.5</ele><time>2026-06-25T20:12:41.000Z</time></trkpt>
        <trkpt lat="28.1169347" lon="105.2060974"><ele>559.11</ele><time>2026-06-25T20:12:45.000Z</time></trkpt>
        <trkpt lat="28.1169126" lon="105.2059453"><ele>555.3</ele><time>2026-06-25T20:12:49.000Z</time></trkpt>
        <trkpt lat="28.1168832" lon="105.205797"><ele>554.45</ele><time>2026-06-25T20:12:53.000Z</time></trkpt>
        <trkpt lat="28.1168684" lon="105.2056658"><ele>554.85</ele><time>2026-06-25T20:12:57.000Z</time></trkpt>
        <trkpt lat="28.1168673" lon="105.2055406"><ele>556.04</ele><time>2026-06-25T20:13:05.000Z</time></trkpt>
        <trkpt lat="28.1168857" lon="105.2054118"><ele>556.78</ele><time>2026-06-25T20:13:13.000Z</time></trkpt>
        <trkpt lat="28.1168899" lon="105.2053027"><ele>557.14</ele><time>2026-06-25T20:13:19.000Z</time></trkpt>
        <trkpt lat="28.1168722" lon="105.2051785"><ele>556.9</ele><time>2026-06-25T20:13:27.000Z</time></trkpt>
        <trkpt lat="28.1168637" lon="105.2050548"><ele>556.09</ele><time>2026-06-25T20:13:35.000Z</time></trkpt>
        <trkpt lat="28.1168682" lon="105.2049303"><ele>555.18</ele><time>2026-06-25T20:13:43.000Z</time></trkpt>
        <trkpt lat="28.1168714" lon="105.2048219"><ele>554.07</ele><time>2026-06-25T20:13:49.000Z</time></trkpt>
        <trkpt lat="28.1168897" lon="105.2046989"><ele>552.79</ele><time>2026-06-25T20:13:57.000Z</time></trkpt>
        <trkpt lat="28.1169673" lon="105.2046227"><ele>551.12</ele><time>2026-06-25T20:14:05.000Z</time></trkpt>
        <trkpt lat="28.1170269" lon="105.2046887"><ele>549.49</ele><time>2026-06-25T20:14:11.000Z</time></trkpt>
        <trkpt lat="28.1170522" lon="105.2048226"><ele>547.5</ele><time>2026-06-25T20:14:17.000Z</time></trkpt>
        <trkpt lat="28.1170562" lon="105.2049695"><ele>545.41</ele><time>2026-06-25T20:14:23.000Z</time></trkpt>
        <trkpt lat="28.1170531" lon="105.2051219"><ele>543.35</ele><time>2026-06-25T20:14:29.000Z</time></trkpt>
        <trkpt lat="28.1170946" lon="105.2052595"><ele>540.25</ele><time>2026-06-25T20:14:35.000Z</time></trkpt>
        <trkpt lat="28.1171503" lon="105.2053991"><ele>537.32</ele><time>2026-06-25T20:14:41.000Z</time></trkpt>
        <trkpt lat="28.1171839" lon="105.2055441"><ele>535.97</ele><time>2026-06-25T20:14:47.000Z</time></trkpt>
        <trkpt lat="28.1172136" lon="105.2056921"><ele>533.33</ele><time>2026-06-25T20:14:53.000Z</time></trkpt>
        <trkpt lat="28.1172405" lon="105.2058035"><ele>532.18</ele><time>2026-06-25T20:14:57.000Z</time></trkpt>
        <trkpt lat="28.1172845" lon="105.2059047"><ele>530.69</ele><time>2026-06-25T20:15:01.000Z</time></trkpt>
        <trkpt lat="28.1173442" lon="105.2059943"><ele>530.48</ele><time>2026-06-25T20:15:05.000Z</time></trkpt>
        <trkpt lat="28.1173908" lon="105.2060885"><ele>528.31</ele><time>2026-06-25T20:15:09.000Z</time></trkpt>
        <trkpt lat="28.1174342" lon="105.2061843"><ele>525.58</ele><time>2026-06-25T20:15:13.000Z</time></trkpt>
        <trkpt lat="28.1175558" lon="105.2062077"><ele>522.3</ele><time>2026-06-25T20:15:17.000Z</time></trkpt>
        <trkpt lat="28.1176504" lon="105.2061155"><ele>520.37</ele><time>2026-06-25T20:15:21.000Z</time></trkpt>
        <trkpt lat="28.1176916" lon="105.2059907"><ele>517.76</ele><time>2026-06-25T20:15:25.000Z</time></trkpt>
        <trkpt lat="28.1177" lon="105.2058633"><ele>514.92</ele><time>2026-06-25T20:15:29.000Z</time></trkpt>
        <trkpt lat="28.1176807" lon="105.2057322"><ele>512.44</ele><time>2026-06-25T20:15:33.000Z</time></trkpt>
        <trkpt lat="28.1176563" lon="105.2056019"><ele>509.85</ele><time>2026-06-25T20:15:37.000Z</time></trkpt>
        <trkpt lat="28.1176497" lon="105.2054706"><ele>507.54</ele><time>2026-06-25T20:15:41.000Z</time></trkpt>
        <trkpt lat="28.117649" lon="105.2053439"><ele>505.16</ele><time>2026-06-25T20:15:45.000Z</time></trkpt>
        <trkpt lat="28.1176614" lon="105.2052704"><ele>503.4</ele><time>2026-06-25T20:15:51.000Z</time></trkpt>
        <trkpt lat="28.1176657" lon="105.2051613"><ele>503.4</ele><time>2026-06-25T20:16:17.000Z</time></trkpt>
        <trkpt lat="28.1177292" lon="105.2050821"><ele>504.6</ele><time>2026-06-25T20:16:25.000Z</time></trkpt>
        <trkpt lat="28.1178023" lon="105.2050126"><ele>505.58</ele><time>2026-06-25T20:16:31.000Z</time></trkpt>
        <trkpt lat="28.1178415" lon="105.2049023"><ele>504.59</ele><time>2026-06-25T20:16:35.000Z</time></trkpt>
        <trkpt lat="28.1178436" lon="105.2047869"><ele>504.08</ele><time>2026-06-25T20:16:39.000Z</time></trkpt>
        <trkpt lat="28.1178099" lon="105.204663"><ele>504.59</ele><time>2026-06-25T20:16:45.000Z</time></trkpt>
        <trkpt lat="28.1177975" lon="105.2045384"><ele>506.88</ele><time>2026-06-25T20:16:53.000Z</time></trkpt>
        <trkpt lat="28.1178053" lon="105.2044142"><ele>508.95</ele><time>2026-06-25T20:17:01.000Z</time></trkpt>
        <trkpt lat="28.1178195" lon="105.2042922"><ele>509.61</ele><time>2026-06-25T20:17:09.000Z</time></trkpt>
        <trkpt lat="28.1178345" lon="105.2041662"><ele>510.55</ele><time>2026-06-25T20:17:17.000Z</time></trkpt>
        <trkpt lat="28.1178499" lon="105.2040449"><ele>512.15</ele><time>2026-06-25T20:17:25.000Z</time></trkpt>
        <trkpt lat="28.1178635" lon="105.2039237"><ele>514.4</ele><time>2026-06-25T20:17:33.000Z</time></trkpt>
        <trkpt lat="28.1178755" lon="105.2038053"><ele>515.66</ele><time>2026-06-25T20:17:41.000Z</time></trkpt>
        <trkpt lat="28.117882" lon="105.2036829"><ele>517.46</ele><time>2026-06-25T20:17:49.000Z</time></trkpt>
        <trkpt lat="28.1178853" lon="105.2035584"><ele>520.1</ele><time>2026-06-25T20:17:57.000Z</time></trkpt>
        <trkpt lat="28.1179518" lon="105.2034851"><ele>523.28</ele><time>2026-06-25T20:18:05.000Z</time></trkpt>
        <trkpt lat="28.1180065" lon="105.2034714"><ele>525.22</ele><time>2026-06-25T20:18:09.000Z</time></trkpt>
        <trkpt lat="28.1180529" lon="105.2035601"><ele>526.52</ele><time>2026-06-25T20:18:25.000Z</time></trkpt>
        <trkpt lat="28.118078" lon="105.2036882"><ele>527.13</ele><time>2026-06-25T20:18:33.000Z</time></trkpt>
        <trkpt lat="28.1180799" lon="105.2038257"><ele>528</ele><time>2026-06-25T20:18:41.000Z</time></trkpt>
        <trkpt lat="28.1180674" lon="105.2039579"><ele>529.55</ele><time>2026-06-25T20:18:49.000Z</time></trkpt>
        <trkpt lat="28.1180782" lon="105.2040796"><ele>531.18</ele><time>2026-06-25T20:18:57.000Z</time></trkpt>
        <trkpt lat="28.1181131" lon="105.2041854"><ele>532.46</ele><time>2026-06-25T20:19:05.000Z</time></trkpt>
        <trkpt lat="28.118174" lon="105.2042871"><ele>534.6</ele><time>2026-06-25T20:19:15.000Z</time></trkpt>
        <trkpt lat="28.1182369" lon="105.2043913"><ele>536.65</ele><time>2026-06-25T20:19:25.000Z</time></trkpt>
        <trkpt lat="28.1182893" lon="105.2044888"><ele>539.11</ele><time>2026-06-25T20:19:33.000Z</time></trkpt>
        <trkpt lat="28.118345" lon="105.2045857"><ele>541.44</ele><time>2026-06-25T20:19:41.000Z</time></trkpt>
        <trkpt lat="28.1183998" lon="105.20468"><ele>543.18</ele><time>2026-06-25T20:19:49.000Z</time></trkpt>
        <trkpt lat="28.1184746" lon="105.2047575"><ele>545.09</ele><time>2026-06-25T20:19:57.000Z</time></trkpt>
        <trkpt lat="28.1185697" lon="105.2048012"><ele>546.97</ele><time>2026-06-25T20:20:05.000Z</time></trkpt>
        <trkpt lat="28.1186715" lon="105.2048376"><ele>548.39</ele><time>2026-06-25T20:20:13.000Z</time></trkpt>
        <trkpt lat="28.1187752" lon="105.2048723"><ele>549.98</ele><time>2026-06-25T20:20:21.000Z</time></trkpt>
        <trkpt lat="28.1188708" lon="105.2049212"><ele>551.67</ele><time>2026-06-25T20:20:29.000Z</time></trkpt>
        <trkpt lat="28.1189572" lon="105.2049934"><ele>553.68</ele><time>2026-06-25T20:20:37.000Z</time></trkpt>
        <trkpt lat="28.1189795" lon="105.2050235"><ele>556.51</ele><time>2026-06-25T20:20:39.000Z</time></trkpt>
        <trkpt lat="28.1190436" lon="105.2050417"><ele>558.45</ele><time>2026-06-25T20:21:07.000Z</time></trkpt>
        <trkpt lat="28.1191358" lon="105.2050757"><ele>558.59</ele><time>2026-06-25T20:21:15.000Z</time></trkpt>
        <trkpt lat="28.1192338" lon="105.205062"><ele>560.4</ele><time>2026-06-25T20:21:23.000Z</time></trkpt>
        <trkpt lat="28.1193215" lon="105.2050037"><ele>561.29</ele><time>2026-06-25T20:21:31.000Z</time></trkpt>
        <trkpt lat="28.1193846" lon="105.2049064"><ele>562.49</ele><time>2026-06-25T20:21:39.000Z</time></trkpt>
        <trkpt lat="28.119415" lon="105.2047887"><ele>563.95</ele><time>2026-06-25T20:21:47.000Z</time></trkpt>
        <trkpt lat="28.1194596" lon="105.204674"><ele>565.43</ele><time>2026-06-25T20:21:55.000Z</time></trkpt>
        <trkpt lat="28.1194778" lon="105.2045587"><ele>567.22</ele><time>2026-06-25T20:22:03.000Z</time></trkpt>
        <trkpt lat="28.1194848" lon="105.2044445"><ele>568.77</ele><time>2026-06-25T20:22:11.000Z</time></trkpt>
        <trkpt lat="28.1194989" lon="105.2043313"><ele>570.58</ele><time>2026-06-25T20:22:19.000Z</time></trkpt>
        <trkpt lat="28.1195725" lon="105.2042761"><ele>571.7</ele><time>2026-06-25T20:22:27.000Z</time></trkpt>
        <trkpt lat="28.1196713" lon="105.204318"><ele>572.41</ele><time>2026-06-25T20:22:35.000Z</time></trkpt>
        <trkpt lat="28.1197708" lon="105.2043916"><ele>573.08</ele><time>2026-06-25T20:22:43.000Z</time></trkpt>
        <trkpt lat="28.1198744" lon="105.2044525"><ele>574.11</ele><time>2026-06-25T20:22:51.000Z</time></trkpt>
        <trkpt lat="28.1199799" lon="105.2045138"><ele>575.03</ele><time>2026-06-25T20:22:59.000Z</time></trkpt>
        <trkpt lat="28.1200852" lon="105.2045716"><ele>575.8</ele><time>2026-06-25T20:23:07.000Z</time></trkpt>
        <trkpt lat="28.1201908" lon="105.2046353"><ele>576.29</ele><time>2026-06-25T20:23:15.000Z</time></trkpt>
        <trkpt lat="28.1202741" lon="105.2047204"><ele>576.96</ele><time>2026-06-25T20:23:23.000Z</time></trkpt>
        <trkpt lat="28.1203346" lon="105.2048191"><ele>578.09</ele><time>2026-06-25T20:23:31.000Z</time></trkpt>
        <trkpt lat="28.1203877" lon="105.2049197"><ele>579.33</ele><time>2026-06-25T20:23:39.000Z</time></trkpt>
        <trkpt lat="28.1204532" lon="105.2050099"><ele>580.68</ele><time>2026-06-25T20:23:47.000Z</time></trkpt>
        <trkpt lat="28.120541" lon="105.2050782"><ele>581.81</ele><time>2026-06-25T20:23:55.000Z</time></trkpt>
        <trkpt lat="28.120643" lon="105.2051353"><ele>582.63</ele><time>2026-06-25T20:24:03.000Z</time></trkpt>
        <trkpt lat="28.1207528" lon="105.2051763"><ele>582.95</ele><time>2026-06-25T20:24:11.000Z</time></trkpt>
        <trkpt lat="28.1208676" lon="105.205186"><ele>582.9</ele><time>2026-06-25T20:24:19.000Z</time></trkpt>
        <trkpt lat="28.1209854" lon="105.205197"><ele>583.07</ele><time>2026-06-25T20:24:27.000Z</time></trkpt>
        <trkpt lat="28.1211004" lon="105.2052181"><ele>583.24</ele><time>2026-06-25T20:24:35.000Z</time></trkpt>
        <trkpt lat="28.1212162" lon="105.205239"><ele>583.24</ele><time>2026-06-25T20:24:43.000Z</time></trkpt>
        <trkpt lat="28.1213304" lon="105.2052494"><ele>583.47</ele><time>2026-06-25T20:24:51.000Z</time></trkpt>
        <trkpt lat="28.1214431" lon="105.2052299"><ele>583.71</ele><time>2026-06-25T20:24:59.000Z</time></trkpt>
        <trkpt lat="28.1215538" lon="105.2052298"><ele>583.72</ele><time>2026-06-25T20:25:07.000Z</time></trkpt>
        <trkpt lat="28.1216606" lon="105.2052538"><ele>583.74</ele><time>2026-06-25T20:25:15.000Z</time></trkpt>
        <trkpt lat="28.1217628" lon="105.2052806"><ele>583.89</ele><time>2026-06-25T20:25:23.000Z</time></trkpt>
        <trkpt lat="28.1218568" lon="105.2052458"><ele>584.22</ele><time>2026-06-25T20:25:31.000Z</time></trkpt>
        <trkpt lat="28.1219261" lon="105.2051532"><ele>584.51</ele><time>2026-06-25T20:25:39.000Z</time></trkpt>
        <trkpt lat="28.1219911" lon="105.2050393"><ele>584.73</ele><time>2026-06-25T20:25:48.000Z</time></trkpt>
        <trkpt lat="28.1220511" lon="105.2049397"><ele>585.03</ele><time>2026-06-25T20:25:52.000Z</time></trkpt>
        <trkpt lat="28.1221196" lon="105.2048467"><ele>585.63</ele><time>2026-06-25T20:25:55.000Z</time></trkpt>
        <trkpt lat="28.1221912" lon="105.2047615"><ele>586.37</ele><time>2026-06-25T20:26:00.000Z</time></trkpt>
        <trkpt lat="28.1222641" lon="105.2046697"><ele>587.18</ele><time>2026-06-25T20:26:07.000Z</time></trkpt>
        <trkpt lat="28.122339" lon="105.204589"><ele>588.83</ele><time>2026-06-25T20:26:17.000Z</time></trkpt>
        <trkpt lat="28.1224237" lon="105.2045112"><ele>589.86</ele><time>2026-06-25T20:26:27.000Z</time></trkpt>
        <trkpt lat="28.1225099" lon="105.2044398"><ele>590.39</ele><time>2026-06-25T20:26:37.000Z</time></trkpt>
        <trkpt lat="28.1225782" lon="105.2043552"><ele>591.25</ele><time>2026-06-25T20:26:47.000Z</time></trkpt>
        <trkpt lat="28.1226312" lon="105.2042529"><ele>592.88</ele><time>2026-06-25T20:26:57.000Z</time></trkpt>
        <trkpt lat="28.1226815" lon="105.2041542"><ele>594.73</ele><time>2026-06-25T20:27:05.000Z</time></trkpt>
        <trkpt lat="28.1227228" lon="105.2040503"><ele>596.26</ele><time>2026-06-25T20:27:13.000Z</time></trkpt>
        <trkpt lat="28.1227641" lon="105.2039487"><ele>597.63</ele><time>2026-06-25T20:27:21.000Z</time></trkpt>
        <trkpt lat="28.1228081" lon="105.203852"><ele>598.63</ele><time>2026-06-25T20:27:29.000Z</time></trkpt>
        <trkpt lat="28.1228496" lon="105.2037567"><ele>599.74</ele><time>2026-06-25T20:27:37.000Z</time></trkpt>
        <trkpt lat="28.1228941" lon="105.2036658"><ele>601.08</ele><time>2026-06-25T20:27:45.000Z</time></trkpt>
        <trkpt lat="28.1229654" lon="105.2035906"><ele>602.38</ele><time>2026-06-25T20:27:55.000Z</time></trkpt>
        <trkpt lat="28.1230521" lon="105.2035433"><ele>603.66</ele><time>2026-06-25T20:28:03.000Z</time></trkpt>
        <trkpt lat="28.1231595" lon="105.2035363"><ele>604.81</ele><time>2026-06-25T20:28:13.000Z</time></trkpt>
        <trkpt lat="28.1232647" lon="105.2035637"><ele>606.28</ele><time>2026-06-25T20:28:21.000Z</time></trkpt>
        <trkpt lat="28.1233702" lon="105.2036022"><ele>607.46</ele><time>2026-06-25T20:28:29.000Z</time></trkpt>
        <trkpt lat="28.1234749" lon="105.2036381"><ele>608.43</ele><time>2026-06-25T20:28:37.000Z</time></trkpt>
        <trkpt lat="28.123571" lon="105.2036534"><ele>609.17</ele><time>2026-06-25T20:28:43.000Z</time></trkpt>
        <trkpt lat="28.123676" lon="105.2036587"><ele>609.28</ele><time>2026-06-25T20:28:51.000Z</time></trkpt>
        <trkpt lat="28.1237817" lon="105.2036127"><ele>609.24</ele><time>2026-06-25T20:28:59.000Z</time></trkpt>
        <trkpt lat="28.1238654" lon="105.2035366"><ele>609.48</ele><time>2026-06-25T20:29:07.000Z</time></trkpt>
        <trkpt lat="28.1239217" lon="105.2034372"><ele>610.06</ele><time>2026-06-25T20:29:15.000Z</time></trkpt>
        <trkpt lat="28.1239474" lon="105.2033195"><ele>611.03</ele><time>2026-06-25T20:29:23.000Z</time></trkpt>
        <trkpt lat="28.1239384" lon="105.203195"><ele>611.81</ele><time>2026-06-25T20:29:31.000Z</time></trkpt>
        <trkpt lat="28.1239007" lon="105.2030767"><ele>612.68</ele><time>2026-06-25T20:29:39.000Z</time></trkpt>
        <trkpt lat="28.1238452" lon="105.2029676"><ele>613.63</ele><time>2026-06-25T20:29:47.000Z</time></trkpt>
        <trkpt lat="28.1237813" lon="105.2028671"><ele>614.9</ele><time>2026-06-25T20:29:55.000Z</time></trkpt>
        <trkpt lat="28.123719" lon="105.2027707"><ele>616.35</ele><time>2026-06-25T20:30:03.000Z</time></trkpt>
        <trkpt lat="28.1237053" lon="105.2027135"><ele>618.24</ele><time>2026-06-25T20:30:11.000Z</time></trkpt>
        <trkpt lat="28.1237704" lon="105.2026572"><ele>619.43</ele><time>2026-06-25T20:30:29.000Z</time></trkpt>
        <trkpt lat="28.123794" lon="105.2025667"><ele>620.41</ele><time>2026-06-25T20:30:51.000Z</time></trkpt>
        <trkpt lat="28.1237794" lon="105.2024509"><ele>622.06</ele><time>2026-06-25T20:31:01.000Z</time></trkpt>
        <trkpt lat="28.1237441" lon="105.2023379"><ele>623.62</ele><time>2026-06-25T20:31:09.000Z</time></trkpt>
        <trkpt lat="28.1237409" lon="105.2022203"><ele>625.35</ele><time>2026-06-25T20:31:17.000Z</time></trkpt>
        <trkpt lat="28.1237867" lon="105.2021143"><ele>626.91</ele><time>2026-06-25T20:31:25.000Z</time></trkpt>
        <trkpt lat="28.12385" lon="105.2020125"><ele>628.97</ele><time>2026-06-25T20:31:35.000Z</time></trkpt>
        <trkpt lat="28.1239171" lon="105.2019193"><ele>630.6</ele><time>2026-06-25T20:31:45.000Z</time></trkpt>
        <trkpt lat="28.1239729" lon="105.2018199"><ele>631.8</ele><time>2026-06-25T20:31:55.000Z</time></trkpt>
        <trkpt lat="28.1240394" lon="105.2017232"><ele>633.26</ele><time>2026-06-25T20:32:05.000Z</time></trkpt>
        <trkpt lat="28.1241067" lon="105.2016246"><ele>634.89</ele><time>2026-06-25T20:32:15.000Z</time></trkpt>
        <trkpt lat="28.1241647" lon="105.2015376"><ele>636.56</ele><time>2026-06-25T20:32:23.000Z</time></trkpt>
        <trkpt lat="28.1242259" lon="105.2014437"><ele>638.13</ele><time>2026-06-25T20:32:33.000Z</time></trkpt>
        <trkpt lat="28.1242912" lon="105.2013465"><ele>640.47</ele><time>2026-06-25T20:32:43.000Z</time></trkpt>
        <trkpt lat="28.1243362" lon="105.201234"><ele>642.77</ele><time>2026-06-25T20:32:53.000Z</time></trkpt>
        <trkpt lat="28.1243662" lon="105.2011246"><ele>644.86</ele><time>2026-06-25T20:33:01.000Z</time></trkpt>
        <trkpt lat="28.1243893" lon="105.2010131"><ele>646.79</ele><time>2026-06-25T20:33:09.000Z</time></trkpt>
        <trkpt lat="28.1244139" lon="105.2009061"><ele>648.58</ele><time>2026-06-25T20:33:17.000Z</time></trkpt>
        <trkpt lat="28.1244342" lon="105.2007979"><ele>650.5</ele><time>2026-06-25T20:33:25.000Z</time></trkpt>
        <trkpt lat="28.1244602" lon="105.200691"><ele>652.04</ele><time>2026-06-25T20:33:33.000Z</time></trkpt>
        <trkpt lat="28.1244848" lon="105.2005854"><ele>653.52</ele><time>2026-06-25T20:33:41.000Z</time></trkpt>
        <trkpt lat="28.1244994" lon="105.2004807"><ele>655.36</ele><time>2026-06-25T20:33:49.000Z</time></trkpt>
        <trkpt lat="28.1245657" lon="105.2003949"><ele>657.37</ele><time>2026-06-25T20:33:59.000Z</time></trkpt>
        <trkpt lat="28.1245678" lon="105.2002799"><ele>658.98</ele><time>2026-06-25T20:34:17.000Z</time></trkpt>
        <trkpt lat="28.1245543" lon="105.2001723"><ele>661.69</ele><time>2026-06-25T20:34:25.000Z</time></trkpt>
        <trkpt lat="28.1245345" lon="105.2000571"><ele>663.56</ele><time>2026-06-25T20:34:39.000Z</time></trkpt>
        <trkpt lat="28.124473" lon="105.1999731"><ele>664.66</ele><time>2026-06-25T20:34:47.000Z</time></trkpt>
        <trkpt lat="28.1243693" lon="105.1999528"><ele>665.51</ele><time>2026-06-25T20:34:55.000Z</time></trkpt>
        <trkpt lat="28.1242642" lon="105.1999695"><ele>666.03</ele><time>2026-06-25T20:35:03.000Z</time></trkpt>
        <trkpt lat="28.1241551" lon="105.2000011"><ele>666.97</ele><time>2026-06-25T20:35:13.000Z</time></trkpt>
        <trkpt lat="28.1241095" lon="105.2000246"><ele>668.07</ele><time>2026-06-25T20:35:19.000Z</time></trkpt>
        <trkpt lat="28.124128" lon="105.199959"><ele>668.77</ele><time>2026-06-25T20:36:11.000Z</time></trkpt>
        <trkpt lat="28.1242629" lon="105.1998402"><ele>669.27</ele><time>2026-06-25T20:36:15.000Z</time></trkpt>
        <trkpt lat="28.1243747" lon="105.1997457"><ele>670.44</ele><time>2026-06-25T20:36:17.000Z</time></trkpt>
        <trkpt lat="28.1244817" lon="105.1996834"><ele>671.14</ele><time>2026-06-25T20:36:19.000Z</time></trkpt>
        <trkpt lat="28.1245933" lon="105.1996391"><ele>671.6</ele><time>2026-06-25T20:36:21.000Z</time></trkpt>
        <trkpt lat="28.12471" lon="105.1995963"><ele>672.09</ele><time>2026-06-25T20:36:23.000Z</time></trkpt>
        <trkpt lat="28.1248231" lon="105.1995431"><ele>672.5</ele><time>2026-06-25T20:36:25.000Z</time></trkpt>
        <trkpt lat="28.1249425" lon="105.1994765"><ele>673.09</ele><time>2026-06-25T20:36:27.000Z</time></trkpt>
        <trkpt lat="28.125057" lon="105.1994098"><ele>673.77</ele><time>2026-06-25T20:36:29.000Z</time></trkpt>
        <trkpt lat="28.1251593" lon="105.199358"><ele>674.86</ele><time>2026-06-25T20:36:31.000Z</time></trkpt>
        <trkpt lat="28.1252681" lon="105.1993301"><ele>675.95</ele><time>2026-06-25T20:36:33.000Z</time></trkpt>
        <trkpt lat="28.1253804" lon="105.1992864"><ele>676.9</ele><time>2026-06-25T20:36:35.000Z</time></trkpt>
        <trkpt lat="28.125493" lon="105.1992046"><ele>677.46</ele><time>2026-06-25T20:36:37.000Z</time></trkpt>
        <trkpt lat="28.1255898" lon="105.1990941"><ele>678.25</ele><time>2026-06-25T20:36:39.000Z</time></trkpt>
        <trkpt lat="28.1255898" lon="105.1990941"><ele>678.25</ele><time>2026-06-25T20:36:41.000Z</time></trkpt>
      </trkseg>
      <trkseg>
        <trkpt lat="28.1257056" lon="105.1990192"><ele>679.56</ele><time>2026-06-25T20:36:51.000Z</time></trkpt>
        <trkpt lat="28.1257056" lon="105.1990192"><ele>679.56</ele><time>2026-06-25T20:36:57.000Z</time></trkpt>
        <trkpt lat="28.1257465" lon="105.199122"><ele>681.08</ele><time>2026-06-25T20:37:03.000Z</time></trkpt>
        <trkpt lat="28.1257646" lon="105.1991662"><ele>682.33</ele><time>2026-06-25T20:37:07.000Z</time></trkpt>
        <trkpt lat="28.1258211" lon="105.1992405"><ele>683.25</ele><time>2026-06-25T20:37:39.000Z</time></trkpt>
        <trkpt lat="28.1259004" lon="105.199293"><ele>683.72</ele><time>2026-06-25T20:37:45.000Z</time></trkpt>
        <trkpt lat="28.1259004" lon="105.199293"><ele>683.72</ele><time>2026-06-25T20:37:47.000Z</time></trkpt>
      </trkseg>
      <trkseg>
        <trkpt lat="28.1259519" lon="105.199285"><ele>684.36</ele><time>2026-06-25T23:46:27.000Z</time></trkpt>
        <trkpt lat="28.1259519" lon="105.199285"><ele>684.36</ele><time>2026-06-25T23:46:28.000Z</time></trkpt>
        <trkpt lat="28.126039" lon="105.1992888"><ele>686.11</ele><time>2026-06-25T23:46:38.000Z</time></trkpt>
        <trkpt lat="28.1261454" lon="105.1993149"><ele>687.01</ele><time>2026-06-25T23:46:48.000Z</time></trkpt>
        <trkpt lat="28.1262581" lon="105.1993117"><ele>686.83</ele><time>2026-06-25T23:46:56.000Z</time></trkpt>
        <trkpt lat="28.1263739" lon="105.1993261"><ele>686.74</ele><time>2026-06-25T23:47:02.000Z</time></trkpt>
        <trkpt lat="28.1265054" lon="105.1993503"><ele>686.3</ele><time>2026-06-25T23:47:06.000Z</time></trkpt>
        <trkpt lat="28.1265796" lon="105.199421"><ele>685.95</ele><time>2026-06-25T23:47:10.000Z</time></trkpt>
        <trkpt lat="28.1265736" lon="105.1995228"><ele>685.25</ele><time>2026-06-25T23:47:14.000Z</time></trkpt>
        <trkpt lat="28.1265941" lon="105.1996375"><ele>684.39</ele><time>2026-06-25T23:47:22.000Z</time></trkpt>
        <trkpt lat="28.1266626" lon="105.1996877"><ele>683.35</ele><time>2026-06-25T23:47:26.000Z</time></trkpt>
        <trkpt lat="28.126769" lon="105.1997053"><ele>682.36</ele><time>2026-06-25T23:47:32.000Z</time></trkpt>
        <trkpt lat="28.1268487" lon="105.1996376"><ele>681.3</ele><time>2026-06-25T23:47:40.000Z</time></trkpt>
        <trkpt lat="28.1269271" lon="105.1995505"><ele>681.63</ele><time>2026-06-25T23:47:50.000Z</time></trkpt>
        <trkpt lat="28.1270104" lon="105.1994579"><ele>682.11</ele><time>2026-06-25T23:47:58.000Z</time></trkpt>
        <trkpt lat="28.1270482" lon="105.1994118"><ele>682.72</ele><time>2026-06-25T23:48:02.000Z</time></trkpt>
        <trkpt lat="28.1271181" lon="105.199348"><ele>683.22</ele><time>2026-06-25T23:48:26.000Z</time></trkpt>
        <trkpt lat="28.1271832" lon="105.1992736"><ele>682.98</ele><time>2026-06-25T23:48:30.000Z</time></trkpt>
        <trkpt lat="28.1272772" lon="105.199197"><ele>682.83</ele><time>2026-06-25T23:48:36.000Z</time></trkpt>
        <trkpt lat="28.1273703" lon="105.1991619"><ele>682.51</ele><time>2026-06-25T23:48:40.000Z</time></trkpt>
        <trkpt lat="28.1274547" lon="105.1992012"><ele>682.12</ele><time>2026-06-25T23:48:44.000Z</time></trkpt>
        <trkpt lat="28.1275633" lon="105.1992789"><ele>682.08</ele><time>2026-06-25T23:48:50.000Z</time></trkpt>
        <trkpt lat="28.1276546" lon="105.1993408"><ele>682.02</ele><time>2026-06-25T23:48:54.000Z</time></trkpt>
        <trkpt lat="28.1277392" lon="105.1993902"><ele>681.78</ele><time>2026-06-25T23:48:58.000Z</time></trkpt>
        <trkpt lat="28.1278291" lon="105.1994132"><ele>681.49</ele><time>2026-06-25T23:49:02.000Z</time></trkpt>
        <trkpt lat="28.1279425" lon="105.199434"><ele>681.01</ele><time>2026-06-25T23:49:08.000Z</time></trkpt>
        <trkpt lat="28.1280738" lon="105.1994669"><ele>680.54</ele><time>2026-06-25T23:49:14.000Z</time></trkpt>
        <trkpt lat="28.1281807" lon="105.1995011"><ele>680.36</ele><time>2026-06-25T23:49:18.000Z</time></trkpt>
        <trkpt lat="28.1282989" lon="105.1995472"><ele>680.57</ele><time>2026-06-25T23:49:24.000Z</time></trkpt>
        <trkpt lat="28.1284259" lon="105.1995546"><ele>680.88</ele><time>2026-06-25T23:49:30.000Z</time></trkpt>
        <trkpt lat="28.1285209" lon="105.1995216"><ele>681.02</ele><time>2026-06-25T23:49:34.000Z</time></trkpt>
        <trkpt lat="28.1286126" lon="105.1994977"><ele>681.04</ele><time>2026-06-25T23:49:38.000Z</time></trkpt>
        <trkpt lat="28.1287066" lon="105.1995114"><ele>680.88</ele><time>2026-06-25T23:49:42.000Z</time></trkpt>
        <trkpt lat="28.1288011" lon="105.19954"><ele>680.76</ele><time>2026-06-25T23:49:46.000Z</time></trkpt>
        <trkpt lat="28.128903" lon="105.1995743"><ele>681.23</ele><time>2026-06-25T23:49:54.000Z</time></trkpt>
        <trkpt lat="28.1290164" lon="105.1996135"><ele>682.23</ele><time>2026-06-25T23:50:00.000Z</time></trkpt>
        <trkpt lat="28.12912" lon="105.1996309"><ele>682.57</ele><time>2026-06-25T23:50:06.000Z</time></trkpt>
        <trkpt lat="28.1292224" lon="105.1996209"><ele>683.57</ele><time>2026-06-25T23:50:14.000Z</time></trkpt>
        <trkpt lat="28.1293191" lon="105.1996132"><ele>684.68</ele><time>2026-06-25T23:50:20.000Z</time></trkpt>
        <trkpt lat="28.1294084" lon="105.1995932"><ele>685.19</ele><time>2026-06-25T23:50:24.000Z</time></trkpt>
        <trkpt lat="28.1295215" lon="105.1995559"><ele>685.55</ele><time>2026-06-25T23:50:28.000Z</time></trkpt>
        <trkpt lat="28.1296341" lon="105.199516"><ele>686.34</ele><time>2026-06-25T23:50:32.000Z</time></trkpt>
        <trkpt lat="28.1297377" lon="105.1994719"><ele>687.1</ele><time>2026-06-25T23:50:40.000Z</time></trkpt>
        <trkpt lat="28.1298395" lon="105.1994667"><ele>687.83</ele><time>2026-06-25T23:50:48.000Z</time></trkpt>
        <trkpt lat="28.1299375" lon="105.1994854"><ele>688.51</ele><time>2026-06-25T23:50:56.000Z</time></trkpt>
        <trkpt lat="28.1300334" lon="105.1995051"><ele>689.45</ele><time>2026-06-25T23:51:04.000Z</time></trkpt>
        <trkpt lat="28.1301273" lon="105.1995021"><ele>691.05</ele><time>2026-06-25T23:51:12.000Z</time></trkpt>
        <trkpt lat="28.1302007" lon="105.199439"><ele>692.53</ele><time>2026-06-25T23:51:20.000Z</time></trkpt>
        <trkpt lat="28.1302165" lon="105.1993215"><ele>693.87</ele><time>2026-06-25T23:51:30.000Z</time></trkpt>
        <trkpt lat="28.1302155" lon="105.1992041"><ele>696.35</ele><time>2026-06-25T23:51:38.000Z</time></trkpt>
        <trkpt lat="28.1302317" lon="105.1990828"><ele>698.8</ele><time>2026-06-25T23:51:46.000Z</time></trkpt>
        <trkpt lat="28.1302619" lon="105.1989792"><ele>701.16</ele><time>2026-06-25T23:51:52.000Z</time></trkpt>
        <trkpt lat="28.1303202" lon="105.1988712"><ele>702.74</ele><time>2026-06-25T23:51:58.000Z</time></trkpt>
        <trkpt lat="28.1304176" lon="105.1988781"><ele>704.87</ele><time>2026-06-25T23:52:08.000Z</time></trkpt>
        <trkpt lat="28.1304678" lon="105.1989733"><ele>705.91</ele><time>2026-06-25T23:52:12.000Z</time></trkpt>
        <trkpt lat="28.1304883" lon="105.1991001"><ele>705.23</ele><time>2026-06-25T23:52:16.000Z</time></trkpt>
        <trkpt lat="28.1305003" lon="105.1992345"><ele>704.42</ele><time>2026-06-25T23:52:20.000Z</time></trkpt>
        <trkpt lat="28.1305237" lon="105.1993528"><ele>703.31</ele><time>2026-06-25T23:52:24.000Z</time></trkpt>
        <trkpt lat="28.1305918" lon="105.1994261"><ele>702.26</ele><time>2026-06-25T23:52:28.000Z</time></trkpt>
        <trkpt lat="28.1306894" lon="105.1994411"><ele>701.15</ele><time>2026-06-25T23:52:32.000Z</time></trkpt>
        <trkpt lat="28.1308121" lon="105.1994582"><ele>701.18</ele><time>2026-06-25T23:52:36.000Z</time></trkpt>
        <trkpt lat="28.1309228" lon="105.199489"><ele>701.3</ele><time>2026-06-25T23:52:40.000Z</time></trkpt>
        <trkpt lat="28.131034" lon="105.1994635"><ele>699.9</ele><time>2026-06-25T23:52:46.000Z</time></trkpt>
        <trkpt lat="28.1311289" lon="105.1994233"><ele>697.8</ele><time>2026-06-25T23:52:52.000Z</time></trkpt>
        <trkpt lat="28.1311229" lon="105.1994909"><ele>695.25</ele><time>2026-06-25T23:52:58.000Z</time></trkpt>
        <trkpt lat="28.1310479" lon="105.1995838"><ele>692.24</ele><time>2026-06-25T23:53:02.000Z</time></trkpt>
        <trkpt lat="28.1309652" lon="105.1996984"><ele>689.74</ele><time>2026-06-25T23:53:06.000Z</time></trkpt>
        <trkpt lat="28.1309161" lon="105.199824"><ele>687.56</ele><time>2026-06-25T23:53:12.000Z</time></trkpt>
        <trkpt lat="28.1309146" lon="105.1999395"><ele>688.34</ele><time>2026-06-25T23:53:18.000Z</time></trkpt>
        <trkpt lat="28.1309661" lon="105.2000738"><ele>688.03</ele><time>2026-06-25T23:53:24.000Z</time></trkpt>
        <trkpt lat="28.1310619" lon="105.2001845"><ele>686.23</ele><time>2026-06-25T23:53:30.000Z</time></trkpt>
        <trkpt lat="28.1311728" lon="105.2002403"><ele>684.19</ele><time>2026-06-25T23:53:34.000Z</time></trkpt>
        <trkpt lat="28.131269" lon="105.2002834"><ele>682.34</ele><time>2026-06-25T23:53:38.000Z</time></trkpt>
        <trkpt lat="28.1313698" lon="105.2003513"><ele>681.5</ele><time>2026-06-25T23:53:44.000Z</time></trkpt>
        <trkpt lat="28.131471" lon="105.2003956"><ele>682.7</ele><time>2026-06-25T23:53:48.000Z</time></trkpt>
        <trkpt lat="28.131565" lon="105.2003924"><ele>684.09</ele><time>2026-06-25T23:53:52.000Z</time></trkpt>
        <trkpt lat="28.1316534" lon="105.2003398"><ele>684.73</ele><time>2026-06-25T23:53:56.000Z</time></trkpt>
        <trkpt lat="28.1317306" lon="105.2002443"><ele>683.25</ele><time>2026-06-25T23:54:00.000Z</time></trkpt>
        <trkpt lat="28.1318013" lon="105.2001323"><ele>680.82</ele><time>2026-06-25T23:54:04.000Z</time></trkpt>
        <trkpt lat="28.1319029" lon="105.200071"><ele>680.01</ele><time>2026-06-25T23:54:10.000Z</time></trkpt>
        <trkpt lat="28.1320045" lon="105.2000686"><ele>679.86</ele><time>2026-06-25T23:54:18.000Z</time></trkpt>
        <trkpt lat="28.1321082" lon="105.200126"><ele>679.05</ele><time>2026-06-25T23:54:26.000Z</time></trkpt>
        <trkpt lat="28.1321964" lon="105.2001942"><ele>677.94</ele><time>2026-06-25T23:54:32.000Z</time></trkpt>
        <trkpt lat="28.1322634" lon="105.2002759"><ele>677.78</ele><time>2026-06-25T23:54:38.000Z</time></trkpt>
        <trkpt lat="28.1323124" lon="105.2003782"><ele>677.92</ele><time>2026-06-25T23:54:46.000Z</time></trkpt>
        <trkpt lat="28.1323705" lon="105.2003524"><ele>678.1</ele><time>2026-06-25T23:54:56.000Z</time></trkpt>
        <trkpt lat="28.1324599" lon="105.2003182"><ele>678.88</ele><time>2026-06-25T23:55:08.000Z</time></trkpt>
        <trkpt lat="28.1325474" lon="105.2002459"><ele>679.67</ele><time>2026-06-25T23:55:18.000Z</time></trkpt>
        <trkpt lat="28.1325896" lon="105.2001312"><ele>681.71</ele><time>2026-06-25T23:55:26.000Z</time></trkpt>
        <trkpt lat="28.1326038" lon="105.2000131"><ele>683.42</ele><time>2026-06-25T23:55:34.000Z</time></trkpt>
        <trkpt lat="28.1325933" lon="105.199899"><ele>685.77</ele><time>2026-06-25T23:55:42.000Z</time></trkpt>
        <trkpt lat="28.1325887" lon="105.19979"><ele>688.25</ele><time>2026-06-25T23:55:50.000Z</time></trkpt>
        <trkpt lat="28.1326328" lon="105.1996943"><ele>690.7</ele><time>2026-06-25T23:56:02.000Z</time></trkpt>
        <trkpt lat="28.1327184" lon="105.199639"><ele>692.95</ele><time>2026-06-25T23:56:12.000Z</time></trkpt>
        <trkpt lat="28.1328086" lon="105.1995733"><ele>693.4</ele><time>2026-06-25T23:56:22.000Z</time></trkpt>
        <trkpt lat="28.1328565" lon="105.1994731"><ele>694.93</ele><time>2026-06-25T23:56:32.000Z</time></trkpt>
        <trkpt lat="28.1329105" lon="105.1993867"><ele>697.42</ele><time>2026-06-25T23:56:40.000Z</time></trkpt>
        <trkpt lat="28.1329822" lon="105.1993145"><ele>699.58</ele><time>2026-06-25T23:56:48.000Z</time></trkpt>
        <trkpt lat="28.1330651" lon="105.1992487"><ele>703.53</ele><time>2026-06-25T23:56:58.000Z</time></trkpt>
        <trkpt lat="28.1331612" lon="105.1992624"><ele>708.24</ele><time>2026-06-25T23:57:14.000Z</time></trkpt>
        <trkpt lat="28.1332557" lon="105.1992974"><ele>712.22</ele><time>2026-06-25T23:57:26.000Z</time></trkpt>
        <trkpt lat="28.1333429" lon="105.1992739"><ele>713.47</ele><time>2026-06-25T23:57:38.000Z</time></trkpt>
        <trkpt lat="28.1334332" lon="105.1992486"><ele>713.28</ele><time>2026-06-25T23:57:50.000Z</time></trkpt>
        <trkpt lat="28.1335229" lon="105.1992786"><ele>717.13</ele><time>2026-06-25T23:58:00.000Z</time></trkpt>
        <trkpt lat="28.1336211" lon="105.1992945"><ele>720.79</ele><time>2026-06-25T23:58:10.000Z</time></trkpt>
        <trkpt lat="28.133718" lon="105.1992543"><ele>723.06</ele><time>2026-06-25T23:58:26.000Z</time></trkpt>
        <trkpt lat="28.1337579" lon="105.1992226"><ele>725.47</ele><time>2026-06-25T23:58:32.000Z</time></trkpt>
        <trkpt lat="28.1337824" lon="105.199294"><ele>728.45</ele><time>2026-06-25T23:58:44.000Z</time></trkpt>
        <trkpt lat="28.1338593" lon="105.1993252"><ele>728.54</ele><time>2026-06-25T23:58:58.000Z</time></trkpt>
        <trkpt lat="28.133923" lon="105.1993782"><ele>729.42</ele><time>2026-06-25T23:59:08.000Z</time></trkpt>
        <trkpt lat="28.1339358" lon="105.1994779"><ele>730.86</ele><time>2026-06-25T23:59:28.000Z</time></trkpt>
        <trkpt lat="28.1338776" lon="105.199563"><ele>732.42</ele><time>2026-06-25T23:59:36.000Z</time></trkpt>
        <trkpt lat="28.1338446" lon="105.199645"><ele>731.24</ele><time>2026-06-25T23:59:44.000Z</time></trkpt>
        <trkpt lat="28.1337928" lon="105.19974"><ele>731.35</ele><time>2026-06-26T00:00:04.000Z</time></trkpt>
        <trkpt lat="28.1338508" lon="105.1997249"><ele>729.64</ele><time>2026-06-26T00:00:22.000Z</time></trkpt>
        <trkpt lat="28.133872" lon="105.1996784"><ele>726.05</ele><time>2026-06-26T00:00:26.000Z</time></trkpt>
        <trkpt lat="28.1339557" lon="105.1996976"><ele>723.42</ele><time>2026-06-26T00:03:58.000Z</time></trkpt>
        <trkpt lat="28.1340402" lon="105.1996378"><ele>722.33</ele><time>2026-06-26T00:04:16.000Z</time></trkpt>
        <trkpt lat="28.1341172" lon="105.19958"><ele>725.47</ele><time>2026-06-26T00:04:30.000Z</time></trkpt>
        <trkpt lat="28.1342031" lon="105.1995347"><ele>729.27</ele><time>2026-06-26T00:04:52.000Z</time></trkpt>
        <trkpt lat="28.1342966" lon="105.1994887"><ele>733.91</ele><time>2026-06-26T00:05:12.000Z</time></trkpt>
        <trkpt lat="28.1343855" lon="105.1994418"><ele>737.1</ele><time>2026-06-26T00:05:28.000Z</time></trkpt>
        <trkpt lat="28.1344521" lon="105.1993619"><ele>741.28</ele><time>2026-06-26T00:05:42.000Z</time></trkpt>
        <trkpt lat="28.1345052" lon="105.1992713"><ele>745.2</ele><time>2026-06-26T00:05:58.000Z</time></trkpt>
        <trkpt lat="28.1345674" lon="105.1991954"><ele>749.34</ele><time>2026-06-26T00:06:10.000Z</time></trkpt>
        <trkpt lat="28.1346436" lon="105.1991439"><ele>751.46</ele><time>2026-06-26T00:06:20.000Z</time></trkpt>
        <trkpt lat="28.1347348" lon="105.1991123"><ele>752.3</ele><time>2026-06-26T00:06:28.000Z</time></trkpt>
        <trkpt lat="28.1348188" lon="105.1990688"><ele>753.28</ele><time>2026-06-26T00:06:36.000Z</time></trkpt>
        <trkpt lat="28.1349012" lon="105.1990183"><ele>757.23</ele><time>2026-06-26T00:06:44.000Z</time></trkpt>
        <trkpt lat="28.134973" lon="105.1989534"><ele>759.33</ele><time>2026-06-26T00:06:54.000Z</time></trkpt>
        <trkpt lat="28.1350603" lon="105.1989134"><ele>761.39</ele><time>2026-06-26T00:07:04.000Z</time></trkpt>
        <trkpt lat="28.1351419" lon="105.1988596"><ele>765</ele><time>2026-06-26T00:07:14.000Z</time></trkpt>
        <trkpt lat="28.1351981" lon="105.1988351"><ele>768.44</ele><time>2026-06-26T00:07:20.000Z</time></trkpt>
        <trkpt lat="28.1352758" lon="105.1987819"><ele>770.32</ele><time>2026-06-26T00:07:36.000Z</time></trkpt>
        <trkpt lat="28.135355" lon="105.1987095"><ele>771.34</ele><time>2026-06-26T00:08:06.000Z</time></trkpt>
        <trkpt lat="28.1354477" lon="105.198677"><ele>774.07</ele><time>2026-06-26T00:09:00.000Z</time></trkpt>
        <trkpt lat="28.1355424" lon="105.1986685"><ele>777.31</ele><time>2026-06-26T00:09:08.000Z</time></trkpt>
        <trkpt lat="28.1356699" lon="105.1986724"><ele>780.51</ele><time>2026-06-26T00:09:16.000Z</time></trkpt>
        <trkpt lat="28.1357199" lon="105.1987131"><ele>783.72</ele><time>2026-06-26T00:09:26.000Z</time></trkpt>
        <trkpt lat="28.1357433" lon="105.1988316"><ele>782.53</ele><time>2026-06-26T00:09:40.000Z</time></trkpt>
        <trkpt lat="28.1357658" lon="105.1990116"><ele>781.77</ele><time>2026-06-26T00:09:44.000Z</time></trkpt>
        <trkpt lat="28.1358153" lon="105.1992085"><ele>783.81</ele><time>2026-06-26T00:09:48.000Z</time></trkpt>
        <trkpt lat="28.1359324" lon="105.1992993"><ele>786.33</ele><time>2026-06-26T00:09:52.000Z</time></trkpt>
        <trkpt lat="28.1360865" lon="105.1993761"><ele>788.26</ele><time>2026-06-26T00:09:56.000Z</time></trkpt>
        <trkpt lat="28.1361894" lon="105.1995156"><ele>789.74</ele><time>2026-06-26T00:10:00.000Z</time></trkpt>
        <trkpt lat="28.1362247" lon="105.1996811"><ele>791.77</ele><time>2026-06-26T00:10:04.000Z</time></trkpt>
        <trkpt lat="28.1362886" lon="105.1997783"><ele>793.33</ele><time>2026-06-26T00:10:06.000Z</time></trkpt>
        <trkpt lat="28.1363694" lon="105.1998563"><ele>794.16</ele><time>2026-06-26T00:10:08.000Z</time></trkpt>
        <trkpt lat="28.1364147" lon="105.1999637"><ele>794.42</ele><time>2026-06-26T00:10:10.000Z</time></trkpt>
        <trkpt lat="28.1364294" lon="105.2000936"><ele>794.38</ele><time>2026-06-26T00:10:12.000Z</time></trkpt>
        <trkpt lat="28.1364216" lon="105.2002249"><ele>794.59</ele><time>2026-06-26T00:10:14.000Z</time></trkpt>
        <trkpt lat="28.1364323" lon="105.20035"><ele>794.35</ele><time>2026-06-26T00:10:16.000Z</time></trkpt>
        <trkpt lat="28.1364855" lon="105.2004556"><ele>794.17</ele><time>2026-06-26T00:10:18.000Z</time></trkpt>
        <trkpt lat="28.136585" lon="105.2005313"><ele>793.97</ele><time>2026-06-26T00:10:20.000Z</time></trkpt>
        <trkpt lat="28.1367053" lon="105.2005849"><ele>793.52</ele><time>2026-06-26T00:10:22.000Z</time></trkpt>
        <trkpt lat="28.1368068" lon="105.2006401"><ele>793.09</ele><time>2026-06-26T00:10:24.000Z</time></trkpt>
        <trkpt lat="28.1368437" lon="105.2007294"><ele>792.98</ele><time>2026-06-26T00:10:26.000Z</time></trkpt>
        <trkpt lat="28.1368501" lon="105.2008353"><ele>792.9</ele><time>2026-06-26T00:10:28.000Z</time></trkpt>
        <trkpt lat="28.1368504" lon="105.2010107"><ele>792.74</ele><time>2026-06-26T00:10:32.000Z</time></trkpt>
        <trkpt lat="28.1368725" lon="105.2011372"><ele>792.5</ele><time>2026-06-26T00:10:34.000Z</time></trkpt>
        <trkpt lat="28.1369306" lon="105.2012222"><ele>791.16</ele><time>2026-06-26T00:10:36.000Z</time></trkpt>
        <trkpt lat="28.137018" lon="105.2012627"><ele>789.89</ele><time>2026-06-26T00:10:38.000Z</time></trkpt>
        <trkpt lat="28.1371167" lon="105.2012767"><ele>789.04</ele><time>2026-06-26T00:10:40.000Z</time></trkpt>
        <trkpt lat="28.1372175" lon="105.2012738"><ele>788.23</ele><time>2026-06-26T00:10:42.000Z</time></trkpt>
        <trkpt lat="28.1373057" lon="105.2012318"><ele>787.96</ele><time>2026-06-26T00:10:44.000Z</time></trkpt>
        <trkpt lat="28.1374464" lon="105.2011225"><ele>787.42</ele><time>2026-06-26T00:10:48.000Z</time></trkpt>
        <trkpt lat="28.1375535" lon="105.2010439"><ele>785.22</ele><time>2026-06-26T00:10:50.000Z</time></trkpt>
        <trkpt lat="28.1376538" lon="105.2009904"><ele>782.95</ele><time>2026-06-26T00:10:52.000Z</time></trkpt>
        <trkpt lat="28.137755" lon="105.2009365"><ele>780.78</ele><time>2026-06-26T00:10:54.000Z</time></trkpt>
        <trkpt lat="28.1378595" lon="105.200886"><ele>778.61</ele><time>2026-06-26T00:10:56.000Z</time></trkpt>
        <trkpt lat="28.1379683" lon="105.2008615"><ele>776.54</ele><time>2026-06-26T00:10:58.000Z</time></trkpt>
        <trkpt lat="28.1380833" lon="105.2008896"><ele>774.51</ele><time>2026-06-26T00:11:00.000Z</time></trkpt>
        <trkpt lat="28.1381941" lon="105.2009595"><ele>773.22</ele><time>2026-06-26T00:11:02.000Z</time></trkpt>
        <trkpt lat="28.1383055" lon="105.2010299"><ele>772.34</ele><time>2026-06-26T00:11:04.000Z</time></trkpt>
        <trkpt lat="28.1384282" lon="105.2010645"><ele>770.66</ele><time>2026-06-26T00:11:06.000Z</time></trkpt>
        <trkpt lat="28.1385545" lon="105.201064"><ele>767.84</ele><time>2026-06-26T00:11:08.000Z</time></trkpt>
        <trkpt lat="28.1386734" lon="105.2010142"><ele>765.15</ele><time>2026-06-26T00:11:10.000Z</time></trkpt>
        <trkpt lat="28.1387952" lon="105.2009588"><ele>761.95</ele><time>2026-06-26T00:11:12.000Z</time></trkpt>
        <trkpt lat="28.1389301" lon="105.2009181"><ele>758.55</ele><time>2026-06-26T00:11:14.000Z</time></trkpt>
        <trkpt lat="28.1390775" lon="105.200903"><ele>755.02</ele><time>2026-06-26T00:11:16.000Z</time></trkpt>
        <trkpt lat="28.1392303" lon="105.2009189"><ele>752.12</ele><time>2026-06-26T00:11:18.000Z</time></trkpt>
        <trkpt lat="28.1393746" lon="105.2009589"><ele>749.75</ele><time>2026-06-26T00:11:20.000Z</time></trkpt>
        <trkpt lat="28.139504" lon="105.20102"><ele>747.96</ele><time>2026-06-26T00:11:22.000Z</time></trkpt>
        <trkpt lat="28.1396161" lon="105.2010947"><ele>746.46</ele><time>2026-06-26T00:11:24.000Z</time></trkpt>
        <trkpt lat="28.1396938" lon="105.2011834"><ele>744.81</ele><time>2026-06-26T00:11:26.000Z</time></trkpt>
        <trkpt lat="28.1396745" lon="105.2013424"><ele>743.01</ele><time>2026-06-26T00:11:30.000Z</time></trkpt>
        <trkpt lat="28.1395975" lon="105.2014466"><ele>740.5</ele><time>2026-06-26T00:11:32.000Z</time></trkpt>
        <trkpt lat="28.1395181" lon="105.2015414"><ele>738.18</ele><time>2026-06-26T00:11:34.000Z</time></trkpt>
        <trkpt lat="28.1394962" lon="105.2016541"><ele>736.1</ele><time>2026-06-26T00:11:36.000Z</time></trkpt>
        <trkpt lat="28.1395403" lon="105.2017689"><ele>734.01</ele><time>2026-06-26T00:11:38.000Z</time></trkpt>
        <trkpt lat="28.1396191" lon="105.2018761"><ele>731.77</ele><time>2026-06-26T00:11:40.000Z</time></trkpt>
        <trkpt lat="28.1397233" lon="105.2019549"><ele>729.65</ele><time>2026-06-26T00:11:42.000Z</time></trkpt>
        <trkpt lat="28.1398503" lon="105.2020017"><ele>727.51</ele><time>2026-06-26T00:11:44.000Z</time></trkpt>
        <trkpt lat="28.1399872" lon="105.2020303"><ele>725.27</ele><time>2026-06-26T00:11:46.000Z</time></trkpt>
        <trkpt lat="28.1401276" lon="105.2020523"><ele>722.8</ele><time>2026-06-26T00:11:48.000Z</time></trkpt>
        <trkpt lat="28.1402468" lon="105.202076"><ele>720.22</ele><time>2026-06-26T00:11:50.000Z</time></trkpt>
        <trkpt lat="28.1403296" lon="105.2021304"><ele>717.78</ele><time>2026-06-26T00:11:52.000Z</time></trkpt>
        <trkpt lat="28.1403849" lon="105.202226"><ele>715.58</ele><time>2026-06-26T00:11:54.000Z</time></trkpt>
        <trkpt lat="28.140433" lon="105.2023439"><ele>713.27</ele><time>2026-06-26T00:11:56.000Z</time></trkpt>
        <trkpt lat="28.1405055" lon="105.2024355"><ele>711.25</ele><time>2026-06-26T00:11:58.000Z</time></trkpt>
        <trkpt lat="28.1406111" lon="105.2024705"><ele>709.51</ele><time>2026-06-26T00:12:00.000Z</time></trkpt>
        <trkpt lat="28.1407184" lon="105.20247"><ele>708.08</ele><time>2026-06-26T00:12:02.000Z</time></trkpt>
        <trkpt lat="28.1408763" lon="105.202438"><ele>706.91</ele><time>2026-06-26T00:12:06.000Z</time></trkpt>
        <trkpt lat="28.1409439" lon="105.2023477"><ele>705.02</ele><time>2026-06-26T00:12:08.000Z</time></trkpt>
        <trkpt lat="28.1409392" lon="105.2022261"><ele>703.18</ele><time>2026-06-26T00:12:10.000Z</time></trkpt>
        <trkpt lat="28.1409277" lon="105.20209"><ele>701.19</ele><time>2026-06-26T00:12:12.000Z</time></trkpt>
        <trkpt lat="28.1409522" lon="105.2019661"><ele>699.06</ele><time>2026-06-26T00:12:14.000Z</time></trkpt>
        <trkpt lat="28.1410245" lon="105.201878"><ele>697.17</ele><time>2026-06-26T00:12:16.000Z</time></trkpt>
        <trkpt lat="28.1411252" lon="105.2018068"><ele>695.45</ele><time>2026-06-26T00:12:18.000Z</time></trkpt>
        <trkpt lat="28.1412291" lon="105.2017202"><ele>693.81</ele><time>2026-06-26T00:12:20.000Z</time></trkpt>
        <trkpt lat="28.1413402" lon="105.2016469"><ele>691.89</ele><time>2026-06-26T00:12:22.000Z</time></trkpt>
        <trkpt lat="28.1414604" lon="105.2015983"><ele>689.73</ele><time>2026-06-26T00:12:24.000Z</time></trkpt>
        <trkpt lat="28.1415842" lon="105.2015619"><ele>687.63</ele><time>2026-06-26T00:12:26.000Z</time></trkpt>
        <trkpt lat="28.1417101" lon="105.2015253"><ele>685.53</ele><time>2026-06-26T00:12:28.000Z</time></trkpt>
        <trkpt lat="28.141829" lon="105.2014908"><ele>683.65</ele><time>2026-06-26T00:12:30.000Z</time></trkpt>
        <trkpt lat="28.1418962" lon="105.2014726"><ele>682.34</ele><time>2026-06-26T00:12:34.000Z</time></trkpt>
        <trkpt lat="28.1419922" lon="105.201486"><ele>681.54</ele><time>2026-06-26T00:12:56.000Z</time></trkpt>
        <trkpt lat="28.1420361" lon="105.2015876"><ele>681.75</ele><time>2026-06-26T00:13:00.000Z</time></trkpt>
        <trkpt lat="28.1420762" lon="105.2017555"><ele>681.96</ele><time>2026-06-26T00:13:04.000Z</time></trkpt>
        <trkpt lat="28.1421873" lon="105.201881"><ele>682.56</ele><time>2026-06-26T00:13:08.000Z</time></trkpt>
        <trkpt lat="28.1422818" lon="105.2018623"><ele>684.09</ele><time>2026-06-26T00:13:10.000Z</time></trkpt>
        <trkpt lat="28.1423463" lon="105.2017746"><ele>685.07</ele><time>2026-06-26T00:13:12.000Z</time></trkpt>
        <trkpt lat="28.1424142" lon="105.2016757"><ele>685.8</ele><time>2026-06-26T00:13:14.000Z</time></trkpt>
        <trkpt lat="28.1424893" lon="105.2015993"><ele>686.81</ele><time>2026-06-26T00:13:16.000Z</time></trkpt>
        <trkpt lat="28.1425838" lon="105.2015503"><ele>687.99</ele><time>2026-06-26T00:13:18.000Z</time></trkpt>
        <trkpt lat="28.142693" lon="105.2015163"><ele>689.09</ele><time>2026-06-26T00:13:20.000Z</time></trkpt>
        <trkpt lat="28.1428085" lon="105.2014884"><ele>689.98</ele><time>2026-06-26T00:13:22.000Z</time></trkpt>
        <trkpt lat="28.1429236" lon="105.2014737"><ele>690.62</ele><time>2026-06-26T00:13:24.000Z</time></trkpt>
        <trkpt lat="28.1430321" lon="105.2014829"><ele>691.4</ele><time>2026-06-26T00:13:26.000Z</time></trkpt>
        <trkpt lat="28.143153" lon="105.2015129"><ele>691.79</ele><time>2026-06-26T00:13:28.000Z</time></trkpt>
        <trkpt lat="28.1432833" lon="105.201558"><ele>692.04</ele><time>2026-06-26T00:13:30.000Z</time></trkpt>
        <trkpt lat="28.1434056" lon="105.2016168"><ele>692.48</ele><time>2026-06-26T00:13:32.000Z</time></trkpt>
        <trkpt lat="28.1435163" lon="105.2016797"><ele>692.63</ele><time>2026-06-26T00:13:34.000Z</time></trkpt>
        <trkpt lat="28.1436213" lon="105.2017558"><ele>692.53</ele><time>2026-06-26T00:13:36.000Z</time></trkpt>
        <trkpt lat="28.1437107" lon="105.2018537"><ele>692.75</ele><time>2026-06-26T00:13:38.000Z</time></trkpt>
        <trkpt lat="28.1437865" lon="105.2019708"><ele>692.75</ele><time>2026-06-26T00:13:40.000Z</time></trkpt>
        <trkpt lat="28.1438743" lon="105.2020836"><ele>692.94</ele><time>2026-06-26T00:13:42.000Z</time></trkpt>
        <trkpt lat="28.1439723" lon="105.2021795"><ele>693.4</ele><time>2026-06-26T00:13:44.000Z</time></trkpt>
        <trkpt lat="28.1440556" lon="105.2022443"><ele>693.59</ele><time>2026-06-26T00:13:46.000Z</time></trkpt>
        <trkpt lat="28.1441467" lon="105.2022867"><ele>693.25</ele><time>2026-06-26T00:13:48.000Z</time></trkpt>
        <trkpt lat="28.1442475" lon="105.2023069"><ele>692.29</ele><time>2026-06-26T00:13:50.000Z</time></trkpt>
        <trkpt lat="28.1443502" lon="105.2023196"><ele>691.33</ele><time>2026-06-26T00:13:52.000Z</time></trkpt>
        <trkpt lat="28.1444614" lon="105.2023448"><ele>690.23</ele><time>2026-06-26T00:13:56.000Z</time></trkpt>
        <trkpt lat="28.1444921" lon="105.2024403"><ele>688.6</ele><time>2026-06-26T00:14:00.000Z</time></trkpt>
        <trkpt lat="28.1444481" lon="105.2025547"><ele>686.81</ele><time>2026-06-26T00:14:02.000Z</time></trkpt>
        <trkpt lat="28.1444108" lon="105.2026762"><ele>685.42</ele><time>2026-06-26T00:14:04.000Z</time></trkpt>
        <trkpt lat="28.1444307" lon="105.202791"><ele>684.09</ele><time>2026-06-26T00:14:06.000Z</time></trkpt>
        <trkpt lat="28.1445016" lon="105.2028684"><ele>683.18</ele><time>2026-06-26T00:14:08.000Z</time></trkpt>
        <trkpt lat="28.1446006" lon="105.2029162"><ele>682.39</ele><time>2026-06-26T00:14:10.000Z</time></trkpt>
        <trkpt lat="28.1447142" lon="105.2029521"><ele>681.73</ele><time>2026-06-26T00:14:12.000Z</time></trkpt>
        <trkpt lat="28.1448239" lon="105.2029939"><ele>681.1</ele><time>2026-06-26T00:14:14.000Z</time></trkpt>
        <trkpt lat="28.1449224" lon="105.2030659"><ele>680.57</ele><time>2026-06-26T00:14:16.000Z</time></trkpt>
        <trkpt lat="28.1450083" lon="105.2031695"><ele>680.51</ele><time>2026-06-26T00:14:18.000Z</time></trkpt>
        <trkpt lat="28.1450977" lon="105.2032785"><ele>680.95</ele><time>2026-06-26T00:14:20.000Z</time></trkpt>
        <trkpt lat="28.1451902" lon="105.203385"><ele>681.73</ele><time>2026-06-26T00:14:22.000Z</time></trkpt>
        <trkpt lat="28.1452554" lon="105.2034873"><ele>682.74</ele><time>2026-06-26T00:14:24.000Z</time></trkpt>
        <trkpt lat="28.1452777" lon="105.2036427"><ele>684.45</ele><time>2026-06-26T00:14:28.000Z</time></trkpt>
        <trkpt lat="28.1452752" lon="105.2037076"><ele>686.12</ele><time>2026-06-26T00:14:32.000Z</time></trkpt>
        <trkpt lat="28.1452868" lon="105.2038112"><ele>687.37</ele><time>2026-06-26T00:15:12.000Z</time></trkpt>
        <trkpt lat="28.1453432" lon="105.203901"><ele>687.82</ele><time>2026-06-26T00:15:22.000Z</time></trkpt>
        <trkpt lat="28.1454378" lon="105.2038982"><ele>687.18</ele><time>2026-06-26T00:15:32.000Z</time></trkpt>
        <trkpt lat="28.1455381" lon="105.2038792"><ele>685.76</ele><time>2026-06-26T00:15:42.000Z</time></trkpt>
        <trkpt lat="28.1456627" lon="105.2038754"><ele>684.77</ele><time>2026-06-26T00:15:52.000Z</time></trkpt>
        <trkpt lat="28.1457696" lon="105.2038624"><ele>683.37</ele><time>2026-06-26T00:15:58.000Z</time></trkpt>
        <trkpt lat="28.1458658" lon="105.2038673"><ele>680.98</ele><time>2026-06-26T00:16:04.000Z</time></trkpt>
        <trkpt lat="28.1459412" lon="105.2039248"><ele>680.12</ele><time>2026-06-26T00:16:12.000Z</time></trkpt>
        <trkpt lat="28.1460364" lon="105.2039777"><ele>679.13</ele><time>2026-06-26T00:16:20.000Z</time></trkpt>
        <trkpt lat="28.1461204" lon="105.2040649"><ele>677.55</ele><time>2026-06-26T00:16:28.000Z</time></trkpt>
        <trkpt lat="28.1461627" lon="105.2041906"><ele>675.47</ele><time>2026-06-26T00:16:36.000Z</time></trkpt>
        <trkpt lat="28.1462005" lon="105.2043315"><ele>673.82</ele><time>2026-06-26T00:16:44.000Z</time></trkpt>
        <trkpt lat="28.146254" lon="105.2044371"><ele>672.38</ele><time>2026-06-26T00:16:48.000Z</time></trkpt>
        <trkpt lat="28.1463338" lon="105.2044998"><ele>671.31</ele><time>2026-06-26T00:16:52.000Z</time></trkpt>
        <trkpt lat="28.1464074" lon="105.2045679"><ele>671.03</ele><time>2026-06-26T00:16:58.000Z</time></trkpt>
        <trkpt lat="28.146499" lon="105.2046044"><ele>669.3</ele><time>2026-06-26T00:17:06.000Z</time></trkpt>
        <trkpt lat="28.1466007" lon="105.2045927"><ele>668.33</ele><time>2026-06-26T00:17:14.000Z</time></trkpt>
        <trkpt lat="28.146707" lon="105.2045754"><ele>667.48</ele><time>2026-06-26T00:17:22.000Z</time></trkpt>
        <trkpt lat="28.1468142" lon="105.2045708"><ele>667.27</ele><time>2026-06-26T00:17:30.000Z</time></trkpt>
        <trkpt lat="28.1469175" lon="105.20459"><ele>667.46</ele><time>2026-06-26T00:17:38.000Z</time></trkpt>
        <trkpt lat="28.1470119" lon="105.2045815"><ele>667.36</ele><time>2026-06-26T00:17:44.000Z</time></trkpt>
        <trkpt lat="28.1470841" lon="105.204506"><ele>666.91</ele><time>2026-06-26T00:17:50.000Z</time></trkpt>
        <trkpt lat="28.1471159" lon="105.2043883"><ele>666.6</ele><time>2026-06-26T00:17:56.000Z</time></trkpt>
        <trkpt lat="28.147125" lon="105.2042449"><ele>666.24</ele><time>2026-06-26T00:18:02.000Z</time></trkpt>
        <trkpt lat="28.1471274" lon="105.2041102"><ele>665.94</ele><time>2026-06-26T00:18:08.000Z</time></trkpt>
        <trkpt lat="28.1471713" lon="105.2039989"><ele>667.66</ele><time>2026-06-26T00:18:18.000Z</time></trkpt>
        <trkpt lat="28.1472208" lon="105.2039047"><ele>669.79</ele><time>2026-06-26T00:18:28.000Z</time></trkpt>
        <trkpt lat="28.1472625" lon="105.2038103"><ele>670.69</ele><time>2026-06-26T00:18:38.000Z</time></trkpt>
        <trkpt lat="28.1472968" lon="105.2037019"><ele>671.41</ele><time>2026-06-26T00:18:48.000Z</time></trkpt>
        <trkpt lat="28.1473267" lon="105.2035983"><ele>671.88</ele><time>2026-06-26T00:18:56.000Z</time></trkpt>
        <trkpt lat="28.1473361" lon="105.2034832"><ele>672.63</ele><time>2026-06-26T00:19:04.000Z</time></trkpt>
        <trkpt lat="28.1473371" lon="105.2033761"><ele>671.57</ele><time>2026-06-26T00:19:12.000Z</time></trkpt>
        <trkpt lat="28.147341" lon="105.2032599"><ele>669.07</ele><time>2026-06-26T00:19:18.000Z</time></trkpt>
        <trkpt lat="28.1473617" lon="105.2031488"><ele>667.81</ele><time>2026-06-26T00:19:24.000Z</time></trkpt>
        <trkpt lat="28.1474353" lon="105.2030854"><ele>666.49</ele><time>2026-06-26T00:19:32.000Z</time></trkpt>
        <trkpt lat="28.147548" lon="105.2030589"><ele>665.44</ele><time>2026-06-26T00:19:40.000Z</time></trkpt>
        <trkpt lat="28.1476494" lon="105.2030353"><ele>664.27</ele><time>2026-06-26T00:19:46.000Z</time></trkpt>
        <trkpt lat="28.1477464" lon="105.20303"><ele>663.21</ele><time>2026-06-26T00:19:52.000Z</time></trkpt>
        <trkpt lat="28.1478313" lon="105.2030851"><ele>661.54</ele><time>2026-06-26T00:19:58.000Z</time></trkpt>
        <trkpt lat="28.1479043" lon="105.2031767"><ele>660.07</ele><time>2026-06-26T00:20:06.000Z</time></trkpt>
        <trkpt lat="28.1479806" lon="105.2032543"><ele>658.13</ele><time>2026-06-26T00:20:12.000Z</time></trkpt>
        <trkpt lat="28.1480736" lon="105.2032889"><ele>655.96</ele><time>2026-06-26T00:20:22.000Z</time></trkpt>
        <trkpt lat="28.1481736" lon="105.2033132"><ele>653.01</ele><time>2026-06-26T00:20:30.000Z</time></trkpt>
        <trkpt lat="28.1482673" lon="105.2033019"><ele>650.59</ele><time>2026-06-26T00:20:46.000Z</time></trkpt>
        <trkpt lat="28.1483164" lon="105.2032175"><ele>646.37</ele><time>2026-06-26T00:21:02.000Z</time></trkpt>
        <trkpt lat="28.1482798" lon="105.2031148"><ele>643</ele><time>2026-06-26T00:21:08.000Z</time></trkpt>
        <trkpt lat="28.1482595" lon="105.2029938"><ele>640.67</ele><time>2026-06-26T00:21:20.000Z</time></trkpt>
        <trkpt lat="28.1482488" lon="105.2028722"><ele>637.29</ele><time>2026-06-26T00:21:30.000Z</time></trkpt>
        <trkpt lat="28.1483078" lon="105.2028974"><ele>634.68</ele><time>2026-06-26T00:21:50.000Z</time></trkpt>
        <trkpt lat="28.1483428" lon="105.2028401"><ele>629.36</ele><time>2026-06-26T00:21:58.000Z</time></trkpt>
        <trkpt lat="28.1483564" lon="105.2027346"><ele>626.02</ele><time>2026-06-26T00:22:04.000Z</time></trkpt>
        <trkpt lat="28.1483788" lon="105.2026174"><ele>624.34</ele><time>2026-06-26T00:22:14.000Z</time></trkpt>
        <trkpt lat="28.1484167" lon="105.2025581"><ele>621.22</ele><time>2026-06-26T00:22:24.000Z</time></trkpt>
        <trkpt lat="28.1485176" lon="105.20259"><ele>618.79</ele><time>2026-06-26T00:23:26.000Z</time></trkpt>
        <trkpt lat="28.148617" lon="105.2025808"><ele>612.67</ele><time>2026-06-26T00:23:36.000Z</time></trkpt>
        <trkpt lat="28.1487096" lon="105.2025905"><ele>607.66</ele><time>2026-06-26T00:23:48.000Z</time></trkpt>
        <trkpt lat="28.1487974" lon="105.2025531"><ele>603.08</ele><time>2026-06-26T00:24:04.000Z</time></trkpt>
        <trkpt lat="28.1488757" lon="105.2024865"><ele>599.42</ele><time>2026-06-26T00:24:22.000Z</time></trkpt>
        <trkpt lat="28.1489472" lon="105.2024088"><ele>597.14</ele><time>2026-06-26T00:24:36.000Z</time></trkpt>
        <trkpt lat="28.1489844" lon="105.2024737"><ele>595.27</ele><time>2026-06-26T00:24:46.000Z</time></trkpt>
        <trkpt lat="28.1490603" lon="105.2025057"><ele>591.54</ele><time>2026-06-26T00:25:10.000Z</time></trkpt>
        <trkpt lat="28.1491442" lon="105.2024597"><ele>587.81</ele><time>2026-06-26T00:25:32.000Z</time></trkpt>
        <trkpt lat="28.149205" lon="105.2023928"><ele>585.77</ele><time>2026-06-26T00:25:48.000Z</time></trkpt>
        <trkpt lat="28.1492507" lon="105.2024478"><ele>583.32</ele><time>2026-06-26T00:25:58.000Z</time></trkpt>
        <trkpt lat="28.1493275" lon="105.2024409"><ele>580.87</ele><time>2026-06-26T00:26:06.000Z</time></trkpt>
        <trkpt lat="28.1493868" lon="105.2023744"><ele>580.37</ele><time>2026-06-26T00:26:22.000Z</time></trkpt>
        <trkpt lat="28.1494393" lon="105.2022829"><ele>578.43</ele><time>2026-06-26T00:26:30.000Z</time></trkpt>
        <trkpt lat="28.1494948" lon="105.202176"><ele>576.6</ele><time>2026-06-26T00:26:38.000Z</time></trkpt>
        <trkpt lat="28.1495577" lon="105.202068"><ele>575.86</ele><time>2026-06-26T00:26:48.000Z</time></trkpt>
        <trkpt lat="28.1496432" lon="105.201997"><ele>576.16</ele><time>2026-06-26T00:26:58.000Z</time></trkpt>
        <trkpt lat="28.1497317" lon="105.2019497"><ele>576.12</ele><time>2026-06-26T00:27:06.000Z</time></trkpt>
        <trkpt lat="28.1498236" lon="105.2019239"><ele>576.05</ele><time>2026-06-26T00:27:14.000Z</time></trkpt>
        <trkpt lat="28.1498565" lon="105.2018461"><ele>575.19</ele><time>2026-06-26T00:27:28.000Z</time></trkpt>
        <trkpt lat="28.1498253" lon="105.2017516"><ele>573.8</ele><time>2026-06-26T00:27:42.000Z</time></trkpt>
        <trkpt lat="28.1497671" lon="105.2016475"><ele>573.7</ele><time>2026-06-26T00:27:54.000Z</time></trkpt>
        <trkpt lat="28.1496677" lon="105.2016191"><ele>572.94</ele><time>2026-06-26T00:28:04.000Z</time></trkpt>
        <trkpt lat="28.1495622" lon="105.201606"><ele>573.02</ele><time>2026-06-26T00:28:16.000Z</time></trkpt>
        <trkpt lat="28.1494653" lon="105.2015787"><ele>573.51</ele><time>2026-06-26T00:28:26.000Z</time></trkpt>
        <trkpt lat="28.1493713" lon="105.2015459"><ele>572.05</ele><time>2026-06-26T00:28:34.000Z</time></trkpt>
        <trkpt lat="28.1492962" lon="105.2014753"><ele>572.66</ele><time>2026-06-26T00:28:44.000Z</time></trkpt>
        <trkpt lat="28.1492376" lon="105.2013769"><ele>571.02</ele><time>2026-06-26T00:28:52.000Z</time></trkpt>
        <trkpt lat="28.1492206" lon="105.2012705"><ele>569.47</ele><time>2026-06-26T00:29:02.000Z</time></trkpt>
        <trkpt lat="28.1492217" lon="105.2011626"><ele>565.64</ele><time>2026-06-26T00:29:12.000Z</time></trkpt>
        <trkpt lat="28.1492072" lon="105.2010462"><ele>561.98</ele><time>2026-06-26T00:29:24.000Z</time></trkpt>
        <trkpt lat="28.1491651" lon="105.2009397"><ele>557.23</ele><time>2026-06-26T00:29:34.000Z</time></trkpt>
        <trkpt lat="28.1491206" lon="105.200831"><ele>552.15</ele><time>2026-06-26T00:29:44.000Z</time></trkpt>
        <trkpt lat="28.1490777" lon="105.200733"><ele>547.24</ele><time>2026-06-26T00:29:52.000Z</time></trkpt>
        <trkpt lat="28.1490362" lon="105.200622"><ele>543.1</ele><time>2026-06-26T00:30:02.000Z</time></trkpt>
        <trkpt lat="28.1489976" lon="105.2005206"><ele>538</ele><time>2026-06-26T00:30:12.000Z</time></trkpt>
        <trkpt lat="28.1489486" lon="105.2004292"><ele>535.16</ele><time>2026-06-26T00:30:24.000Z</time></trkpt>
        <trkpt lat="28.1488972" lon="105.2003298"><ele>533.61</ele><time>2026-06-26T00:30:34.000Z</time></trkpt>
        <trkpt lat="28.1488341" lon="105.2002389"><ele>531.41</ele><time>2026-06-26T00:30:44.000Z</time></trkpt>
        <trkpt lat="28.148779" lon="105.2001468"><ele>529.86</ele><time>2026-06-26T00:30:56.000Z</time></trkpt>
        <trkpt lat="28.1487545" lon="105.2000384"><ele>528.45</ele><time>2026-06-26T00:31:08.000Z</time></trkpt>
        <trkpt lat="28.1487686" lon="105.1999345"><ele>526.87</ele><time>2026-06-26T00:31:18.000Z</time></trkpt>
        <trkpt lat="28.1487798" lon="105.1998204"><ele>524.85</ele><time>2026-06-26T00:31:30.000Z</time></trkpt>
        <trkpt lat="28.1488007" lon="105.1997035"><ele>521.87</ele><time>2026-06-26T00:31:40.000Z</time></trkpt>
        <trkpt lat="28.148829" lon="105.1995962"><ele>519.13</ele><time>2026-06-26T00:31:48.000Z</time></trkpt>
        <trkpt lat="28.1488493" lon="105.1994864"><ele>516.85</ele><time>2026-06-26T00:31:56.000Z</time></trkpt>
        <trkpt lat="28.1488689" lon="105.1993589"><ele>515.15</ele><time>2026-06-26T00:32:04.000Z</time></trkpt>
        <trkpt lat="28.1488839" lon="105.1992453"><ele>514.19</ele><time>2026-06-26T00:32:10.000Z</time></trkpt>
        <trkpt lat="28.1488667" lon="105.1991378"><ele>513.13</ele><time>2026-06-26T00:32:16.000Z</time></trkpt>
        <trkpt lat="28.1488472" lon="105.1990165"><ele>512.41</ele><time>2026-06-26T00:32:24.000Z</time></trkpt>
        <trkpt lat="28.1488351" lon="105.1988955"><ele>511.19</ele><time>2026-06-26T00:32:32.000Z</time></trkpt>
        <trkpt lat="28.1488094" lon="105.1987841"><ele>509.22</ele><time>2026-06-26T00:32:40.000Z</time></trkpt>
        <trkpt lat="28.1487806" lon="105.1986725"><ele>507.28</ele><time>2026-06-26T00:32:48.000Z</time></trkpt>
        <trkpt lat="28.1487612" lon="105.198558"><ele>504.86</ele><time>2026-06-26T00:32:56.000Z</time></trkpt>
        <trkpt lat="28.1487706" lon="105.1984389"><ele>502.61</ele><time>2026-06-26T00:33:04.000Z</time></trkpt>
        <trkpt lat="28.1488181" lon="105.1983313"><ele>500.74</ele><time>2026-06-26T00:33:12.000Z</time></trkpt>
        <trkpt lat="28.1488377" lon="105.1982148"><ele>499.35</ele><time>2026-06-26T00:33:22.000Z</time></trkpt>
        <trkpt lat="28.1487913" lon="105.1981306"><ele>497.92</ele><time>2026-06-26T00:33:28.000Z</time></trkpt>
        <trkpt lat="28.1487392" lon="105.1980337"><ele>497.15</ele><time>2026-06-26T00:33:38.000Z</time></trkpt>
        <trkpt lat="28.1487048" lon="105.1979253"><ele>495.09</ele><time>2026-06-26T00:33:48.000Z</time></trkpt>
        <trkpt lat="28.1487075" lon="105.1978197"><ele>493.8</ele><time>2026-06-26T00:33:58.000Z</time></trkpt>
        <trkpt lat="28.148686" lon="105.1977086"><ele>491.24</ele><time>2026-06-26T00:34:08.000Z</time></trkpt>
        <trkpt lat="28.1486428" lon="105.1976151"><ele>488.51</ele><time>2026-06-26T00:34:18.000Z</time></trkpt>
        <trkpt lat="28.1485853" lon="105.1975175"><ele>485.88</ele><time>2026-06-26T00:34:30.000Z</time></trkpt>
        <trkpt lat="28.1485353" lon="105.1974063"><ele>483.26</ele><time>2026-06-26T00:34:40.000Z</time></trkpt>
        <trkpt lat="28.1485012" lon="105.1973001"><ele>480.13</ele><time>2026-06-26T00:34:50.000Z</time></trkpt>
        <trkpt lat="28.1484603" lon="105.1971925"><ele>476.9</ele><time>2026-06-26T00:35:00.000Z</time></trkpt>
        <trkpt lat="28.1483865" lon="105.1971095"><ele>473.4</ele><time>2026-06-26T00:35:10.000Z</time></trkpt>
        <trkpt lat="28.1483298" lon="105.1970148"><ele>470.74</ele><time>2026-06-26T00:35:20.000Z</time></trkpt>
        <trkpt lat="28.1482812" lon="105.1969056"><ele>466.96</ele><time>2026-06-26T00:35:30.000Z</time></trkpt>
        <trkpt lat="28.14823" lon="105.1968002"><ele>463.17</ele><time>2026-06-26T00:35:38.000Z</time></trkpt>
        <trkpt lat="28.1481947" lon="105.1966951"><ele>460.06</ele><time>2026-06-26T00:35:44.000Z</time></trkpt>
        <trkpt lat="28.1481529" lon="105.1965896"><ele>458.21</ele><time>2026-06-26T00:35:52.000Z</time></trkpt>
        <trkpt lat="28.1481106" lon="105.1964866"><ele>455.95</ele><time>2026-06-26T00:36:00.000Z</time></trkpt>
        <trkpt lat="28.1480798" lon="105.196382"><ele>453.39</ele><time>2026-06-26T00:36:08.000Z</time></trkpt>
        <trkpt lat="28.1480735" lon="105.1962734"><ele>451.65</ele><time>2026-06-26T00:36:16.000Z</time></trkpt>
        <trkpt lat="28.1480676" lon="105.1961889"><ele>450.23</ele><time>2026-06-26T00:36:24.000Z</time></trkpt>
        <trkpt lat="28.1480165" lon="105.1961175"><ele>448.9</ele><time>2026-06-26T00:36:48.000Z</time></trkpt>
        <trkpt lat="28.1479576" lon="105.1960405"><ele>447.74</ele><time>2026-06-26T00:36:58.000Z</time></trkpt>
        <trkpt lat="28.1479061" lon="105.1959425"><ele>446.04</ele><time>2026-06-26T00:37:08.000Z</time></trkpt>
        <trkpt lat="28.1478806" lon="105.1958286"><ele>445.18</ele><time>2026-06-26T00:37:22.000Z</time></trkpt>
        <trkpt lat="28.1479013" lon="105.1957169"><ele>443.79</ele><time>2026-06-26T00:37:34.000Z</time></trkpt>
        <trkpt lat="28.1479554" lon="105.1956227"><ele>442.48</ele><time>2026-06-26T00:37:54.000Z</time></trkpt>
        <trkpt lat="28.1480196" lon="105.1955386"><ele>440.55</ele><time>2026-06-26T00:38:08.000Z</time></trkpt>
        <trkpt lat="28.1480522" lon="105.195435"><ele>439.46</ele><time>2026-06-26T00:38:20.000Z</time></trkpt>
        <trkpt lat="28.1480267" lon="105.1953275"><ele>438.14</ele><time>2026-06-26T00:38:30.000Z</time></trkpt>
        <trkpt lat="28.1479951" lon="105.1952195"><ele>436.61</ele><time>2026-06-26T00:38:38.000Z</time></trkpt>
        <trkpt lat="28.1479694" lon="105.1951708"><ele>435.86</ele><time>2026-06-26T00:38:46.000Z</time></trkpt>
        <trkpt lat="28.1479694" lon="105.1951708"><ele>435.86</ele><time>2026-06-26T00:39:05.000Z</time></trkpt>
      </trkseg>
      <trkseg>
        <trkpt lat="28.1480585" lon="105.1949971"><ele>435.63</ele><time>2026-06-26T00:40:14.000Z</time></trkpt>
        <trkpt lat="28.1480585" lon="105.1949971"><ele>435.63</ele><time>2026-06-26T00:40:45.000Z</time></trkpt>
        <trkpt lat="28.1480221" lon="105.1948949"><ele>435.13</ele><time>2026-06-26T00:40:55.000Z</time></trkpt>
        <trkpt lat="28.1480101" lon="105.1947867"><ele>435.18</ele><time>2026-06-26T00:41:05.000Z</time></trkpt>
        <trkpt lat="28.1479943" lon="105.1947069"><ele>434</ele><time>2026-06-26T00:41:13.000Z</time></trkpt>
        <trkpt lat="28.1480032" lon="105.1946133"><ele>434.75</ele><time>2026-06-26T00:42:43.000Z</time></trkpt>
        <trkpt lat="28.148" lon="105.1944969"><ele>432.87</ele><time>2026-06-26T00:42:51.000Z</time></trkpt>
        <trkpt lat="28.1480082" lon="105.1943868"><ele>431.05</ele><time>2026-06-26T00:42:59.000Z</time></trkpt>
        <trkpt lat="28.1480316" lon="105.1942847"><ele>428.74</ele><time>2026-06-26T00:43:07.000Z</time></trkpt>
        <trkpt lat="28.1480693" lon="105.1941734"><ele>427.43</ele><time>2026-06-26T00:43:15.000Z</time></trkpt>
        <trkpt lat="28.1481029" lon="105.1940678"><ele>426.83</ele><time>2026-06-26T00:43:23.000Z</time></trkpt>
        <trkpt lat="28.148113" lon="105.1940313"><ele>426.46</ele><time>2026-06-26T00:43:25.000Z</time></trkpt>
        <trkpt lat="28.1480985" lon="105.193955"><ele>425.71</ele><time>2026-06-26T00:44:17.000Z</time></trkpt>
        <trkpt lat="28.1480529" lon="105.193853"><ele>428.08</ele><time>2026-06-26T00:44:27.000Z</time></trkpt>
        <trkpt lat="28.1480176" lon="105.19374"><ele>430.18</ele><time>2026-06-26T00:44:35.000Z</time></trkpt>
        <trkpt lat="28.1479879" lon="105.1936354"><ele>429.06</ele><time>2026-06-26T00:44:43.000Z</time></trkpt>
        <trkpt lat="28.1479494" lon="105.1935317"><ele>429.64</ele><time>2026-06-26T00:44:51.000Z</time></trkpt>
        <trkpt lat="28.1479172" lon="105.1934322"><ele>430.93</ele><time>2026-06-26T00:44:59.000Z</time></trkpt>
        <trkpt lat="28.1479096" lon="105.193321"><ele>432.58</ele><time>2026-06-26T00:45:09.000Z</time></trkpt>
        <trkpt lat="28.1479153" lon="105.1932004"><ele>435.12</ele><time>2026-06-26T00:45:19.000Z</time></trkpt>
        <trkpt lat="28.1479169" lon="105.1930816"><ele>437.89</ele><time>2026-06-26T00:45:29.000Z</time></trkpt>
        <trkpt lat="28.147915" lon="105.1929634"><ele>440.53</ele><time>2026-06-26T00:45:41.000Z</time></trkpt>
        <trkpt lat="28.1479355" lon="105.192854"><ele>442.43</ele><time>2026-06-26T00:45:49.000Z</time></trkpt>
        <trkpt lat="28.1479493" lon="105.1927434"><ele>444.62</ele><time>2026-06-26T00:45:59.000Z</time></trkpt>
        <trkpt lat="28.1479542" lon="105.1926377"><ele>445.97</ele><time>2026-06-26T00:46:07.000Z</time></trkpt>
        <trkpt lat="28.1479533" lon="105.1925274"><ele>447.37</ele><time>2026-06-26T00:46:17.000Z</time></trkpt>
        <trkpt lat="28.14793" lon="105.1924167"><ele>448.91</ele><time>2026-06-26T00:46:27.000Z</time></trkpt>
        <trkpt lat="28.1478907" lon="105.1923417"><ele>449.63</ele><time>2026-06-26T00:46:35.000Z</time></trkpt>
        <trkpt lat="28.147845" lon="105.1922407"><ele>450.82</ele><time>2026-06-26T00:46:51.000Z</time></trkpt>
        <trkpt lat="28.147833" lon="105.1921197"><ele>452.06</ele><time>2026-06-26T00:47:01.000Z</time></trkpt>
        <trkpt lat="28.1478416" lon="105.1920106"><ele>452.56</ele><time>2026-06-26T00:47:07.000Z</time></trkpt>
        <trkpt lat="28.1478543" lon="105.1918967"><ele>453.98</ele><time>2026-06-26T00:47:17.000Z</time></trkpt>
        <trkpt lat="28.1478941" lon="105.1917949"><ele>454.29</ele><time>2026-06-26T00:47:27.000Z</time></trkpt>
        <trkpt lat="28.1479021" lon="105.1916779"><ele>453.52</ele><time>2026-06-26T00:47:37.000Z</time></trkpt>
        <trkpt lat="28.1478978" lon="105.1915598"><ele>452.92</ele><time>2026-06-26T00:47:45.000Z</time></trkpt>
        <trkpt lat="28.147888" lon="105.1914497"><ele>452.06</ele><time>2026-06-26T00:47:51.000Z</time></trkpt>
        <trkpt lat="28.147905" lon="105.1913361"><ele>451.69</ele><time>2026-06-26T00:47:59.000Z</time></trkpt>
        <trkpt lat="28.1479636" lon="105.1912285"><ele>450.28</ele><time>2026-06-26T00:48:07.000Z</time></trkpt>
        <trkpt lat="28.1480031" lon="105.1911237"><ele>448.09</ele><time>2026-06-26T00:48:15.000Z</time></trkpt>
        <trkpt lat="28.148031" lon="105.1910227"><ele>445.37</ele><time>2026-06-26T00:49:13.000Z</time></trkpt>
        <trkpt lat="28.1480634" lon="105.190917"><ele>443.03</ele><time>2026-06-26T00:49:25.000Z</time></trkpt>
        <trkpt lat="28.1481111" lon="105.1908174"><ele>440.72</ele><time>2026-06-26T00:49:33.000Z</time></trkpt>
        <trkpt lat="28.1481372" lon="105.1907049"><ele>437.88</ele><time>2026-06-26T00:49:43.000Z</time></trkpt>
        <trkpt lat="28.1481535" lon="105.1905898"><ele>434.99</ele><time>2026-06-26T00:49:53.000Z</time></trkpt>
        <trkpt lat="28.1481696" lon="105.1904827"><ele>432.46</ele><time>2026-06-26T00:50:01.000Z</time></trkpt>
        <trkpt lat="28.1481873" lon="105.190369"><ele>428.98</ele><time>2026-06-26T00:50:09.000Z</time></trkpt>
        <trkpt lat="28.1482032" lon="105.1902502"><ele>425.05</ele><time>2026-06-26T00:50:17.000Z</time></trkpt>
        <trkpt lat="28.1482301" lon="105.1901288"><ele>421.37</ele><time>2026-06-26T00:50:25.000Z</time></trkpt>
        <trkpt lat="28.1482548" lon="105.1900089"><ele>418.88</ele><time>2026-06-26T00:50:33.000Z</time></trkpt>
        <trkpt lat="28.1482532" lon="105.189976"><ele>416.79</ele><time>2026-06-26T00:50:35.000Z</time></trkpt>
        <trkpt lat="28.1482725" lon="105.1899013"><ele>415.06</ele><time>2026-06-26T00:50:57.000Z</time></trkpt>
        <trkpt lat="28.1482824" lon="105.1897962"><ele>414.11</ele><time>2026-06-26T00:51:15.000Z</time></trkpt>
        <trkpt lat="28.1482791" lon="105.1896892"><ele>411.75</ele><time>2026-06-26T00:51:23.000Z</time></trkpt>
        <trkpt lat="28.1482604" lon="105.1895693"><ele>410.38</ele><time>2026-06-26T00:51:33.000Z</time></trkpt>
        <trkpt lat="28.1482682" lon="105.1894558"><ele>410.31</ele><time>2026-06-26T00:51:43.000Z</time></trkpt>
        <trkpt lat="28.1482887" lon="105.1893494"><ele>409.64</ele><time>2026-06-26T00:51:51.000Z</time></trkpt>
        <trkpt lat="28.1483173" lon="105.1892409"><ele>409.25</ele><time>2026-06-26T00:51:59.000Z</time></trkpt>
        <trkpt lat="28.1483173" lon="105.1891259"><ele>409.14</ele><time>2026-06-26T00:52:07.000Z</time></trkpt>
        <trkpt lat="28.1483019" lon="105.189018"><ele>410.7</ele><time>2026-06-26T00:52:15.000Z</time></trkpt>
        <trkpt lat="28.1482968" lon="105.1889004"><ele>411.44</ele><time>2026-06-26T00:52:23.000Z</time></trkpt>
        <trkpt lat="28.1482827" lon="105.1887928"><ele>413.11</ele><time>2026-06-26T00:52:31.000Z</time></trkpt>
        <trkpt lat="28.1482779" lon="105.1886808"><ele>414.92</ele><time>2026-06-26T00:52:39.000Z</time></trkpt>
        <trkpt lat="28.1482546" lon="105.1885763"><ele>416.83</ele><time>2026-06-26T00:52:47.000Z</time></trkpt>
        <trkpt lat="28.1482169" lon="105.188461"><ele>419.46</ele><time>2026-06-26T00:52:57.000Z</time></trkpt>
        <trkpt lat="28.1481649" lon="105.1883601"><ele>420.43</ele><time>2026-06-26T00:53:05.000Z</time></trkpt>
        <trkpt lat="28.1481307" lon="105.1882625"><ele>421.71</ele><time>2026-06-26T00:53:13.000Z</time></trkpt>
        <trkpt lat="28.1480843" lon="105.1881623"><ele>422.1</ele><time>2026-06-26T00:53:21.000Z</time></trkpt>
        <trkpt lat="28.1480209" lon="105.1880642"><ele>422.96</ele><time>2026-06-26T00:53:31.000Z</time></trkpt>
        <trkpt lat="28.1479607" lon="105.1879674"><ele>423.09</ele><time>2026-06-26T00:53:39.000Z</time></trkpt>
        <trkpt lat="28.1479165" lon="105.1878714"><ele>423.03</ele><time>2026-06-26T00:53:47.000Z</time></trkpt>
        <trkpt lat="28.1478949" lon="105.1877563"><ele>421.94</ele><time>2026-06-26T00:53:57.000Z</time></trkpt>
        <trkpt lat="28.147884" lon="105.1876292"><ele>420.26</ele><time>2026-06-26T00:54:07.000Z</time></trkpt>
        <trkpt lat="28.1478489" lon="105.1875213"><ele>414.84</ele><time>2026-06-26T00:54:17.000Z</time></trkpt>
        <trkpt lat="28.1478098" lon="105.1874162"><ele>411.77</ele><time>2026-06-26T00:54:27.000Z</time></trkpt>
        <trkpt lat="28.1477716" lon="105.1873172"><ele>411.45</ele><time>2026-06-26T00:54:35.000Z</time></trkpt>
        <trkpt lat="28.1477993" lon="105.1872154"><ele>411.82</ele><time>2026-06-26T00:54:47.000Z</time></trkpt>
        <trkpt lat="28.1478118" lon="105.1871922"><ele>413.31</ele><time>2026-06-26T00:54:49.000Z</time></trkpt>
        <trkpt lat="28.1478118" lon="105.1871922"><ele>413.31</ele><time>2026-06-26T00:54:57.000Z</time></trkpt>
      </trkseg>
      <trkseg>
        <trkpt lat="28.1476905" lon="105.187249"><ele>413.87</ele><time>2026-06-26T00:56:56.000Z</time></trkpt>
        <trkpt lat="28.1476905" lon="105.187249"><ele>413.87</ele><time>2026-06-26T00:57:00.000Z</time></trkpt>
        <trkpt lat="28.1476999" lon="105.1871381"><ele>412.97</ele><time>2026-06-26T00:57:20.000Z</time></trkpt>
        <trkpt lat="28.1476237" lon="105.1870575"><ele>412.96</ele><time>2026-06-26T00:58:12.000Z</time></trkpt>
        <trkpt lat="28.1476679" lon="105.1870097"><ele>413.57</ele><time>2026-06-26T00:58:22.000Z</time></trkpt>
        <trkpt lat="28.1477468" lon="105.1869564"><ele>412.31</ele><time>2026-06-26T00:58:36.000Z</time></trkpt>
        <trkpt lat="28.1478533" lon="105.1869543"><ele>410.21</ele><time>2026-06-26T00:58:44.000Z</time></trkpt>
        <trkpt lat="28.1479683" lon="105.1869737"><ele>408.58</ele><time>2026-06-26T00:58:52.000Z</time></trkpt>
        <trkpt lat="28.1480675" lon="105.1869588"><ele>407.97</ele><time>2026-06-26T00:58:58.000Z</time></trkpt>
        <trkpt lat="28.1481687" lon="105.1869731"><ele>408.1</ele><time>2026-06-26T00:59:06.000Z</time></trkpt>
        <trkpt lat="28.1482456" lon="105.1870049"><ele>407.52</ele><time>2026-06-26T00:59:16.000Z</time></trkpt>
        <trkpt lat="28.1482868" lon="105.1869386"><ele>406.92</ele><time>2026-06-26T00:59:44.000Z</time></trkpt>
        <trkpt lat="28.1483604" lon="105.1868974"><ele>409.9</ele><time>2026-06-26T00:59:56.000Z</time></trkpt>
        <trkpt lat="28.1484569" lon="105.1869015"><ele>410.44</ele><time>2026-06-26T01:00:06.000Z</time></trkpt>
        <trkpt lat="28.1485516" lon="105.1869082"><ele>410.02</ele><time>2026-06-26T01:00:14.000Z</time></trkpt>
        <trkpt lat="28.1486446" lon="105.1868833"><ele>408.95</ele><time>2026-06-26T01:00:22.000Z</time></trkpt>
        <trkpt lat="28.1487446" lon="105.1868626"><ele>408.19</ele><time>2026-06-26T01:00:30.000Z</time></trkpt>
        <trkpt lat="28.1488526" lon="105.1868507"><ele>406.95</ele><time>2026-06-26T01:00:38.000Z</time></trkpt>
        <trkpt lat="28.1489386" lon="105.186841"><ele>405.2</ele><time>2026-06-26T01:00:50.000Z</time></trkpt>
        <trkpt lat="28.1490384" lon="105.1868235"><ele>403.13</ele><time>2026-06-26T01:01:12.000Z</time></trkpt>
        <trkpt lat="28.1491401" lon="105.186801"><ele>401.84</ele><time>2026-06-26T01:01:20.000Z</time></trkpt>
        <trkpt lat="28.1492446" lon="105.1867821"><ele>401</ele><time>2026-06-26T01:01:28.000Z</time></trkpt>
        <trkpt lat="28.1493577" lon="105.186769"><ele>400.98</ele><time>2026-06-26T01:01:36.000Z</time></trkpt>
        <trkpt lat="28.1494546" lon="105.1867759"><ele>400.62</ele><time>2026-06-26T01:01:42.000Z</time></trkpt>
        <trkpt lat="28.1495549" lon="105.1867891"><ele>400.54</ele><time>2026-06-26T01:01:50.000Z</time></trkpt>
        <trkpt lat="28.1496591" lon="105.1867988"><ele>401.17</ele><time>2026-06-26T01:01:58.000Z</time></trkpt>
        <trkpt lat="28.1497617" lon="105.18681"><ele>401.68</ele><time>2026-06-26T01:02:06.000Z</time></trkpt>
        <trkpt lat="28.1498631" lon="105.1868182"><ele>401.84</ele><time>2026-06-26T01:02:14.000Z</time></trkpt>
        <trkpt lat="28.1499657" lon="105.186831"><ele>401.17</ele><time>2026-06-26T01:02:22.000Z</time></trkpt>
        <trkpt lat="28.1500679" lon="105.1868422"><ele>400.36</ele><time>2026-06-26T01:02:30.000Z</time></trkpt>
        <trkpt lat="28.1501394" lon="105.1868521"><ele>399.67</ele><time>2026-06-26T01:02:38.000Z</time></trkpt>
        <trkpt lat="28.1501676" lon="105.1867754"><ele>399.11</ele><time>2026-06-26T01:03:14.000Z</time></trkpt>
        <trkpt lat="28.150185" lon="105.1866652"><ele>398.24</ele><time>2026-06-26T01:03:28.000Z</time></trkpt>
        <trkpt lat="28.1502496" lon="105.1865777"><ele>398.03</ele><time>2026-06-26T01:03:42.000Z</time></trkpt>
        <trkpt lat="28.1502951" lon="105.1865424"><ele>397.98</ele><time>2026-06-26T01:03:48.000Z</time></trkpt>
        <trkpt lat="28.1503734" lon="105.1865001"><ele>397.87</ele><time>2026-06-26T01:04:18.000Z</time></trkpt>
        <trkpt lat="28.1504583" lon="105.1864495"><ele>397.28</ele><time>2026-06-26T01:04:26.000Z</time></trkpt>
        <trkpt lat="28.1505453" lon="105.1864048"><ele>395.78</ele><time>2026-06-26T01:04:34.000Z</time></trkpt>
        <trkpt lat="28.1506526" lon="105.1863844"><ele>394.11</ele><time>2026-06-26T01:04:42.000Z</time></trkpt>
        <trkpt lat="28.1507658" lon="105.1863838"><ele>393.22</ele><time>2026-06-26T01:04:50.000Z</time></trkpt>
        <trkpt lat="28.1508737" lon="105.1864044"><ele>393.17</ele><time>2026-06-26T01:04:58.000Z</time></trkpt>
        <trkpt lat="28.1509786" lon="105.1864221"><ele>393.1</ele><time>2026-06-26T01:05:06.000Z</time></trkpt>
        <trkpt lat="28.1510726" lon="105.1864171"><ele>393.3</ele><time>2026-06-26T01:05:14.000Z</time></trkpt>
        <trkpt lat="28.1511622" lon="105.1864068"><ele>394.07</ele><time>2026-06-26T01:05:22.000Z</time></trkpt>
        <trkpt lat="28.15125" lon="105.1863723"><ele>395.19</ele><time>2026-06-26T01:05:30.000Z</time></trkpt>
        <trkpt lat="28.1513263" lon="105.1863026"><ele>396.04</ele><time>2026-06-26T01:05:38.000Z</time></trkpt>
        <trkpt lat="28.1513962" lon="105.1862265"><ele>398.03</ele><time>2026-06-26T01:05:46.000Z</time></trkpt>
        <trkpt lat="28.1514736" lon="105.1861654"><ele>400.37</ele><time>2026-06-26T01:05:56.000Z</time></trkpt>
        <trkpt lat="28.1515651" lon="105.1861785"><ele>402.2</ele><time>2026-06-26T01:06:04.000Z</time></trkpt>
        <trkpt lat="28.1516589" lon="105.1862442"><ele>402.95</ele><time>2026-06-26T01:06:12.000Z</time></trkpt>
        <trkpt lat="28.1517408" lon="105.1863486"><ele>402.89</ele><time>2026-06-26T01:06:20.000Z</time></trkpt>
        <trkpt lat="28.151812" lon="105.1864655"><ele>402.7</ele><time>2026-06-26T01:06:28.000Z</time></trkpt>
        <trkpt lat="28.1518711" lon="105.1865654"><ele>402.37</ele><time>2026-06-26T01:06:34.000Z</time></trkpt>
        <trkpt lat="28.1519303" lon="105.1866478"><ele>402.47</ele><time>2026-06-26T01:06:40.000Z</time></trkpt>
        <trkpt lat="28.152019" lon="105.1867199"><ele>402.03</ele><time>2026-06-26T01:06:48.000Z</time></trkpt>
        <trkpt lat="28.1521176" lon="105.1867842"><ele>401.26</ele><time>2026-06-26T01:06:54.000Z</time></trkpt>
        <trkpt lat="28.1522149" lon="105.1868548"><ele>400.33</ele><time>2026-06-26T01:06:58.000Z</time></trkpt>
        <trkpt lat="28.1523059" lon="105.1869314"><ele>399.93</ele><time>2026-06-26T01:07:02.000Z</time></trkpt>
        <trkpt lat="28.1523944" lon="105.1870038"><ele>399.72</ele><time>2026-06-26T01:07:06.000Z</time></trkpt>
        <trkpt lat="28.1524839" lon="105.1870756"><ele>399.71</ele><time>2026-06-26T01:07:10.000Z</time></trkpt>
        <trkpt lat="28.1525793" lon="105.1871326"><ele>399.62</ele><time>2026-06-26T01:07:14.000Z</time></trkpt>
        <trkpt lat="28.1526721" lon="105.1871715"><ele>399.23</ele><time>2026-06-26T01:07:18.000Z</time></trkpt>
        <trkpt lat="28.1527576" lon="105.1872151"><ele>398.88</ele><time>2026-06-26T01:07:22.000Z</time></trkpt>
        <trkpt lat="28.1528573" lon="105.18721"><ele>398.89</ele><time>2026-06-26T01:07:28.000Z</time></trkpt>
        <trkpt lat="28.1529206" lon="105.1871385"><ele>398.71</ele><time>2026-06-26T01:07:44.000Z</time></trkpt>
        <trkpt lat="28.1529452" lon="105.1870129"><ele>398.48</ele><time>2026-06-26T01:07:52.000Z</time></trkpt>
        <trkpt lat="28.152956" lon="105.1868704"><ele>399.15</ele><time>2026-06-26T01:08:00.000Z</time></trkpt>
        <trkpt lat="28.1529718" lon="105.1867323"><ele>400.56</ele><time>2026-06-26T01:08:08.000Z</time></trkpt>
        <trkpt lat="28.1529824" lon="105.1865962"><ele>401.79</ele><time>2026-06-26T01:08:16.000Z</time></trkpt>
        <trkpt lat="28.1529891" lon="105.1864629"><ele>402.91</ele><time>2026-06-26T01:08:24.000Z</time></trkpt>
        <trkpt lat="28.1529996" lon="105.1863376"><ele>403.92</ele><time>2026-06-26T01:08:32.000Z</time></trkpt>
        <trkpt lat="28.1530104" lon="105.186231"><ele>404</ele><time>2026-06-26T01:08:38.000Z</time></trkpt>
        <trkpt lat="28.1530405" lon="105.1861201"><ele>404.54</ele><time>2026-06-26T01:08:46.000Z</time></trkpt>
        <trkpt lat="28.1530707" lon="105.1860177"><ele>405.57</ele><time>2026-06-26T01:08:54.000Z</time></trkpt>
        <trkpt lat="28.1531484" lon="105.1859809"><ele>406.69</ele><time>2026-06-26T01:09:02.000Z</time></trkpt>
        <trkpt lat="28.1532562" lon="105.1859912"><ele>407.05</ele><time>2026-06-26T01:09:10.000Z</time></trkpt>
        <trkpt lat="28.1533743" lon="105.1860168"><ele>407.08</ele><time>2026-06-26T01:09:18.000Z</time></trkpt>
        <trkpt lat="28.1534928" lon="105.1860427"><ele>406.93</ele><time>2026-06-26T01:09:26.000Z</time></trkpt>
        <trkpt lat="28.1536091" lon="105.1860637"><ele>406.79</ele><time>2026-06-26T01:09:34.000Z</time></trkpt>
        <trkpt lat="28.1537291" lon="105.1860745"><ele>406.68</ele><time>2026-06-26T01:09:42.000Z</time></trkpt>
        <trkpt lat="28.1538444" lon="105.186079"><ele>406.49</ele><time>2026-06-26T01:09:50.000Z</time></trkpt>
        <trkpt lat="28.1539417" lon="105.1860803"><ele>405.71</ele><time>2026-06-26T01:09:56.000Z</time></trkpt>
        <trkpt lat="28.1540489" lon="105.1860801"><ele>405.85</ele><time>2026-06-26T01:10:04.000Z</time></trkpt>
        <trkpt lat="28.1541457" lon="105.1860838"><ele>405.5</ele><time>2026-06-26T01:10:10.000Z</time></trkpt>
        <trkpt lat="28.1542386" lon="105.1860697"><ele>404.89</ele><time>2026-06-26T01:10:16.000Z</time></trkpt>
        <trkpt lat="28.1543337" lon="105.1860111"><ele>404.23</ele><time>2026-06-26T01:10:24.000Z</time></trkpt>
        <trkpt lat="28.1544269" lon="105.1859261"><ele>403.94</ele><time>2026-06-26T01:10:32.000Z</time></trkpt>
        <trkpt lat="28.1545026" lon="105.1858364"><ele>403.7</ele><time>2026-06-26T01:10:40.000Z</time></trkpt>
        <trkpt lat="28.1545787" lon="105.1857469"><ele>404.58</ele><time>2026-06-26T01:10:48.000Z</time></trkpt>
        <trkpt lat="28.1546587" lon="105.1856744"><ele>405.02</ele><time>2026-06-26T01:10:56.000Z</time></trkpt>
        <trkpt lat="28.1547421" lon="105.1856306"><ele>404.21</ele><time>2026-06-26T01:11:02.000Z</time></trkpt>
        <trkpt lat="28.1548286" lon="105.1855991"><ele>403.84</ele><time>2026-06-26T01:11:08.000Z</time></trkpt>
        <trkpt lat="28.1549393" lon="105.1856277"><ele>402.91</ele><time>2026-06-26T01:11:14.000Z</time></trkpt>
        <trkpt lat="28.1550675" lon="105.1856744"><ele>402.77</ele><time>2026-06-26T01:11:18.000Z</time></trkpt>
        <trkpt lat="28.1551885" lon="105.1857103"><ele>402.03</ele><time>2026-06-26T01:11:22.000Z</time></trkpt>
        <trkpt lat="28.1551885" lon="105.1857103"><ele>402.03</ele><time>2026-06-26T01:11:24.000Z</time></trkpt>
      </trkseg>
  </trk>
</gpx>